[[{"header":{"parameterUnit":"m.s-1","parameterCategory":1,"la1":31.0,"la2":29.5877,"lo1":-88.7671,"lo2":-86.6584,"dy":0.0162,"dx":0.0185,"nx":115,"ny":88,"refTime":"2024-08-18T12:00:00:Z","depth":0,"parameterNumber":2,"parameterNumberName":"U-component_of_WINDS"},"data":[0.0,0.0,0.0,0.0,0.0,0.0,0.0,0.0,0.0,0.0,0.0,0.0,0.0,0.0,0.0,0.0,0.0,0.0,0.0,0.0,0.0,0.0,0.0,0.0,0.0,0.0,0.0,0.0,0.0,0.0,0.0,0.0,0.0,0.0,0.0,0.0,0.0,0.0,0.0,0.0,0.0,0.0,0.0,0.0,0.0,0.0,0.0,0.0,0.0,0.0,0.0,0.0,0.0,0.0,0.0,0.0,0.0,0.0,0.0,0.0,0.0,0.0,0.0,0.0,0.0,0.0,0.0,0.0,0.0,0.0,0.0,0.0,0.0,0.0,0.0,0.0,0.0,0.0,0.0,0.0,0.0,0.0,0.0,0.0,0.0,0.0,0.0,0.0,0.0,0.0,0.0,0.0,0.0,0.0,0.0,0.0,0.0,0.0,0.0,0.0,0.0,0.0,0.0,0.0,0.0,0.0,0.0,0.0,0.0,0.0,0.0,0.0,0.0,0.0,0.0,0.0,0.0,0.0,0.0,0.0,0.0,0.0,0.0,0.0,0.0,0.0,0.0,0.0,0.0,0.0,0.0,0.0,0.0,0.0,0.0,0.0,0.0,0.0,0.0,0.0,0.0,0.0,0.0,0.0,0.0,0.0,0.0,0.0,0.0,0.0,0.0,0.0,0.0,0.0,0.0,0.0,0.0,0.0,0.0,0.0,0.0,0.0,0.0,0.0,0.0,0.0,0.0,0.0,0.0,0.0,0.0,0.0,0.0,0.0,0.0,0.0,0.0,0.0,0.0,0.0,0.0,0.0,0.0,0.0,0.0,0.0,0.0,0.0,0.0,0.0,0.0,0.0,0.0,0.0,0.0,0.0,0.0,0.0,0.0,0.0,0.0,0.0,0.0,0.0,0.0,0.0,0.0,0.0,0.0,0.0,0.0,0.0,0.0,0.0,0.0,0.0,0.0,0.0,0.0,0.0,0.0,0.0,0.0,0.0,0.0,0.0,0.0,0.0,0.0,0.0,0.0,0.0,0.0,0.0,0.0,0.0,0.0,0.0,0.0,0.0,0.0,0.0,0.0,0.0,0.0,0.0,0.0,0.0,0.0,0.0,0.0,0.0,0.0,0.0,0.0,0.0,0.0,0.0,0.0,0.0,0.0,0.0,0.0,0.0,0.0,0.0,0.0,0.0,0.0,0.0,0.0,0.0,0.0,0.0,0.0,0.0,0.0,0.0,0.0,0.0,0.0,0.0,0.0,0.0,0.0,0.0,0.0,0.0,0.0,0.0,0.0,0.0,0.0,0.0,0.0,0.0,0.0,0.0,0.0,0.0,0.0,0.0,0.0,0.0,0.0,0.0,0.0,0.0,0.0,0.0,0.0,0.0,0.0,0.0,0.0,0.0,0.0,0.0,0.0,0.0,0.0,0.0,0.0,0.0,0.0,0.0,0.0,0.0,0.0,0.0,0.0,0.0,0.0,0.0,0.0,0.0,0.0,0.0,0.0,0.0,0.0,0.0,0.0,0.0,0.0,0.0,0.0,0.0,0.0,0.0,0.0,0.0,0.0,0.0,0.0,0.0,0.0,0.0,0.0,0.0,0.0,0.0,0.0,0.0,0.0,0.0,0.0,0.0,0.0,0.0,0.0,0.0,0.0,0.0,0.0,0.0,0.0,0.0,0.0,0.0,0.0,0.0,0.0,0.0,0.0,0.0,0.0,0.0,0.0,0.0,0.0,0.0,0.0,0.0,0.0,0.0,0.0,0.0,0.0,0.0,0.0,0.0,0.0,0.0,0.0,0.0,0.0,0.0,0.0,0.0,0.0,0.0,0.0,0.0,0.0,0.0,0.0,0.0,0.0,0.0,0.0,0.0,0.0,0.0,0.0,0.0,0.0,0.0,0.0,0.0,0.0,0.0,0.0,0.0,0.0,0.0,0.0,0.0,0.0,0.0,0.0,0.0,0.0,0.0,0.0,0.0,0.0,0.0,0.0,0.0,0.0,0.0,0.0,0.0,0.0,0.0,0.0,0.0,0.0,0.0,0.0,0.0,0.0,0.0,0.0,0.0,0.0,0.0,0.0,0.0,0.0,0.0,0.0,0.0,0.0,0.0,0.0,0.0,0.0,0.0,0.0,0.0,0.0,0.0,0.0,0.0,0.0,0.0,0.0,0.0,0.0,0.0,0.0,0.0,0.0,0.0,0.0,0.0,0.0,0.0,0.0,0.0,0.0,0.0,0.0,0.0,0.0,0.0,0.0,0.0,0.0,0.0,0.0,0.0,0.0,0.0,0.0,0.0,0.0,0.0,0.0,0.0,0.0,0.0,0.0,0.0,0.0,0.0,0.0,0.0,0.0,0.0,0.0,0.0,0.0,0.0,0.0,0.0,0.0,0.0,0.0,0.0,0.0,0.0,0.0,0.0,0.0,0.0,0.0,0.0,0.0,0.0,0.0,0.0,0.0,0.0,0.0,0.0,0.0,0.0,0.0,0.0,0.0,0.0,0.0,0.0,0.0,0.0,0.0,0.0,0.0,0.0,0.0,0.0,0.0,0.0,0.0,0.0,0.0,0.0,0.0,0.0,0.0,0.0,0.0,0.0,0.0,0.0,0.0,0.0,0.0,0.0,0.0,0.0,0.0,0.0,0.0,0.0,0.0,0.0,0.0,0.0,0.0,0.0,0.0,0.0,0.0,0.0,0.0,0.0,0.0,0.0,0.0,0.0,0.0,0.0,0.0,0.0,0.0,0.0,0.0,0.0,0.0,0.0,0.0,0.0,0.0,0.0,0.0,0.0,0.0,0.0,0.0,0.0,0.0,0.0,0.0,0.0,0.0,0.0,0.0,0.0,0.0,0.0,0.0,0.0,0.0,0.0,0.0,0.0,0.0,0.0,0.0,0.0,0.0,0.0,0.0,0.0,0.0,0.0,0.0,0.0,0.0,0.0,0.0,0.0,0.0,0.0,0.0,0.0,0.0,0.0,0.0,0.0,0.0,0.0,0.0,0.0,0.0,0.0,0.0,0.0,0.0,0.0,0.0,0.0,0.0,0.0,0.0,0.0,0.0,0.0,0.0,0.0,0.0,0.0,0.0,0.0,0.0,0.0,0.0,0.0,0.0,0.0,0.0,0.0,0.0,0.0,0.0,0.0,0.0,0.0,0.0,0.0,0.0,0.0,0.0,0.0,0.0,0.0,0.0,0.0,0.0,0.0,0.0,0.0,0.0,0.0,0.0,0.0,0.0,0.0,0.0,0.0,0.0,0.0,0.0,0.0,0.0,0.0,0.0,0.0,0.0,0.0,0.0,0.0,0.0,0.0,0.0,0.0,0.0,0.0,0.0,0.0,0.0,0.0,0.0,0.0,0.0,0.0,0.0,0.0,0.0,0.0,0.0,0.0,0.0,0.0,0.0,0.0,0.0,0.0,0.0,0.0,0.0,0.0,0.0,0.0,0.0,0.0,0.0,0.0,0.0,0.0,0.0,0.0,0.0,0.0,0.0,0.0,0.0,0.0,0.0,0.0,0.0,0.0,0.0,0.0,0.0,0.0,0.0,0.0,0.0,0.0,0.0,0.0,0.0,0.0,0.0,0.0,0.0,0.0,0.0,0.0,0.0,0.0,0.0,0.0,0.0,0.0,0.0,0.0,0.0,0.0,0.0,0.0,0.0,0.0,0.0,0.0,0.0,0.0,0.0,0.0,0.0,0.0,0.0,0.0,0.0,0.0,0.0,0.0,0.0,0.0,0.0,0.0,0.0,0.0,0.0,0.0,0.0,0.0,0.0,0.0,0.0,0.0,0.0,0.0,0.0,0.0,0.0,0.0,0.0,0.0,0.0,0.0,0.0,0.0,0.0,0.0,0.0,0.0,0.0,0.0,0.0,0.0,0.0,0.0,0.0,0.0,0.0,0.0,0.0,0.0,0.0,0.0,0.0,0.0,0.0,0.0,0.0,0.0,0.0,0.0,0.0,0.0,0.0,0.0,0.0,0.0,0.0,0.0,0.0,0.0,0.0,0.0,0.0,0.0,0.0,0.0,0.0,0.0,0.0,0.0,0.0,0.0,0.0,0.0,0.0,0.0,0.0,0.0,0.0,0.0,0.0,0.0,0.0,0.0,0.0,0.0,0.0,0.0,0.0,0.0,0.0,0.0,0.0,0.0,0.0,0.0,0.0,0.0,0.0,0.0,0.0,0.0,0.0,0.0,0.0,0.0,0.0,0.0,0.0,0.0,0.0,0.0,0.0,0.0,0.0,0.0,0.0,0.0,0.0,0.0,0.0,0.0,1.7402,0.0,0.0,0.0,0.0,0.0,0.0,0.0,0.0,0.0,0.0,0.0,0.0,0.0,0.0,0.0,0.0,0.0,0.0,0.0,0.0,0.0,0.0,0.0,0.0,0.0,0.0,0.0,0.0,0.0,0.0,0.0,0.0,0.0,0.0,0.0,0.0,0.0,0.0,0.0,0.0,0.0,0.0,0.0,0.0,0.0,0.0,0.0,0.0,0.0,0.0,0.0,0.0,0.0,0.0,0.0,0.0,0.0,0.0,0.0,0.0,0.0,0.0,0.0,0.0,0.0,0.0,0.0,0.0,0.0,0.0,0.0,0.0,0.0,0.0,0.0,0.0,0.0,0.0,0.0,0.0,0.0,0.0,0.0,0.0,0.0,0.0,0.0,0.0,0.0,0.0,0.0,0.0,0.0,0.0,0.0,0.0,0.0,0.0,0.0,0.0,0.0,0.0,0.0,0.0,0.0,0.0,0.0,0.0,0.0,0.0,1.8119,1.7995,1.7878,1.7606,1.7181,0.0,0.0,0.0,0.0,0.0,0.0,0.0,0.0,0.0,0.0,0.0,0.0,0.0,0.0,0.0,0.0,0.0,0.0,0.0,0.0,0.0,0.0,0.0,0.0,0.0,0.0,0.0,0.0,0.0,0.0,0.0,0.0,0.0,0.0,0.0,0.0,0.0,0.0,0.0,0.0,0.0,0.0,0.0,0.0,0.0,0.0,0.0,0.0,0.0,0.0,0.0,0.0,0.0,0.0,0.0,0.0,0.0,0.0,0.0,0.0,0.0,0.0,0.0,0.0,0.0,0.0,0.0,0.0,0.0,0.0,0.0,0.0,0.0,0.0,0.0,0.0,0.0,0.0,0.0,0.0,0.0,0.0,0.0,0.0,0.0,0.0,0.0,0.0,0.0,0.0,0.0,0.0,0.0,0.0,0.0,0.0,0.0,0.0,0.0,0.0,0.0,0.0,0.0,0.0,0.0,0.0,0.0,0.0,0.0,0.0,0.0,0.0,1.829,1.7953,1.729,0.0,0.0,0.0,0.0,0.0,0.0,0.0,0.0,0.0,0.0,0.0,0.0,0.0,0.0,0.0,0.0,0.0,0.0,0.0,0.0,0.0,0.0,0.0,0.0,0.0,0.0,0.0,0.0,0.0,0.0,0.0,0.0,0.0,0.0,0.0,0.0,0.0,0.0,0.0,0.0,0.0,0.0,0.0,0.0,0.0,0.0,0.0,0.0,0.0,0.0,0.0,0.0,0.0,0.0,0.0,0.0,0.0,0.0,0.0,0.0,0.0,0.0,0.0,0.0,0.0,0.0,0.0,0.0,0.0,0.0,0.0,0.0,0.0,0.0,0.0,0.0,0.0,0.0,0.0,0.0,0.0,0.0,0.0,0.0,0.0,0.0,0.0,0.0,0.0,0.0,0.0,0.0,0.0,0.0,0.0,0.0,0.0,0.0,0.0,0.0,0.0,0.0,0.0,0.0,0.0,0.0,0.0,0.0,0.0,0.0,1.8483,1.9833,1.9748,0.0,1.8113,0.0,0.0,0.0,0.0,0.0,0.0,0.0,0.0,0.0,0.0,0.0,0.0,0.0,0.0,0.0,0.0,0.0,0.0,0.0,0.0,0.0,0.0,0.0,0.0,0.0,0.0,0.0,0.0,0.0,0.0,0.0,0.0,0.0,0.0,0.0,0.0,0.0,0.0,0.0,0.0,0.0,0.0,0.0,0.0,0.0,0.0,0.0,0.0,0.0,0.0,0.0,0.0,0.0,0.0,0.0,0.0,0.0,0.0,0.0,0.0,0.0,0.0,0.0,0.0,0.0,0.0,0.0,0.0,0.0,0.0,0.0,0.0,0.0,0.0,0.0,0.0,0.0,0.0,0.0,0.0,0.0,0.0,0.0,0.0,0.0,0.0,0.0,0.0,0.0,0.0,0.0,0.0,0.0,0.0,0.0,0.0,0.0,0.0,0.0,0.0,0.0,0.0,0.0,0.0,0.0,0.0,0.0,0.0,0.0,0.0,0.0,1.9375,1.9096,1.8545,0.0,0.0,0.0,0.0,0.0,0.0,0.0,0.0,0.0,0.0,0.0,0.0,0.0,0.0,0.0,0.0,0.0,0.0,0.0,0.0,0.0,0.0,0.0,0.0,0.0,0.0,0.0,0.0,0.0,0.0,0.0,0.0,0.0,0.0,0.0,0.0,0.0,0.0,0.0,0.0,0.0,0.0,0.0,0.0,0.0,0.0,0.0,0.0,0.0,0.0,0.0,0.0,0.0,0.0,0.0,0.0,0.0,0.0,0.0,0.0,0.0,0.0,0.0,0.0,0.0,0.0,0.0,0.0,0.0,0.0,0.0,0.0,0.0,0.0,0.0,0.0,0.0,0.0,0.0,0.0,0.0,0.0,0.0,0.0,0.0,0.0,0.0,0.0,0.0,0.0,0.0,0.0,0.0,0.0,0.0,0.0,0.0,0.0,0.0,0.0,0.0,0.0,0.0,0.0,0.0,0.0,0.0,0.0,0.0,0.0,1.825,0.0,1.92,1.8896,1.8152,1.6957,0.0,0.0,0.0,0.0,0.0,0.0,0.0,0.0,0.0,0.0,0.0,0.0,0.0,0.0,0.0,0.0,0.0,0.0,0.0,0.0,0.0,0.0,0.0,0.0,0.0,0.0,0.0,0.0,0.0,0.0,0.0,0.0,0.0,0.0,0.0,0.0,0.0,0.0,0.0,0.0,0.0,0.0,0.0,0.0,0.0,0.0,0.0,0.0,0.0,0.0,0.0,0.0,0.0,0.0,0.0,0.0,0.0,0.0,0.0,0.0,0.0,0.0,0.0,0.0,0.0,0.0,0.0,0.0,0.0,0.0,0.0,0.0,0.0,0.0,0.0,0.0,0.0,0.0,0.0,0.0,0.0,0.0,0.0,0.0,0.0,0.0,0.0,0.0,0.0,0.0,0.0,0.0,0.0,0.0,0.0,0.0,0.0,0.0,0.0,0.0,0.0,0.0,0.0,0.0,0.0,0.0,0.0,0.0,0.0,1.9166,1.8941,2.001,1.9835,1.847,0.0,0.0,0.0,0.0,0.0,0.0,0.0,0.0,0.0,0.0,0.0,0.0,0.0,0.0,0.0,0.0,0.0,0.0,0.0,0.0,0.0,0.0,0.0,0.0,0.0,0.0,0.0,0.0,0.0,0.0,0.0,0.0,0.0,0.0,0.0,0.0,0.0,0.0,0.0,0.0,0.0,0.0,0.0,0.0,0.0,0.0,0.0,0.0,0.0,0.0,0.0,0.0,0.0,0.0,0.0,0.0,0.0,0.0,0.0,0.0,0.0,0.0,0.0,0.0,0.0,0.0,0.0,0.0,0.0,0.0,0.0,0.0,0.0,0.0,0.0,0.0,0.0,0.0,0.0,0.0,0.0,0.0,0.0,0.0,0.0,0.0,0.0,0.0,0.0,0.0,0.0,0.0,0.0,0.0,0.0,0.0,0.0,0.0,0.0,0.0,0.0,0.0,0.0,0.0,0.0,0.0,0.0,0.0,0.0,1.5897,1.6747,1.8578,2.127,1.8912,1.7475,0.0,0.0,0.0,0.0,0.0,0.0,0.0,0.0,0.0,0.0,0.0,0.0,0.0,0.0,0.0,0.0,0.0,0.0,0.0,0.0,0.0,0.0,0.0,0.0,0.0,0.0,0.0,0.0,0.0,0.0,0.0,0.0,0.0,0.0,0.0,0.0,0.0,0.0,0.0,0.0,0.0,0.0,0.0,0.0,0.0,0.0,0.0,0.0,0.0,0.0,0.0,0.0,0.0,0.0,0.0,0.0,0.0,0.0,0.0,0.0,0.0,0.0,0.0,0.0,0.0,0.0,0.0,0.0,0.0,0.0,0.0,0.0,0.0,0.0,0.0,0.0,0.0,0.0,0.0,0.0,0.0,0.0,0.0,0.0,0.0,0.0,0.0,0.0,0.0,0.0,0.0,0.0,0.0,0.0,0.0,0.0,0.0,0.0,0.0,0.0,0.0,0.0,0.0,0.0,0.0,0.0,0.0,0.0,0.0,1.501,0.0,1.9286,0.0,1.8607,1.6959,0.0,0.0,0.0,0.0,0.0,0.0,0.0,0.0,0.0,0.0,0.0,0.0,0.0,0.0,0.0,0.0,0.0,0.0,0.0,0.0,0.0,0.0,0.0,0.0,0.0,0.0,0.0,0.0,0.0,0.0,0.0,0.0,0.0,0.0,0.0,0.0,0.0,0.0,0.0,0.0,0.0,0.0,0.0,0.0,0.0,0.0,0.0,0.0,0.0,0.0,0.0,0.0,0.0,0.0,0.0,0.0,0.0,0.0,0.0,0.0,0.0,0.0,0.0,0.0,0.0,0.0,0.0,0.0,0.0,0.0,0.0,0.0,0.0,0.0,0.0,0.0,0.0,0.0,0.0,0.0,0.0,0.0,0.0,0.0,0.0,0.0,0.0,0.0,0.0,0.0,0.0,0.0,0.0,0.0,0.0,0.0,0.0,0.0,0.0,0.0,0.0,0.0,0.0,0.0,0.0,0.0,0.0,0.0,1.5054,1.8774,2.0631,2.0976,1.9901,1.9032,1.7029,0.0,0.0,0.0,0.0,0.0,0.0,0.0,0.0,0.0,0.0,0.0,0.0,0.0,0.0,0.0,0.0,0.0,0.0,0.0,0.0,0.0,0.0,0.0,0.0,0.0,0.0,0.0,0.0,0.0,0.0,0.0,0.0,0.0,0.0,0.0,0.0,0.0,0.0,0.0,0.0,0.0,0.0,0.0,0.0,0.0,0.0,0.0,0.0,0.0,0.0,0.0,0.0,0.0,0.0,0.0,0.0,0.0,0.0,0.0,0.0,0.0,0.0,0.0,0.0,0.0,0.0,0.0,0.0,0.0,0.0,0.0,0.0,0.0,0.0,0.0,0.0,0.0,0.0,0.0,0.0,0.0,0.0,0.0,0.0,0.0,0.0,0.0,0.0,0.0,0.0,0.0,0.0,0.0,0.0,0.0,0.0,0.0,0.0,0.0,0.0,0.0,0.0,0.0,0.0,0.0,0.0,0.0,0.0,0.0,1.7824,1.9034,2.0351,2.1619,1.8838,1.7352,0.0,0.0,0.0,0.0,0.0,0.0,0.0,0.0,0.0,0.0,0.0,0.0,0.0,0.0,0.0,0.0,0.0,0.0,0.0,0.0,0.0,0.0,0.0,0.0,0.0,0.0,0.0,0.0,0.0,0.0,0.0,0.0,0.0,0.0,0.0,0.0,0.0,0.0,0.0,0.0,0.0,0.0,0.0,0.0,0.0,0.0,0.0,0.0,0.0,0.0,0.0,0.0,0.0,0.0,0.0,0.0,0.0,0.0,0.0,0.0,0.0,0.0,0.0,0.0,0.0,0.0,0.0,0.0,0.0,0.0,0.0,0.0,0.0,0.0,0.0,0.0,0.0,0.0,0.0,0.0,0.0,0.0,0.0,0.0,0.0,0.0,0.0,0.0,0.0,0.0,0.0,0.0,0.0,0.0,0.0,0.0,0.0,0.0,0.0,0.0,0.0,0.0,0.0,0.0,0.0,0.0,0.0,0.0,0.0,1.9577,2.0775,2.1967,2.3114,1.9877,1.8314,1.8663,0.0,0.0,0.0,0.0,0.0,0.0,0.0,0.0,0.0,0.0,0.0,0.0,0.0,0.0,0.0,0.0,0.0,0.0,0.0,0.0,0.0,0.0,0.0,0.0,0.0,0.0,0.0,0.0,0.0,0.0,0.0,0.0,0.0,0.0,0.0,0.0,0.0,0.0,0.0,0.0,0.0,0.0,0.0,0.0,0.0,0.0,0.0,0.0,0.0,0.0,0.0,0.0,0.0,0.0,0.0,0.0,0.0,0.0,0.0,0.0,0.0,0.0,0.0,0.0,0.0,0.0,0.0,0.0,0.0,0.0,0.0,0.0,0.0,0.0,0.0,0.0,0.0,0.0,0.0,0.0,0.0,0.0,0.0,0.0,0.0,0.0,0.0,0.0,0.0,0.0,0.0,0.0,0.0,0.0,0.0,0.0,0.0,0.0,0.0,0.0,0.0,0.0,0.0,0.0,0.0,0.0,0.0,0.0,2.337,2.5167,2.543,2.41,2.1946,1.9813,0.0,0.0,0.0,0.0,0.0,0.0,0.0,0.0,0.0,0.0,0.0,0.0,0.0,0.0,0.0,0.0,0.0,0.0,0.0,0.0,0.0,0.0,0.0,0.0,0.0,0.0,0.0,0.0,0.0,0.0,0.0,0.0,0.0,0.0,0.0,0.0,0.0,0.0,0.0,0.0,0.0,0.0,0.0,0.0,0.0,0.0,0.0,0.0,0.0,0.0,0.0,0.0,0.0,0.0,0.0,0.0,0.0,0.0,0.0,0.0,0.0,0.0,0.0,0.0,0.0,0.0,0.0,0.0,0.0,0.0,0.0,0.0,0.0,0.0,0.0,0.0,0.0,0.0,0.0,0.0,0.0,0.0,0.0,0.0,0.0,0.0,0.0,0.0,0.0,0.0,0.0,0.0,0.0,0.0,0.0,0.0,0.0,0.0,0.0,0.0,0.0,0.0,0.0,0.0,0.0,0.0,0.0,0.0,0.0,2.45,2.6519,2.7098,2.6104,2.361,2.1452,0.0,0.0,0.0,0.0,0.0,0.0,0.0,0.0,0.0,0.0,0.0,0.0,0.0,0.0,0.0,0.0,0.0,0.0,0.0,0.0,0.0,0.0,0.0,0.0,0.0,0.0,0.0,0.0,0.0,0.0,0.0,0.0,0.0,0.0,0.0,0.0,0.0,0.0,0.0,0.0,0.0,0.0,0.0,0.0,0.0,0.0,0.0,0.0,0.0,0.0,0.0,0.0,0.0,0.0,0.0,0.0,0.0,0.0,0.0,0.0,0.0,0.0,0.0,0.0,0.0,0.0,0.0,0.0,0.0,0.0,0.0,0.0,0.0,0.0,0.0,0.0,0.0,0.0,0.0,0.0,0.0,0.0,0.0,0.0,0.0,0.0,0.0,0.0,0.0,0.0,0.0,0.0,0.0,0.0,0.0,0.0,0.0,0.0,0.0,0.0,0.0,0.0,0.0,0.0,0.0,0.0,0.0,0.0,2.2914,2.5381,2.7173,2.7883,2.7411,2.5276,2.3102,0.0,0.0,0.0,0.0,0.0,0.0,0.0,0.0,0.0,0.0,0.0,0.0,0.0,0.0,0.0,0.0,0.0,0.0,0.0,0.0,0.0,0.0,0.0,0.0,0.0,0.0,0.0,0.0,0.0,0.0,0.0,0.0,0.0,0.0,0.0,0.0,0.0,0.0,0.0,0.0,0.0,0.0,0.0,0.0,0.0,0.0,0.0,0.0,0.0,0.0,0.0,0.0,0.0,0.0,0.0,0.0,0.0,0.0,0.0,0.0,0.0,0.0,0.0,0.0,0.0,0.0,0.0,0.0,0.0,0.0,0.0,0.0,0.0,0.0,0.0,0.0,0.0,0.0,0.0,0.0,0.0,0.0,0.0,0.0,0.0,0.0,0.0,0.0,0.0,0.0,0.0,0.0,0.0,0.0,0.0,0.0,0.0,0.0,0.0,0.0,0.0,0.0,0.0,0.0,0.0,0.0,0.0,0.0,2.4059,2.5967,2.7431,2.8221,2.8158,2.6714,2.4591,0.0,0.0,0.0,0.0,0.0,0.0,0.0,0.0,0.0,0.0,0.0,0.0,0.0,0.0,0.0,0.0,0.0,0.0,0.0,0.0,0.0,0.0,0.0,0.0,0.0,0.0,0.0,0.0,0.0,0.0,0.0,0.0,0.0,0.0,0.0,0.0,0.0,0.0,0.0,0.0,0.0,0.0,0.0,0.0,0.0,0.0,0.0,0.0,0.0,0.0,0.0,0.0,0.0,0.0,0.0,0.0,0.0,0.0,0.0,0.0,0.0,0.0,0.0,0.0,0.0,0.0,0.0,0.0,0.0,0.0,0.0,0.0,0.0,0.0,0.0,0.0,0.0,0.0,0.0,0.0,0.0,0.0,0.0,0.0,0.0,0.0,0.0,0.0,0.0,0.0,0.0,0.0,0.0,0.0,0.0,0.0,0.0,0.0,0.0,0.0,0.0,0.0,0.0,0.0,0.0,0.0,0.0,0.0,2.5017,2.6009,2.7909,2.8893,2.8877,2.6939,2.4796,0.0,0.0,0.0,0.0,0.0,0.0,0.0,0.0,0.0,0.0,0.0,0.0,0.0,0.0,0.0,0.0,0.0,0.0,0.0,0.0,0.0,0.0,0.0,0.0,0.0,0.0,0.0,0.0,0.0,0.0,0.0,0.0,0.0,0.0,0.0,0.0,0.0,0.0,0.0,0.0,0.0,0.0,0.0,0.0,0.0,0.0,0.0,0.0,1.3789,0.0,0.0,0.0,0.0,0.0,0.0,0.0,0.0,0.0,0.0,0.0,0.0,0.0,0.0,0.0,0.0,0.0,0.0,0.0,0.0,0.0,0.0,0.0,0.0,0.0,0.0,0.0,0.0,0.0,0.0,0.0,0.0,0.0,0.0,0.0,0.0,0.0,0.0,0.0,0.0,0.0,0.0,0.0,0.0,0.0,0.0,0.0,0.0,0.0,0.0,0.0,0.0,0.0,0.0,0.0,0.0,0.0,0.0,0.0,2.5829,2.6519,2.8214,2.9114,2.9051,2.7381,2.5402,0.0,0.0,0.0,0.0,0.0,0.0,0.0,0.0,0.0,0.0,0.0,0.0,0.0,0.0,0.0,0.0,0.0,0.0,0.0,0.0,0.0,0.0,0.0,0.0,0.0,0.0,0.0,0.0,0.0,0.0,0.0,0.0,0.0,0.0,0.0,0.0,0.0,0.0,0.0,0.0,0.0,0.0,0.0,0.0,0.0,0.0,0.0,0.0,0.0,0.0,0.0,0.0,0.0,0.0,0.0,0.0,0.0,0.0,0.0,0.0,0.0,0.0,0.0,0.0,0.0,0.0,0.0,0.0,0.0,0.0,0.0,0.0,0.0,0.0,0.0,0.0,0.0,0.0,0.0,0.0,0.0,0.0,0.0,0.0,0.0,0.0,0.0,0.0,0.0,0.0,0.0,0.0,0.0,0.0,0.0,0.0,0.0,0.0,0.0,0.0,0.0,0.0,0.0,0.0,0.0,0.0,0.0,2.4021,2.6303,2.7099,2.8404,2.9114,2.9082,2.7799,2.602,2.3766,0.0,0.0,0.0,0.0,0.0,0.0,0.0,0.0,0.0,0.0,0.0,0.0,0.0,0.0,0.0,0.0,0.0,0.0,0.0,0.0,0.0,0.0,0.0,0.0,0.0,0.0,0.0,0.0,0.0,0.0,0.0,0.0,0.0,0.0,0.0,0.0,0.0,0.0,1.6233,1.7589,0.0,0.0,0.0,0.0,0.0,0.0,0.0,0.0,1.4342,0.0,0.0,0.0,0.0,0.0,0.0,0.0,0.0,0.0,0.0,0.0,0.0,0.0,0.0,0.0,0.0,0.0,0.0,0.0,0.0,0.0,0.0,0.0,0.0,0.0,0.0,0.0,0.0,0.0,0.0,0.0,0.0,0.0,0.0,0.0,0.0,0.0,0.0,0.0,0.0,0.0,0.0,0.0,0.0,0.0,0.0,0.0,0.0,0.0,0.0,0.0,0.0,0.0,0.0,0.0,0.0,2.2693,2.4569,2.6024,2.7083,2.8404,2.9114,2.9067,2.7799,2.6031,2.3734,0.0,0.0,0.0,0.0,0.0,0.0,0.0,0.0,0.0,0.0,0.0,0.0,0.0,0.0,0.0,0.0,0.0,0.0,0.0,0.0,0.0,0.0,0.0,0.0,0.0,0.0,0.0,0.0,0.0,0.0,0.0,0.0,0.0,0.0,0.0,0.0,0.0,0.0,0.0,1.9522,2.0097,0.0,0.0,0.0,0.0,0.0,0.0,0.0,0.0,1.4223,0.0,0.0,0.0,0.0,0.0,0.0,0.0,0.0,0.0,0.0,0.0,0.0,0.0,0.0,0.0,0.0,0.0,0.0,0.0,0.0,0.0,0.0,0.0,0.0,0.0,0.0,0.0,0.0,0.0,0.0,0.0,0.0,0.0,0.0,0.0,0.0,0.0,0.0,0.0,0.0,0.0,0.0,0.0,0.0,0.0,0.0,0.0,0.0,0.0,0.0,0.0,0.0,0.0,0.0,0.0,2.2173,2.4891,2.6539,2.7115,2.8404,2.8925,2.8557,2.692,2.4953,0.0,0.0,0.0,0.0,0.0,0.0,0.0,0.0,0.0,0.0,0.0,0.0,0.0,0.0,0.0,0.0,0.0,0.0,0.0,0.0,0.0,0.0,0.0,0.0,0.0,0.0,0.0,0.0,0.0,0.0,0.0,0.0,0.0,0.0,0.0,0.0,0.0,0.0,0.0,0.0,2.032,2.0737,2.0816,0.0,0.0,0.0,0.0,0.0,0.0,1.5421,1.4913,0.0,0.0,0.0,0.0,0.0,0.0,0.0,0.0,0.0,0.0,0.0,0.0,0.0,0.0,0.0,0.0,0.0,0.0,0.0,0.0,0.0,0.0,0.0,0.0,0.0,0.0,0.0,0.0,0.0,0.0,0.0,0.0,0.0,0.0,0.0,0.0,0.0,0.0,0.0,0.0,0.0,0.0,0.0,0.0,0.0,0.0,0.0,0.0,0.0,0.0,0.0,0.0,0.0,0.0,0.0,2.1334,2.4882,2.6867,2.713,2.8419,2.8794,2.8094,2.6361,2.4228,0.0,0.0,0.0,0.0,0.0,0.0,0.0,0.0,0.0,0.0,0.0,0.0,0.0,0.0,0.0,0.0,0.0,0.0,0.0,0.0,0.0,0.0,0.0,0.0,0.0,0.0,0.0,0.0,0.0,0.0,0.0,0.0,0.0,0.0,0.0,0.0,0.0,0.0,0.0,0.0,0.0,2.1358,2.1904,2.0795,0.0,0.0,0.0,0.0,1.68,1.6497,0.0,0.0,0.0,0.0,0.0,0.0,0.0,0.0,0.0,0.0,0.0,0.0,0.0,0.0,0.0,0.0,0.0,0.0,0.0,0.0,0.0,0.0,0.0,0.0,0.0,0.0,0.0,0.0,0.0,0.0,0.0,0.0,0.0,0.0,0.0,0.0,0.0,0.0,0.0,0.0,0.0,0.0,0.0,0.0,0.0,0.0,0.0,0.0,0.0,0.0,0.0,0.0,0.0,0.0,0.0,0.0,2.1548,2.4209,2.6066,2.7094,2.8419,2.8767,2.811,2.7288,2.5201,0.0,0.0,0.0,0.0,0.0,0.0,0.0,0.0,0.0,0.0,0.0,0.0,0.0,0.0,0.0,0.0,0.0,0.0,0.0,0.0,0.0,0.0,0.0,0.0,0.0,0.0,0.0,0.0,0.0,0.0,0.0,0.0,0.0,0.0,0.0,0.0,0.0,0.0,0.0,0.0,0.0,2.2382,2.1741,2.1444,2.0915,0.0,0.0,1.8812,1.8913,1.8791,0.0,0.0,0.0,0.0,0.0,0.0,0.0,0.0,0.0,0.0,0.0,0.0,0.0,0.0,0.0,0.0,0.0,0.0,0.0,0.0,0.0,0.0,0.0,0.0,0.0,0.0,0.0,0.0,0.0,0.0,0.0,0.0,0.0,0.0,0.0,0.0,0.0,0.0,0.0,0.0,0.0,0.0,0.0,0.0,0.0,0.0,0.0,0.0,0.0,0.0,0.0,0.0,0.0,0.0,0.0,1.9572,2.1635,2.4751,2.6618,2.7099,2.8036,2.821,2.7541,2.6088,2.3768,0.0,0.0,0.0,0.0,0.0,0.0,0.0,0.0,0.0,0.0,0.0,0.0,0.0,0.0,0.0,0.0,0.0,0.0,0.0,0.0,0.0,0.0,0.0,0.0,0.0,0.0,0.0,0.0,0.0,0.0,0.0,0.0,0.0,0.0,0.0,0.0,0.0,0.0,0.0,0.0,0.0,0.0,2.2521,2.234,0.0,0.0,0.0,1.9928,1.9691,0.0,0.0,0.0,0.0,0.0,0.0,0.0,0.0,0.0,0.0,0.0,0.0,0.0,0.0,0.0,0.0,0.0,0.0,0.0,0.0,0.0,0.0,0.0,0.0,0.0,0.0,0.0,0.0,0.0,0.0,0.0,0.0,0.0,0.0,0.0,0.0,0.0,0.0,0.0,0.0,0.0,0.0,0.0,0.0,0.0,0.0,0.0,0.0,0.0,0.0,0.0,0.0,0.0,0.0,0.0,0.0,0.0,2.1627,2.5042,2.682,2.6846,2.7494,2.7521,2.683,2.5246,0.0,0.0,0.0,0.0,0.0,0.0,0.0,0.0,0.0,0.0,0.0,0.0,0.0,0.0,0.0,0.0,0.0,0.0,0.0,0.0,0.0,0.0,0.0,0.0,0.0,0.0,0.0,1.2102,0.0,0.0,0.0,0.0,0.0,0.0,0.0,0.0,0.0,0.0,0.0,0.0,0.0,0.0,2.3108,2.3466,2.3394,2.3038,0.0,0.0,2.1068,2.033,2.0061,1.9387,0.0,0.0,0.0,0.0,0.0,0.0,0.0,0.0,0.0,0.0,0.0,0.0,0.0,0.0,0.0,0.0,0.0,0.0,0.0,0.0,0.0,0.0,0.0,0.0,0.0,0.0,0.0,0.0,0.0,0.0,0.0,0.0,0.0,0.0,0.0,0.0,0.0,0.0,0.0,0.0,0.0,0.0,0.0,0.0,0.0,0.0,0.0,0.0,0.0,0.0,0.0,0.0,0.0,0.0,0.0,2.1636,2.4556,2.6088,2.6109,2.6788,2.683,2.6103,2.5935,2.42,0.0,0.0,0.0,0.0,0.0,0.0,0.0,0.0,0.0,0.0,0.0,0.0,0.0,0.0,0.0,0.0,0.0,0.0,0.0,0.0,0.0,0.0,0.0,0.0,0.0,0.0,0.0,0.0,0.0,0.0,0.0,0.0,0.0,0.0,0.0,0.0,0.0,0.0,0.0,0.0,0.0,2.3462,2.4312,2.4552,2.4563,0.0,0.0,2.2392,2.1281,2.1766,2.1188,1.8018,0.0,0.0,0.0,0.0,0.0,0.0,0.0,0.0,0.0,0.0,0.0,0.0,0.0,0.0,0.0,0.0,0.0,0.0,0.0,0.0,0.0,0.0,0.0,0.0,0.0,0.0,0.0,0.0,0.0,0.0,0.0,0.0,0.0,0.0,0.0,0.0,0.0,0.0,0.0,0.0,0.0,0.0,0.0,0.0,0.0,0.0,0.0,0.0,0.0,0.0,0.0,0.0,0.0,2.0327,2.161,2.4742,2.6248,2.6009,2.6293,2.6293,2.6009,2.5608,2.392,0.0,0.0,0.0,0.0,0.0,0.0,0.0,0.0,0.0,0.0,0.0,0.0,0.0,0.0,0.0,0.0,0.0,0.0,0.0,0.0,0.0,0.0,0.0,0.0,0.0,0.0,0.0,0.0,1.4856,1.5443,1.5828,0.0,0.0,0.0,0.0,0.0,0.0,0.0,0.0,0.0,0.0,2.3809,2.4143,2.4389,0.0,0.0,2.3216,2.25,2.2072,2.1621,2.0634,1.8619,1.7214,0.0,0.0,0.0,0.0,0.0,0.0,0.0,0.0,0.0,0.0,0.0,0.0,0.0,0.0,0.0,0.0,0.0,0.0,0.0,0.0,0.0,0.0,0.0,0.0,0.0,0.0,0.0,0.0,0.0,0.0,0.0,0.0,0.0,0.0,0.0,0.0,0.0,0.0,0.0,0.0,0.0,0.0,0.0,0.0,0.0,0.0,0.0,0.0,0.0,0.0,0.0,0.0,2.0345,2.1608,2.4594,2.5995,2.5703,2.5719,2.5703,2.5687,2.5238,2.3853,0.0,0.0,0.0,0.0,0.0,0.0,0.0,0.0,0.0,0.0,0.0,0.0,0.0,0.0,0.0,0.0,0.0,0.0,0.0,0.0,0.0,0.0,0.0,0.0,0.0,0.0,0.0,0.0,1.5327,1.5741,1.6147,0.0,0.0,0.0,0.0,0.0,0.0,0.0,0.0,0.0,0.0,2.4118,2.4441,2.4346,2.4125,2.3764,2.293,2.2324,2.2324,2.1492,2.0303,1.8639,0.0,0.0,0.0,0.0,0.0,0.0,0.0,0.0,0.0,0.0,0.0,0.0,0.0,0.0,0.0,0.0,0.0,0.0,0.0,0.0,0.0,0.0,0.0,0.0,0.0,0.0,0.0,0.0,0.0,0.0,1.3653,0.0,0.0,0.0,0.0,0.0,0.0,0.0,0.0,0.0,0.0,0.0,0.0,0.0,0.0,0.0,0.0,0.0,0.0,0.0,0.0,0.0,0.0,2.0146,2.161,2.3923,2.5037,2.5027,2.5011,2.5043,2.5043,2.5011,2.4315,2.2835,0.0,0.0,0.0,0.0,0.0,0.0,0.0,0.0,0.0,0.0,0.0,0.0,0.0,0.0,0.0,0.0,0.0,0.0,0.0,0.0,0.0,0.0,0.0,0.0,0.0,0.0,1.437,1.5436,1.6176,0.0,0.0,0.0,0.0,0.0,0.0,0.0,0.0,0.0,0.0,2.3886,2.4409,2.5455,2.459,2.3826,2.3794,2.2742,2.1914,2.1944,2.1658,2.0544,0.0,0.0,0.0,0.0,0.0,0.0,0.0,0.0,0.0,0.0,0.0,0.0,0.0,0.0,0.0,0.0,0.0,0.0,0.0,0.0,0.0,0.0,0.0,0.0,0.0,0.0,0.0,1.8465,1.7814,0.0,0.0,0.0,0.0,0.0,0.0,0.0,0.0,0.0,0.0,0.0,2.3927,2.5454,0.0,0.0,0.0,0.0,0.0,0.0,0.0,0.0,0.0,0.0,0.0,0.0,2.113,2.2371,2.4295,2.5221,2.5005,2.4995,2.4995,2.4995,2.4995,2.4068,2.2081,0.0,0.0,0.0,0.0,0.0,0.0,0.0,0.0,0.0,0.0,0.0,0.0,0.0,0.0,0.0,0.0,0.0,0.0,0.0,0.0,0.0,0.0,0.0,0.0,0.0,1.4478,0.0,0.0,0.0,0.0,0.0,0.0,0.0,0.0,0.0,0.0,0.0,2.2317,2.4267,2.4554,2.4623,2.4703,2.4198,2.3678,0.0,0.0,0.0,0.0,0.0,0.0,0.0,0.0,0.0,0.0,0.0,0.0,0.0,0.0,1.1197,0.926,0.8013,0.7233,0.7092,0.0,0.0,0.0,0.0,0.0,0.0,0.0,0.0,0.0,0.0,0.0,0.0,0.0,0.0,2.1177,0.0,2.0596,0.0,0.0,0.0,0.0,0.0,0.0,0.0,0.0,2.4991,2.6471,2.7018,2.8533,2.8478,0.0,2.6813,2.4976,0.0,0.0,0.0,0.0,0.0,0.0,0.0,0.0,2.1812,2.2924,2.45,2.5227,2.5005,2.4995,2.4995,2.4995,2.4995,2.4159,2.2419,2.1294,1.9958,0.0,0.0,0.0,0.0,0.0,0.0,0.0,0.0,0.0,0.0,0.0,0.0,0.0,0.0,0.0,0.0,0.0,0.0,0.0,0.0,0.0,0.0,0.0,1.5225,0.0,0.0,0.0,0.0,0.0,0.0,0.0,0.0,0.0,2.2217,2.2871,2.3911,2.5535,2.5276,2.4784,2.4361,0.0,0.0,0.0,0.0,0.0,0.0,0.0,2.0225,1.967,1.8368,1.6942,1.5522,1.4255,1.3267,1.281,0.0,0.0,0.9912,0.872,0.7786,0.7198,0.6077,0.5145,0.4878,0.4626,0.4166,0.0,0.0,0.0,0.0,0.0,0.0,0.0,0.0,2.3628,2.3629,0.0,2.3233,0.0,0.0,0.0,0.0,0.0,2.3367,0.0,0.0,2.8331,2.9842,2.9889,2.9976,3.0025,3.0168,3.0747,2.9903,2.7533,2.3272,0.0,0.0,0.0,0.0,0.0,0.0,2.2246,2.3398,2.449,2.5043,2.5033,2.5027,2.4995,2.4995,2.4995,2.462,2.3843,2.3155,2.2084,2.0512,1.8509,0.0,0.0,0.0,0.0,0.0,0.0,0.0,0.0,0.0,0.0,0.0,0.0,0.0,0.0,0.0,0.0,0.0,0.0,0.0,0.0,1.5494,0.0,0.0,0.0,0.0,0.0,0.0,0.0,0.0,0.0,0.0,2.37,2.4422,2.5606,2.7081,0.0,0.0,0.0,0.0,2.2715,2.3176,2.2852,2.2859,2.3605,2.2391,2.0922,1.9696,0.0,0.0,1.5488,1.4265,1.3382,1.285,1.2304,1.1525,1.0616,0.9823,0.8986,0.7728,0.6235,0.5151,0.4669,0.3772,0.2958,2.7553,0.0,0.0,0.0,0.0,2.5485,2.6595,2.8678,2.7994,2.7453,2.7067,2.686,0.0,0.0,0.0,0.0,0.0,0.0,2.6534,2.7757,2.9196,3.0212,3.0836,3.1415,3.1397,3.0904,3.1089,3.0588,2.9396,2.808,2.5274,2.1126,0.0,0.0,0.0,0.0,2.4145,2.4791,2.5403,2.5708,2.5703,2.5254,2.4995,2.4995,2.4995,2.4857,2.4514,2.3864,2.3042,2.1991,1.9963,0.0,0.0,0.0,0.0,0.0,0.0,0.0,0.0,0.0,0.0,0.0,0.0,0.0,0.0,0.0,0.0,0.0,0.0,0.0,1.6227,1.6698,1.7334,0.0,0.0,0.0,0.0,0.0,0.0,0.0,0.0,0.0,2.5847,2.5984,2.6399,0.0,0.0,2.491,2.4433,2.3829,2.3574,2.3994,2.3955,0.0,0.0,2.1779,2.0458,1.9577,1.8141,1.6847,1.6091,1.4885,1.3948,1.3776,1.2921,1.1774,1.0262,0.8992,0.7872,0.6798,0.5247,0.4037,0.3838,0.3396,0.2961,2.995,2.7641,2.7663,2.8163,2.8919,2.8883,2.9888,3.1532,3.0895,3.0612,3.0653,3.0317,2.8816,2.6532,2.6412,0.0,0.0,0.0,2.8518,2.952,3.0316,3.1001,3.1567,3.2074,3.2099,3.1668,3.1668,3.144,3.1001,3.0662,2.8486,2.4633,0.0,0.0,2.344,2.4907,2.5828,2.6068,2.6317,2.6309,2.5993,2.5333,2.4995,2.4995,2.4995,2.4946,2.4892,2.4483,2.4,2.3397,2.1655,1.9965,0.0,0.0,0.0,0.0,0.0,0.0,0.0,0.0,0.0,0.0,0.0,1.4576,1.322,0.0,0.0,0.0,1.5598,1.7278,1.8956,1.9566,0.0,0.0,0.0,0.0,0.0,0.0,0.0,2.4834,2.6069,2.7051,2.7435,2.689,2.6641,2.7109,2.6127,2.5199,2.4694,0.0,2.4189,2.4619,2.4308,2.3862,2.336,2.161,1.9911,1.8716,1.7546,1.6624,1.6291,1.5143,1.4223,1.4035,1.2948,1.145,1.0072,0.8432,0.6977,0.6119,0.5056,0.4163,0.3669,0.3217,0.2889,3.125,3.0828,3.0881,3.0885,3.0954,3.1853,3.2475,3.2884,3.2539,3.3028,3.4034,3.3335,3.2231,3.0895,2.9498,0.0,2.8928,3.0326,3.0973,3.0999,3.1685,3.2062,3.2178,3.2196,3.2258,3.2371,3.2379,3.2371,3.231,3.1532,3.0447,2.9132,2.893,2.8306,2.7275,2.7262,2.7257,2.7173,2.7178,2.6799,2.6014,2.5387,2.5069,2.4995,2.4985,2.4976,2.5001,2.4976,2.4856,2.4573,2.3372,2.1818,1.9912,0.0,0.0,0.0,0.0,0.0,0.0,0.0,0.0,0.0,0.0,0.0,0.0,0.0,0.0,0.0,1.8941,0.0,2.2033,2.3235,0.0,0.0,0.0,2.4487,2.388,2.5715,2.6886,2.6524,0.0,0.0,2.8425,2.7337,2.6499,2.6615,2.6148,2.5633,2.5175,2.476,2.4635,2.4916,2.4182,2.3627,2.3433,2.14,1.9184,1.7575,1.6902,1.6604,1.6238,1.511,1.4277,1.4196,1.2513,1.0852,0.9962,0.8183,0.6508,0.5611,0.5282,0.4869,0.3846,0.3155,0.273,3.2696,3.2586,3.2709,3.2184,3.1299,3.1683,3.2304,3.3047,3.3057,3.3458,3.4086,3.3896,3.362,3.3275,3.2913,3.2741,3.2775,3.3137,3.3323,3.3338,3.2986,3.2868,3.2924,3.2378,3.2135,3.2153,3.2214,3.2205,3.2153,3.1703,3.1222,3.0732,3.0345,2.8939,2.6664,2.7577,2.8041,2.7868,2.7857,2.7257,2.6056,2.5851,2.5523,2.5011,2.4912,2.4852,2.4852,2.4731,2.466,2.4568,2.3756,2.2651,2.1272,1.8856,0.0,0.0,0.0,0.0,0.0,0.0,0.0,0.0,0.0,1.792,1.5022,0.0,1.9258,0.0,2.1061,2.2588,2.3368,2.4046,0.0,0.0,2.5933,2.6142,2.6492,2.7383,2.7988,2.797,2.8509,2.8681,2.8132,2.7453,2.6761,2.6028,2.5815,2.5571,2.5165,2.5269,2.5126,2.4495,2.4104,2.3336,2.1608,1.9753,1.8127,1.7001,1.6756,1.6544,1.6072,1.503,1.4196,1.4062,1.2513,1.093,0.9935,0.8472,0.6952,0.5678,0.4676,0.3966,0.3703,0.3155,0.2713,3.2841,3.2855,3.2935,3.2534,3.1892,3.2582,3.3231,3.3767,3.3862,3.4079,3.439,3.4058,3.4032,3.4213,3.3888,3.3869,3.4086,3.4086,3.4116,3.414,3.3773,3.3447,3.3138,3.2768,3.2404,3.2099,3.2135,3.2135,3.2082,3.1849,3.1488,3.0995,3.0696,2.9544,2.7673,2.8516,2.8877,2.8541,2.8252,2.7715,2.6957,2.6325,2.5819,2.545,2.509,2.4862,2.4802,2.4726,2.4499,2.4139,2.3716,2.2841,2.1451,1.9729,1.8163,0.0,0.0,0.0,0.0,0.0,0.0,0.0,0.0,0.0,0.0,0.0,2.1576,2.2156,2.4198,2.5609,2.5914,2.6933,2.7611,2.7644,2.7861,2.798,2.7872,2.8558,2.9056,2.92,2.8942,2.8611,2.8277,2.7257,2.6322,2.5757,2.5708,2.562,2.5439,2.5571,2.5323,2.4295,2.3683,2.2475,1.996,1.8684,1.7694,1.6915,1.6697,1.6524,1.5965,1.4944,1.4083,1.3538,1.1878,1.0241,0.9361,0.7783,0.6343,0.5566,0.4423,0.3723,0.3695,0.3325,0.2978,3.2411,3.2411,3.2411,3.2411,3.2492,3.3646,3.426,3.4443,3.4496,3.4604,3.4764,3.4124,3.4084,3.4402,3.386,3.3811,3.4181,3.4269,3.4282,3.4299,3.4251,3.3913,3.3375,3.3256,3.2842,3.2157,3.2131,3.2052,3.1893,3.1785,3.1319,3.0533,3.0393,2.9913,2.9156,2.9499,2.9499,2.9098,2.851,2.8184,2.8074,2.6814,2.6088,2.5982,2.5309,2.4866,2.4696,2.4645,2.4264,2.3486,2.342,2.2722,2.1239,2.0225,1.9275,0.0,1.744,0.0,0.0,0.0,0.0,0.0,0.0,0.0,0.0,2.297,2.4088,2.5216,2.7579,2.8987,2.8783,3.0266,3.0729,2.9402,2.9655,2.9557,2.8582,2.9349,2.998,2.9921,2.8786,2.8176,2.8338,2.6863,2.5708,2.5708,2.5708,2.5698,2.5698,2.5674,2.5274,2.4113,2.2785,2.0938,1.8956,1.8115,1.7589,1.6895,1.665,1.6471,1.5998,1.4949,1.3921,1.2906,1.1246,0.9605,0.8678,0.6899,0.5622,0.5399,0.4508,0.3779,0.3706,0.3496,0.3225,3.2411,3.2411,3.2411,3.2411,3.2424,3.2668,3.3093,3.3633,3.384,3.4268,3.4781,3.4648,3.4641,3.4753,3.5049,3.4964,3.4697,3.5132,3.5308,3.5285,3.4663,3.4517,3.4714,3.3755,3.292,3.2287,3.2268,3.175,3.0825,3.0838,3.0553,2.9941,2.9555,2.9266,2.911,0.0,0.0,0.0,2.8972,2.8652,2.8105,2.7304,2.6598,2.5998,2.5142,0.0,2.4094,2.3905,2.3582,2.3062,2.3025,0.0,0.0,0.0,0.0,0.0,0.0,0.0,0.0,0.0,0.0,0.0,2.2834,2.266,2.2629,2.5629,2.7707,2.7983,2.9798,3.0726,3.012,3.0683,3.0783,2.9959,2.9818,2.9584,2.9047,2.9889,3.0141,2.8988,2.8656,2.827,2.7547,2.6408,2.5708,2.5708,2.5708,2.5708,2.5659,2.5635,2.4947,2.3094,2.0887,1.9053,1.8193,1.7701,1.7252,1.6789,1.6504,1.6264,1.5918,1.497,1.3921,1.2965,1.1187,0.9526,0.8623,0.7204,0.5929,0.5511,0.4814,0.4211,0.3873,0.3524,0.3235,3.2411,0.0,3.2411,3.2411,0.0,3.2411,3.2602,3.2935,3.3111,3.3478,3.3968,3.3968,3.4127,3.4464,3.4754,3.4816,3.4821,3.5091,3.5207,3.5174,3.4777,3.4538,3.4433,3.4027,3.3336,3.2407,3.232,3.187,3.1001,3.0694,3.0293,2.9793,2.9555,2.9323,2.9114,2.9114,2.9114,2.9114,2.9114,2.894,2.8589,2.7936,2.7257,2.6541,0.0,0.0,0.0,0.0,0.0,0.0,0.0,0.0,0.0,0.0,0.0,2.0717,2.0539,2.0649,2.1082,2.1399,2.2417,2.4367,2.5354,2.5661,2.5204,2.7467,2.916,2.9808,3.1157,3.1613,3.0727,3.1184,3.1081,2.9901,2.9776,2.9605,2.93,3.0049,3.0121,2.8909,2.8667,2.8332,2.7332,2.6332,2.5732,2.5708,2.5708,2.5504,2.5011,2.4913,2.4106,2.1861,1.9702,1.8193,1.799,1.7543,1.7093,1.6763,1.6477,1.6211,1.5945,1.4949,1.3781,1.2435,1.0855,0.944,0.8066,0.676,0.5761,0.5399,0.4676,0.4079,0.3827,0.3651,0.3507,3.2411,3.2411,3.2411,3.2411,3.2411,3.2411,3.2411,3.2411,0.0,0.0,0.0,3.3112,3.3411,3.3949,3.405,3.4255,3.4533,3.4642,3.4678,3.469,3.4678,3.4388,3.392,3.4191,3.3734,3.261,3.2349,3.1906,3.1265,3.0666,3.014,2.9722,2.9661,2.9477,2.9137,2.9114,2.9114,2.9114,2.9114,2.9114,2.9098,2.8458,2.7782,2.711,2.5892,2.4828,2.3972,2.3443,2.2838,2.2171,2.2128,2.1926,2.1528,2.1926,2.2294,2.2466,2.293,2.3283,2.35,2.3974,2.4611,2.5412,2.7216,2.8137,2.7812,2.8703,2.9795,3.1054,3.1846,3.1926,3.1083,3.1491,3.123,2.9581,2.965,2.9624,2.9271,2.9894,2.9848,2.8693,2.8385,2.8062,2.701,2.6211,2.5708,2.5708,2.5708,2.5201,2.4097,2.3567,2.2659,2.0792,1.912,1.8016,1.7859,1.7457,1.7034,1.6763,1.6451,1.6164,1.5811,1.4949,1.3555,1.1878,1.0577,0.9189,0.7568,0.6399,0.5564,0.5397,0.4534,0.376,0.378,0.3792,0.3719,3.2411,3.2411,3.2411,3.2411,3.2411,3.2411,3.2411,3.2411,3.2551,3.2784,3.3112,3.3112,3.3216,3.3437,3.3899,3.3886,3.3568,3.4,3.4197,3.4197,3.4197,3.4354,3.4625,3.4288,3.3718,3.2925,3.2262,3.1408,3.0468,3.0061,2.965,2.9243,2.919,2.9167,2.9114,2.9114,2.9114,2.9114,2.9114,2.9114,2.9098,2.8458,2.7785,2.7118,2.626,2.5232,2.4136,2.3863,2.354,2.304,2.3041,2.2976,2.2912,2.298,2.3036,2.3066,2.3161,2.3635,2.4665,2.4828,2.5574,2.7176,2.8078,2.8413,2.8192,2.9247,3.0497,3.1682,3.162,3.153,3.1577,3.1307,3.0651,2.9613,2.9618,2.9682,2.9378,2.9385,2.9007,2.7777,2.7474,2.7067,2.6163,2.5805,2.5708,2.5708,2.5479,2.4922,2.3069,2.1718,2.0851,2.0074,1.8904,1.801,1.7668,1.716,1.6816,1.6703,1.6279,1.5971,1.5838,1.4842,1.3474,1.1796,1.0495,0.9133,0.7485,0.6652,0.5954,0.5453,0.4702,0.4175,0.3802,0.3765,0.372,3.2287,3.2287,3.237,3.2411,3.2411,3.2411,3.2411,3.2411,3.2467,3.2619,3.2825,3.2935,3.3056,3.3216,3.3513,3.3542,3.3306,3.3555,3.3671,3.3671,3.3655,3.3768,3.398,3.4075,3.3772,3.315,3.272,3.1895,3.0778,3.027,2.9705,2.9157,2.9114,2.9114,2.9114,2.9114,2.9114,2.9114,2.9114,2.9114,2.9098,2.8798,2.8135,2.7147,2.6431,2.5428,2.4132,2.3717,2.3423,2.3188,2.3202,2.3202,2.3202,2.35,2.3676,2.3716,2.4313,2.491,2.5439,2.6104,2.6957,2.8098,2.8438,2.8556,2.8413,2.9412,3.0345,3.1032,3.1312,3.1383,3.104,3.0833,3.0342,2.9321,2.9443,2.9482,2.9288,2.9232,2.8684,2.7503,2.7222,2.6819,2.5805,2.5708,2.5708,2.5611,2.4849,2.3411,2.1861,2.0339,1.932,1.9105,1.8468,1.7964,1.7608,1.7074,1.675,1.6697,1.6258,1.5811,1.5437,1.4353,1.2906,1.1374,1.0014,0.8561,0.6985,0.6235,0.562,0.5037,0.4424,0.3922,0.3753,0.3779,0.3815,3.2392,3.2434,3.2377,3.237,3.2411,3.2411,3.2411,3.2411,3.2411,3.2453,3.2564,3.2759,3.2924,3.3043,3.3189,3.3269,3.3269,3.3295,3.3293,3.3293,3.3293,3.3293,3.3332,3.3749,3.3694,3.3293,3.2996,3.2346,3.145,3.0607,2.9817,2.9177,2.9114,2.9114,2.9114,2.9114,2.9114,2.9103,2.9064,2.9064,2.9103,2.9114,2.8514,2.7356,2.6712,2.5789,2.4561,2.3912,2.3595,2.3595,2.3608,2.3595,2.3621,2.4055,2.4367,2.457,2.5385,2.6022,2.6349,2.7298,2.8112,2.8546,2.8587,2.8587,2.8657,2.9383,2.9989,3.03,3.0808,3.0872,3.0434,3.0241,2.9947,2.9209,2.9275,2.9243,2.8943,2.8775,2.8259,2.7117,2.6802,2.6421,2.5887,2.5708,2.5577,2.5094,2.3676,2.2139,2.0979,1.9535,1.8586,1.8344,1.8108,1.7799,1.7529,1.7047,1.6703,1.6624,1.6072,1.5431,1.4729,1.3533,1.2114,1.0664,0.9385,0.8066,0.6649,0.5845,0.526,0.4674,0.4089,0.3663,0.3696,0.3786,0.389,3.2993,3.3016,3.2494,3.2288,3.2398,3.2411,3.2411,3.2411,3.2411,3.2411,3.2454,3.258,3.273,3.2924,3.3058,3.3125,3.3123,3.3243,3.3295,3.3293,3.3293,3.3293,3.3293,3.3359,3.3346,3.323,3.2704,3.2365,3.207,3.0837,2.9817,2.9193,2.9114,2.9114,2.9114,2.9114,2.9114,2.9087,2.8978,2.8967,2.9103,2.9114,2.8689,2.7859,2.7292,2.6614,2.5653,2.5163,2.4828,2.4842,2.4787,2.4829,2.4815,2.4882,2.5154,2.5656,2.5847,2.6348,2.7434,2.8153,2.8519,2.8573,2.8587,2.8587,2.8625,2.9167,2.9756,3.0077,2.9818,2.9845,3.017,2.969,2.9275,2.9131,2.9197,2.9094,2.8319,2.7649,2.6995,2.6286,2.58,2.5369,2.5644,2.5611,2.525,2.4328,2.316,2.1937,2.0859,1.9646,1.8646,1.8403,1.7983,1.7562,1.7279,1.6955,1.663,1.6371,1.563,1.4863,1.3986,1.2874,1.1515,0.9755,0.8858,0.7762,0.6594,0.5815,0.5176,0.4508,0.3982,0.3633,0.3696,0.3761,0.3843,3.3406,3.3083,3.2951,3.2711,3.2428,3.2411,3.2411,3.2411,3.2411,3.2411,3.2411,3.2453,3.2564,3.2732,3.2895,3.2978,3.2991,3.3125,3.3189,3.3189,3.3253,3.3293,3.3293,3.3293,3.3293,3.3293,3.3008,3.269,3.2102,3.0884,2.9817,2.9177,2.9114,2.9114,2.9114,2.9114,2.9114,2.9087,2.8967,2.8916,2.8982,2.8955,2.8414,2.7411,2.7093,2.6468,2.5481,2.5132,2.4991,2.4991,2.4991,2.4991,2.4991,2.4991,2.5263,2.5874,2.6579,2.7339,2.8166,2.8451,2.8587,2.8587,2.8587,2.8587,2.8592,2.8801,2.9085,2.9398,2.9501,2.9554,2.9408,2.9106,2.8922,2.8863,2.8542,2.8139,2.7799,2.6772,2.5997,2.5882,2.5461,2.5225,2.5494,2.5143,2.4328,2.3294,2.2232,2.1217,2.0104,1.9186,1.8639,1.8351,1.7826,1.7384,1.7173,1.6902,1.6604,1.6238,1.5571,1.4648,1.3339,1.2114,1.0613,0.8658,0.7839,0.6871,0.5425,0.512,0.4702,0.4145,0.3896,0.3633,0.3694,0.3726,0.3764,3.3804,3.327,3.3192,3.2844,3.2411,3.2411,3.2411,3.2411,3.2411,3.2411,3.2411,3.2411,3.2468,3.2564,3.2746,3.28,3.2843,3.2978,3.3045,3.3058,3.3165,3.3176,3.3189,3.3189,3.3203,3.3189,3.3176,3.2812,3.2097,3.0994,2.9993,2.9371,2.9116,2.901,2.9025,2.9021,2.9021,2.901,2.8889,2.8815,2.8779,2.857,2.8005,2.7185,2.6808,2.6202,2.53,2.509,2.4991,2.4991,2.4991,2.4991,2.5004,2.5154,2.5588,2.6362,2.7366,2.8125,2.8573,2.8587,2.8587,2.8587,2.8587,2.8538,2.8434,2.8443,2.8515,2.8566,2.9057,2.9172,2.891,2.8764,2.8744,2.8732,2.8011,2.7444,2.7058,2.5966,2.5261,2.5235,2.4858,2.4965,2.5276,2.472,2.3757,2.271,2.1557,2.0413,1.9402,1.8724,1.8291,1.8265,1.7674,1.7232,1.7067,1.6796,1.6471,1.5891,1.5196,1.4137,1.2721,1.1219,0.9708,0.7861,0.6871,0.5956,0.5065,0.4592,0.4341,0.3839,0.359,0.36,0.3635,0.3661,0.374,3.424,3.3742,3.2826,3.2445,3.2398,3.2398,3.2398,3.2384,3.2398,3.2398,3.2398,3.2411,3.2411,3.241,3.2566,3.2607,3.2633,3.2814,3.2897,3.291,3.2939,3.291,3.291,3.291,3.2926,3.2951,3.2951,3.2563,3.1831,3.111,3.0429,2.9774,2.9142,2.883,2.883,2.8842,2.8818,2.883,2.8672,2.8597,2.8498,2.7904,2.7567,2.7426,2.6611,2.5986,2.5743,2.5286,2.4991,2.4991,2.4991,2.4991,2.5073,2.5575,2.6417,2.7445,2.8196,2.8546,2.8573,2.8587,2.8587,2.8587,2.8554,2.8376,2.7974,2.823,2.8245,2.784,2.8338,2.8677,2.8764,2.8637,2.8618,2.8685,2.7971,2.7107,2.6264,2.5358,2.4576,2.4155,2.4094,2.4424,2.5025,2.4536,2.3671,2.2609,2.1362,2.0181,1.9168,1.8443,1.8122,1.7938,1.7543,1.7093,1.6763,1.6557,1.6025,1.541,1.4708,1.3543,1.176,1.0037,0.8579,0.7257,0.6538,0.5761,0.4871,0.4369,0.4147,0.3839,0.3643,0.36,0.3612,0.3677,0.3717,3.477,3.3848,3.2642,3.215,3.215,3.215,3.215,3.2164,3.2247,3.2288,3.2287,3.237,3.2411,3.2411,3.2453,3.2467,3.2496,3.2635,3.2703,3.2732,3.2843,3.2899,3.2899,3.2899,3.2899,3.2899,3.2883,3.2538,3.1792,3.1106,3.0451,2.9796,2.9126,2.881,2.881,2.881,2.881,2.8759,2.8317,2.8033,2.7944,2.7019,2.651,2.6523,2.6163,2.5742,2.5328,2.509,2.4991,2.4991,2.4991,2.5181,2.563,2.6511,2.723,2.7676,2.8275,2.8587,2.8587,2.8587,2.8587,2.8571,2.8278,2.802,2.786,2.7907,2.7907,2.7829,2.8183,2.8522,2.8578,2.855,2.853,2.8419,2.7293,2.6318,2.5724,2.4648,2.372,2.3862,2.4242,2.4789,2.4815,2.4507,2.3698,2.2634,2.1464,2.0259,1.9194,1.8489,1.8115,1.7747,1.7239,1.6769,1.6504,1.6377,1.6031,1.525,1.4385,1.3046,1.1437,1.0315,0.8968,0.6644,0.5898,0.5371,0.4452,0.4007,0.3839,0.3783,0.3615,0.3587,0.3587,0.3648,0.3674,3.4484,3.3486,3.2437,3.2012,3.2012,3.2012,3.2012,3.2025,3.2094,3.2149,3.2205,3.2316,3.2356,3.2398,3.2411,3.2411,3.2411,3.2496,3.2523,3.2535,3.2691,3.2732,3.2746,3.273,3.2732,3.2746,3.2746,3.2468,3.1971,3.1316,3.076,3.0313,2.9456,2.9002,2.8959,2.88,2.8664,2.8541,2.7996,2.7643,2.7489,2.6483,2.5907,2.5866,2.5729,2.5439,2.5005,2.4991,2.4991,2.4991,2.4991,2.5358,2.6171,2.7162,2.78,2.8017,2.837,2.8506,2.8363,2.8346,2.8249,2.8085,2.7759,2.7493,2.7354,2.7533,2.7594,2.7624,2.8094,2.851,2.8431,2.8239,2.8067,2.7906,2.6712,2.5704,2.5347,2.4016,2.3415,2.3616,2.4277,2.4779,2.4767,2.4063,2.3256,2.2442,2.1099,1.9683,1.8829,1.8358,1.8003,1.7529,1.7054,1.6657,1.6285,1.6019,1.5532,1.4777,1.4175,1.278,1.1301,1.0288,0.8799,0.645,0.512,0.4674,0.4201,0.3755,0.3587,0.3587,0.3587,0.3587,0.3587,0.3587,0.3641,3.3367,3.2764,3.2198,3.1968,3.1954,3.1954,3.1998,3.1968,3.1996,3.2052,3.215,3.2206,3.2261,3.2356,3.2342,3.237,3.2356,3.237,3.2398,3.2425,3.2439,3.2439,3.2454,3.2453,3.2468,3.2439,3.2425,3.2425,3.2316,3.1682,3.1297,3.1114,3.0035,2.9465,2.9427,2.8864,2.8467,2.8302,2.7786,2.7446,2.735,2.6364,2.5811,2.5784,2.5328,2.5047,2.4991,2.4991,2.4991,2.4991,2.5031,2.5602,2.6672,2.7445,2.799,2.8438,2.8587,2.8327,2.7921,2.7809,2.7577,2.7259,2.704,2.6833,2.6595,2.7127,2.7434,2.723,2.7868,2.8459,2.8299,2.7765,2.7336,2.7124,2.6308,2.5368,2.4616,2.3712,2.3101,2.3269,2.3916,2.4342,2.4151,2.3538,2.2722,2.1904,2.0359,1.8781,1.8325,1.7983,1.7562,1.7193,1.6825,1.6457,1.6037,1.5559,1.4905,1.4256,1.3711,1.2735,1.0945,0.9656,0.833,0.6258,0.4981,0.4452,0.4005,0.3587,0.3587,0.3587,0.3587,0.3587,0.3587,0.3587,0.3587,3.3441,3.3126,3.2075,3.1655,3.1669,3.164,3.1669,3.1669,3.1799,3.1884,3.1941,3.2025,3.2094,3.2107,3.2107,3.2136,3.2122,3.2136,3.2219,3.237,3.2398,3.2398,3.2398,3.2411,3.2411,3.2411,3.2411,3.2411,3.2288,3.1734,3.1411,3.121,3.0535,3.0109,3.004,2.9429,2.8919,2.8405,2.7466,2.6807,2.6395,2.5674,2.53,2.5272,2.509,2.4991,2.4991,2.4991,2.4991,2.5004,2.5398,2.6172,2.7242,2.799,2.8397,2.8543,2.8232,2.802,2.7792,2.7447,2.7192,2.6956,2.6667,2.6405,2.628,2.676,2.7062,2.7,2.7834,2.8299,2.7693,2.7389,2.7133,2.7174,2.5841,2.485,2.4413,2.3637,2.3178,2.3149,2.362,2.3945,2.3902,2.3317,2.2696,2.186,2.0509,1.9354,1.8447,1.7889,1.7456,1.6769,1.6495,1.6035,1.5373,1.4812,1.4272,1.3794,1.3335,1.2599,1.0844,0.9299,0.7861,0.6283,0.5037,0.4257,0.3783,0.3587,0.3587,0.3587,0.3587,0.3587,0.3587,0.3587,0.3587,3.3139,3.2677,3.1854,3.1496,3.1496,3.1496,3.1496,3.1525,3.1641,3.1727,3.1813,3.1869,3.194,3.2012,3.2012,3.2012,3.2012,3.2012,3.2094,3.2233,3.2247,3.2247,3.2261,3.2301,3.2315,3.2342,3.2384,3.2411,3.2382,3.1997,3.1751,3.1672,3.1089,3.0637,3.0405,2.9729,2.9025,2.817,2.7211,2.6442,2.5896,2.5314,2.4991,2.4991,2.4991,2.5113,2.5289,2.5344,2.5331,2.548,2.6104,2.6932,2.7676,2.8074,2.8295,2.8213,2.7838,2.7427,2.7209,2.6871,2.6581,2.6375,2.6052,2.5861,2.5933,2.6311,2.6635,2.7012,2.7685,2.7925,2.7322,2.6846,2.6588,2.6174,2.5232,2.4391,2.4026,2.3474,2.3135,2.3188,2.3424,2.3496,2.329,2.2767,2.2132,2.1048,1.9995,1.9113,1.8028,1.748,1.6852,1.635,1.608,1.5423,1.4549,1.4007,1.3597,1.3276,1.3001,1.2145,1.0876,0.9546,0.8189,0.595,0.4369,0.4035,0.3587,0.3587,0.3587,0.3587,0.3587,0.3587,0.3587,0.3587,0.3587,3.2511,3.1571,3.1482,3.1452,3.1452,3.1453,3.1438,3.1452,3.1452,3.1568,3.1727,3.1726,3.1812,3.194,3.1926,3.1912,3.1968,3.194,3.1926,3.1968,3.1982,3.1996,3.2052,3.215,3.2177,3.222,3.2315,3.237,3.2328,3.2307,3.237,3.2091,3.1558,3.1063,3.0448,2.9744,2.8812,2.7719,2.6976,2.6371,2.5771,2.5272,2.4948,2.4948,2.4976,2.5206,2.5681,2.5968,2.605,2.6145,2.704,2.7565,2.7699,2.7759,2.7855,2.7759,2.7259,2.6786,2.6341,2.6203,2.596,2.5529,2.5441,2.5294,2.5461,2.5889,2.64,2.6849,2.733,2.7447,2.6966,2.6278,2.5432,2.4637,2.4348,2.395,2.3266,2.3113,2.3101,2.3071,2.3197,2.3013,2.2276,2.1465,2.0416,1.9464,1.8412,1.7642,1.7129,1.6766,1.6276,1.5903,1.5582,1.4842,1.3933,1.3407,1.2992,1.2613,1.2409,1.1819,1.0668,0.9354,0.7633,0.5479,0.4119,0.3783,0.3587,0.3587,0.3587,0.3587,0.3587,0.3587,0.3587,0.3587,0.3587,3.2151,3.1827,3.1383,3.1205,3.1205,3.1205,3.122,3.122,3.1205,3.1307,3.1409,3.1438,3.151,3.1625,3.164,3.1625,3.164,3.1655,3.164,3.164,3.1626,3.1783,3.1954,3.2025,3.2038,3.2066,3.2192,3.2205,3.2121,3.2259,3.2076,3.1521,3.147,3.1037,3.0309,2.963,2.8644,2.7477,2.6721,2.5922,2.5097,2.4835,2.472,2.4707,2.4792,2.5159,2.5795,2.6723,2.7216,2.7228,2.7488,2.7732,2.7743,2.7729,2.7577,2.7192,2.6718,2.6358,2.6151,2.5786,2.5488,2.5347,2.5294,2.5294,2.5318,2.5793,2.6303,2.6743,2.6853,2.658,2.6113,2.5368,2.4488,2.3691,2.3539,2.344,2.32,2.3091,2.3047,2.2847,2.2295,2.1783,2.1128,2.0137,1.9121,1.8544,1.7779,1.7052,1.6625,1.6283,1.5907,1.5357,1.4899,1.4173,1.3466,1.2916,1.2425,1.1971,1.1743,1.1563,1.0206,0.864,0.6558,0.4283,0.3979,0.3643,0.3587,0.3587,0.3587,0.3587,0.3587,0.3587,0.3587,0.3587,0.3587,3.1077,3.1138,3.0773,3.0821,3.1087,3.1102,3.1102,3.1102,3.1102,3.1132,3.119,3.1219,3.1263,3.1322,3.1336,3.1351,3.1409,3.1423,3.1453,3.1496,3.151,3.1611,3.1783,3.1855,3.1912,3.1926,3.2038,3.2052,3.1981,3.1951,3.1609,3.1189,3.0999,3.0525,2.9724,2.9443,2.8467,2.7141,2.6499,2.5825,2.4712,2.4591,2.4606,2.462,2.4718,2.5069,2.5925,2.6665,2.7112,2.7324,2.7573,2.7657,2.7441,2.7226,2.699,2.6633,2.6134,2.5821,2.5769,2.5488,2.5329,2.5294,2.5294,2.5294,2.533,2.5624,2.5979,2.644,2.6243,2.5885,2.5386,2.4523,2.3735,2.3244,2.3035,2.3035,2.3101,2.3013,2.2762,2.2312,2.1565,2.0643,2.0051,1.8831,1.8103,1.7523,1.6928,1.6509,1.6195,1.5904,1.5535,1.4961,1.4362,1.368,1.303,1.2464,1.1953,1.1491,1.1268,1.1114,1.0004,0.8324,0.6561,0.4868,0.4143,0.3587,0.3559,0.3559,0.3587,0.3587,0.3587,0.3587,0.3587,0.3587,0.3587,2.9676,2.9858,2.9858,3.0238,3.0702,3.0806,3.0643,3.0777,3.0657,3.0762,3.0866,3.094,3.0984,3.1102,3.1161,3.1176,3.1278,3.1278,3.1351,3.1351,3.1307,3.1219,3.1248,3.1626,3.1741,3.1784,3.1897,3.184,3.1682,3.1335,3.1014,3.0585,3.021,2.9676,2.905,2.8982,2.8095,2.6809,2.6569,2.5936,2.493,2.4677,2.4637,2.4517,2.4721,2.514,2.5821,2.6199,2.6336,2.6671,2.7348,2.7348,2.6943,2.6427,2.6094,2.5891,2.5435,2.517,2.5241,2.5235,2.5259,2.5276,2.5294,2.5294,2.5306,2.5378,2.5541,2.5897,2.5602,2.5068,2.4497,2.3613,2.3183,2.2938,2.2838,2.286,2.2947,2.2882,2.2454,2.165,2.0939,1.9824,1.8696,1.7785,1.7145,1.6629,1.6119,1.5827,1.5588,1.5304,1.4953,1.4491,1.3906,1.3277,1.2654,1.203,1.1513,1.1043,1.09,1.0632,0.9934,0.8512,0.7075,0.5699,0.4337,0.3614,0.3447,0.3475,0.3475,0.3503,0.3418,0.3503,0.3587,0.3587,0.3587,2.8633,2.8812,2.8828,2.8907,2.9034,2.9064,2.9079,2.9113,2.9111,2.9532,2.9962,3.0084,3.0477,3.1058,3.0999,3.1117,3.1058,3.1058,3.1161,3.1087,3.0554,3.0344,3.0524,3.1087,3.1496,3.1524,3.1741,3.1481,3.0984,3.0793,3.0406,2.9397,2.9258,2.886,2.8185,2.8139,2.7674,2.6772,2.667,2.6069,2.5129,2.4878,2.468,2.4348,2.4685,2.5099,2.5428,2.5858,2.5866,2.5819,2.6353,2.6684,2.6269,2.6126,2.5669,2.5004,2.4683,2.4622,2.4849,2.4975,2.5034,2.5276,2.5294,2.5294,2.5294,2.5229,2.52,2.5096,2.4483,2.3763,2.3108,2.2924,2.2748,2.2633,2.2552,2.2508,2.2542,2.2508,2.2024,2.0984,2.0005,1.8933,1.7715,1.6662,1.6062,1.5666,1.5404,1.5142,1.4927,1.4712,1.4352,1.3949,1.3364,1.2789,1.2346,1.1693,1.1036,1.0661,1.0527,1.0426,0.9716,0.875,0.732,0.5767,0.4171,0.367,0.3334,0.3085,0.3029,0.3111,0.3222,0.3307,0.3363,0.3475,0.3531,2.7375,2.7743,2.7759,2.794,2.8247,2.8266,2.8409,2.8554,2.8441,2.8776,2.9389,2.9607,2.9992,3.0387,3.0402,3.0417,3.0417,3.0206,3.0101,3.0086,2.9935,2.9858,2.969,3.0269,3.0688,3.0465,3.0762,3.0539,3.0102,2.9739,2.9193,2.8384,2.8292,2.7926,2.7485,2.7601,2.741,2.6862,2.6728,2.6206,2.5203,2.4992,2.473,2.414,2.4233,2.4397,2.4976,2.4526,2.4752,2.5089,2.5422,2.548,2.5323,2.54,2.5093,2.4676,2.4658,2.4784,2.4998,2.5052,2.5141,2.5259,2.5294,2.52,2.4993,2.4802,2.4507,2.4141,2.343,2.2532,2.2096,2.215,2.2282,2.2413,2.2309,2.2274,2.2252,2.2252,2.1678,2.043,1.9445,1.8203,1.6983,1.5961,1.5547,1.5387,1.507,1.4783,1.4346,1.4106,1.3751,1.3322,1.2783,1.2297,1.1956,1.1355,1.0567,1.0266,1.0108,1.0118,0.9866,0.8792,0.7615,0.6102,0.466,0.3501,0.3138,0.2861,0.2693,0.2833,0.2973,0.3055,0.3111,0.3195,0.325,2.6052,2.665,2.6663,2.7056,2.7637,2.7653,2.7835,2.8179,2.7986,2.8062,2.872,2.9075,2.9062,2.9328,2.9343,2.9421,2.939,2.9142,2.8987,2.905,2.916,2.905,2.8923,2.9192,2.9223,2.8766,2.952,2.9537,2.8941,2.842,2.7926,2.7406,2.7254,2.7053,2.6892,2.7226,2.7341,2.6909,2.6964,2.64,2.5367,2.5101,2.4801,2.3907,2.3328,2.3468,2.3847,2.3549,2.3381,2.4779,2.4276,2.4027,2.4105,2.4442,2.4598,2.4526,2.4539,2.4635,2.4707,2.4868,2.4921,2.5099,2.5111,2.4915,2.4521,2.4052,2.3607,2.2982,2.2278,2.1617,2.1575,2.1752,2.191,2.2058,2.2066,2.203,2.1941,2.1919,2.1109,1.9917,1.9055,1.8018,1.6725,1.5611,1.5356,1.5053,1.4742,1.44,1.3938,1.3528,1.3171,1.2856,1.2395,1.1761,1.1365,1.1047,1.0262,0.9979,0.9816,0.986,0.9807,0.8834,0.771,0.6675,0.5364,0.4101,0.2997,0.2608,0.2524,0.2609,0.2665,0.272,0.2803,0.2915,0.297,2.5052,2.5552,2.5581,2.5838,2.6216,2.625,2.6354,2.6358,2.6375,2.6654,2.7241,2.7345,2.7792,2.8133,2.8276,2.8293,2.826,2.8084,2.8103,2.809,2.8014,2.7706,2.7745,2.7805,2.7584,2.7517,2.8123,2.8331,2.7782,2.7399,2.6791,2.5988,2.5931,2.6061,2.6372,2.673,2.6942,2.6879,2.6984,2.6436,2.5592,2.5197,2.4638,2.3406,2.2668,2.2663,2.2883,2.2832,2.2877,2.3312,2.3257,2.3213,2.339,2.3881,2.39,2.3666,2.3655,2.3929,2.4105,2.4014,2.4105,2.4279,2.4394,2.4082,2.3687,2.3327,2.2649,2.1772,2.1174,2.0734,2.051,2.1051,2.1373,2.1469,2.1537,2.1516,2.1235,2.1011,2.0619,1.9361,1.8642,1.7832,1.6396,1.5302,1.4951,1.4598,1.4238,1.3853,1.3413,1.3026,1.2686,1.2395,1.2102,1.1394,1.0752,1.0462,1.0003,0.983,0.9693,0.9725,0.9487,0.8758,0.7773,0.6621,0.5425,0.4097,0.3215,0.2494,0.2244,0.2272,0.2328,0.2384,0.2496,0.2607,0.2692,2.4503,2.473,2.4736,2.4826,2.4998,2.5016,2.5194,2.5394,2.5271,2.5511,2.6032,2.642,2.6777,2.7102,2.7375,2.7271,2.6985,2.6913,2.6947,2.6905,2.6762,2.6441,2.6348,2.6341,2.5937,2.5727,2.6164,2.6741,2.6508,2.6421,2.5807,2.5228,2.5188,2.5383,2.5488,2.5758,2.6058,2.6291,2.6314,2.6013,2.5068,2.4736,2.3662,2.2825,2.2233,2.2204,2.249,2.2469,2.2646,2.2959,2.302,2.302,2.312,2.3257,2.3467,2.3335,2.3446,2.3648,2.3861,2.3897,2.3934,2.3717,2.3717,2.3309,2.2649,2.2075,2.1498,2.0586,2.0223,2.0088,2.0086,2.0456,2.0628,2.0772,2.0884,2.0655,2.0257,2.0096,1.9413,1.8634,1.8064,1.7117,1.5741,1.4897,1.4544,1.4142,1.3732,1.3298,1.2861,1.2492,1.2151,1.178,1.1468,1.0978,1.0339,1.0039,0.9768,0.9599,0.9509,0.954,0.9438,0.8845,0.767,0.6359,0.5163,0.4155,0.3102,0.2326,0.2131,0.1963,0.2019,0.2104,0.2216,0.23,0.2412,2.3879,2.3952,2.397,2.4025,2.4146,2.4134,2.4413,2.4725,2.4581,2.4713,2.5099,2.5573,2.5817,2.5956,2.6077,2.6003,2.5449,2.5458,2.5494,2.545,2.5574,2.5352,2.5128,2.4977,2.4919,2.4682,2.4632,2.4694,2.5218,2.5264,2.4836,2.4439,2.4579,2.4728,2.4648,2.5021,2.5099,2.5262,2.5294,2.5059,2.4341,2.3267,2.2378,2.1854,2.161,2.1721,2.2149,2.2251,2.2539,2.2848,2.302,2.302,2.2983,2.2964,2.3105,2.342,2.3769,2.3861,2.3732,2.3659,2.3268,2.2801,2.2835,2.2301,2.1583,2.0885,2.0216,1.9519,1.9347,1.9477,1.9552,1.9643,1.9665,1.9698,1.9752,1.9687,1.8993,1.8545,1.8064,1.7509,1.7258,1.649,1.5224,1.4448,1.407,1.3702,1.3292,1.271,1.2273,1.1907,1.1512,1.112,1.0781,1.0413,1.0019,0.9719,0.9472,0.9299,0.9225,0.9252,0.9241,0.908,0.7715,0.6295,0.5415,0.4386,0.324,0.2235,0.2009,0.187,0.1819,0.1851,0.1991,0.2047,0.2104,2.2815,2.3131,2.315,2.3446,2.3879,2.3879,2.4061,2.4243,2.4189,2.4261,2.4322,2.4437,2.4533,2.4559,2.4588,2.4312,2.405,2.4136,2.42,2.4133,2.4233,2.4357,2.4357,2.4382,2.4237,2.4002,2.4091,2.4118,2.4142,2.4059,2.3788,2.3507,2.3647,2.3801,2.4159,2.4366,2.4773,2.5036,2.5148,2.4662,2.3466,2.1871,2.1119,2.0789,2.0759,2.093,2.1575,2.1894,2.2381,2.285,2.2945,2.2964,2.2983,2.2815,2.2777,2.2871,2.2945,2.2908,2.2505,2.2373,2.2117,2.1623,2.1489,2.1078,2.0479,1.9913,1.949,1.9381,1.9022,1.8858,1.888,1.8769,1.8492,1.8309,1.8344,1.7968,1.7402,1.7042,1.6547,1.5943,1.5513,1.5518,1.4908,1.4202,1.3563,1.3219,1.2807,1.22,1.1688,1.1321,1.1022,1.0654,1.0339,0.9974,0.9698,0.9422,0.9221,0.9023,0.8998,0.8977,0.8929,0.8714,0.7667,0.6391,0.5484,0.4271,0.2805,0.2027,0.185,0.1809,0.1792,0.1795,0.1823,0.1851,0.1907,2.2195,2.2665,2.2647,2.2826,2.3038,2.3068,2.3168,2.3316,2.3364,2.3409,2.3556,2.3776,2.3834,2.3791,2.3817,2.3547,2.3162,2.3195,2.3307,2.3192,2.3218,2.3299,2.341,2.3252,2.3106,2.3167,2.311,2.3023,2.3058,2.3371,2.3393,2.3059,2.3088,2.3278,2.3576,2.3669,2.3783,2.3843,2.3679,2.2978,2.1881,2.1014,2.0409,2.0091,2.0443,2.0817,2.1176,2.1871,2.2304,2.2561,2.2287,2.1907,2.1775,2.1432,2.1106,2.1106,2.1173,2.1298,2.1461,2.1107,2.0711,2.044,2.0265,2.0001,1.9469,1.9161,1.8814,1.8554,1.8422,1.831,1.819,1.7904,1.7594,1.7296,1.6893,1.6315,1.5851,1.5536,1.509,1.4422,1.3874,1.4011,1.4052,1.3498,1.2832,1.2462,1.2097,1.1609,1.1174,1.0806,1.0536,1.0265,0.9945,0.9628,0.9377,0.9126,0.8998,0.885,0.885,0.8775,0.8627,0.813,0.7259,0.6251,0.5192,0.3861,0.2334,0.1892,0.1783,0.1803,0.1795,0.1795,0.1795,0.1795,0.1851,2.1731,2.2176,2.2233,2.23,2.2308,2.2327,2.244,2.2628,2.2647,2.274,2.2846,2.3025,2.3077,2.3071,2.2931,2.2597,2.223,2.2337,2.2414,2.2407,2.2355,2.2346,2.2356,2.2123,2.2043,2.2065,2.222,2.2297,2.2565,2.2826,2.2991,2.2845,2.2876,2.2949,2.2939,2.2873,2.281,2.2552,2.2105,2.1383,2.0598,2.0313,1.9901,1.9904,2.0297,2.0878,2.1058,2.1818,2.2295,2.1899,2.1576,2.1211,2.0846,2.0382,2.0099,1.9972,1.9855,1.9708,1.9953,1.9884,1.953,1.9323,1.9193,1.9024,1.8683,1.852,1.8451,1.8112,1.7899,1.7797,1.7526,1.7017,1.642,1.5923,1.5418,1.4809,1.4244,1.395,1.3795,1.3461,1.2984,1.2686,1.2651,1.2452,1.2073,1.1707,1.134,1.0973,1.063,1.029,1.0093,0.9871,0.9521,0.9253,0.9105,0.8903,0.8751,0.8651,0.8651,0.8577,0.8382,0.7957,0.7272,0.6184,0.4924,0.3652,0.2278,0.2006,0.1774,0.1792,0.1809,0.1791,0.1795,0.1795,0.1795,2.1359,2.1578,2.175,2.1959,2.2101,2.212,2.2233,2.2402,2.2421,2.2408,2.2368,2.2074,2.2027,2.1973,2.1728,2.1397,2.1067,2.1353,2.129,2.1156,2.1111,2.1391,2.1484,2.1497,2.1474,2.1694,2.1726,2.1894,2.2089,2.2055,2.2409,2.2632,2.2482,2.2632,2.2528,2.2184,2.1721,2.1318,2.0767,2.0425,1.9928,1.9616,1.9264,1.9412,1.9952,2.0548,2.0757,2.1541,2.1776,2.1279,2.0827,2.043,1.9865,1.9423,1.9195,1.9036,1.8559,1.839,1.845,1.8718,1.8687,1.8333,1.8201,1.8273,1.808,1.806,1.8,1.7809,1.7444,1.7017,1.6599,1.5989,1.5146,1.446,1.3897,1.3398,1.2837,1.2388,1.2257,1.2327,1.2102,1.1745,1.1507,1.1341,1.1385,1.1071,1.0659,1.029,1.0113,0.9821,0.9698,0.9476,0.9101,0.8878,0.8804,0.863,0.8382,0.8308,0.8283,0.8209,0.8113,0.7609,0.7008,0.5827,0.4529,0.3365,0.2375,0.2002,0.1745,0.1774,0.1795,0.1808,0.1791,0.1795,0.1795,2.0934,2.1146,2.1349,2.1627,2.1921,2.1911,2.2025,2.2195,2.2214,2.211,2.1916,2.1495,2.1158,2.0958,2.0794,2.0465,2.0174,2.0357,2.044,2.0574,2.0722,2.0951,2.109,2.1158,2.1285,2.1364,2.138,2.1411,2.1533,2.1352,2.1203,2.1392,2.1671,2.192,2.1811,2.1408,2.0794,2.0285,1.9906,1.9671,1.9264,1.9131,1.8975,1.917,1.9944,2.0387,2.0563,2.0881,2.089,2.0537,1.9787,1.9236,1.876,1.8278,1.8026,1.7986,1.7468,1.7347,1.7265,1.7529,1.7538,1.7809,1.7838,1.7878,1.7656,1.7595,1.7453,1.7159,1.6661,1.6036,1.5587,1.4636,1.366,1.2954,1.2408,1.1987,1.1625,1.1227,1.11,1.1311,1.1069,1.0704,1.0512,1.0329,1.0427,1.0437,0.9998,0.9628,0.9525,0.9398,0.9274,0.913,0.8779,0.8606,0.8531,0.8283,0.7988,0.7988,0.7963,0.7963,0.7864,0.7089,0.6384,0.5227,0.42,0.3117,0.2305,0.1869,0.1719,0.1758,0.1783,0.1798,0.1809,0.1793,0.1795,2.0138,2.0356,2.049,2.0973,2.1577,2.1617,2.163,2.164,2.1628,2.149,2.1231,2.0804,2.0505,2.023,2.0035,1.9944,1.9734,1.9818,1.9965,2.0107,2.0259,2.0485,2.0635,2.07,2.0679,2.0898,2.0951,2.0951,2.0924,2.0505,2.0414,2.043,2.0457,2.0639,2.0969,2.0526,1.9879,1.9414,1.9226,1.9137,1.8741,1.8707,1.8724,1.9042,1.9815,2.003,2.0123,2.0266,2.0188,1.9561,1.8769,1.7977,1.748,1.7062,1.6722,1.6648,1.6677,1.6689,1.6689,1.673,1.6853,1.7168,1.7371,1.7363,1.7221,1.6906,1.6386,1.6131,1.5462,1.4775,1.4322,1.3366,1.265,1.2052,1.1478,1.1045,1.0778,1.0443,1.0351,1.0352,1.008,0.9904,0.9836,0.9689,0.9612,0.9694,0.9496,0.9229,0.9179,0.9027,0.8899,0.8701,0.8457,0.8357,0.8258,0.8013,0.7814,0.7839,0.7839,0.7889,0.7615,0.6786,0.5982,0.5077,0.4024,0.2897,0.2208,0.1745,0.168,0.1749,0.1775,0.1802,0.1811,0.1795,0.1795,1.8877,1.9031,1.9107,1.9898,2.1046,2.1175,2.0971,2.0712,2.0641,2.0518,2.0252,1.9968,1.9872,1.9795,1.9519,1.9425,1.9505,1.9555,1.9638,1.9704,1.9786,1.9736,1.966,1.9742,1.9808,2.027,2.0161,1.9998,2.0171,1.9792,1.9678,1.941,1.9183,1.9216,1.9966,1.9595,1.9071,1.8623,1.8556,1.8522,1.8539,1.8506,1.8549,1.8825,1.9541,1.9762,1.9452,1.9668,1.944,1.8461,1.8017,1.7338,1.6673,1.6722,1.6566,1.6414,1.6594,1.6677,1.6669,1.6669,1.6566,1.6587,1.6689,1.6648,1.6414,1.5842,1.5185,1.5039,1.4161,1.3275,1.2708,1.2244,1.1687,1.1176,1.0576,1.0255,1.0018,0.9717,0.9624,0.9549,0.9389,0.9238,0.9219,0.9124,0.8936,0.8874,0.8825,0.8804,0.8804,0.8606,0.8428,0.828,0.8059,0.796,0.7864,0.7739,0.7618,0.7668,0.764,0.7565,0.7135,0.6309,0.5529,0.4774,0.3572,0.2168,0.1843,0.1595,0.1641,0.1686,0.1757,0.1811,0.1791,0.1795,0.1795,1.81,1.8618,1.8737,1.9084,1.9585,1.9977,2.0054,1.9912,1.9753,1.9621,1.9462,1.9127,1.8958,1.8954,1.9014,1.8975,1.9075,1.9357,1.9417,1.9374,1.9407,1.9231,1.9021,1.8811,1.8744,1.8482,1.8449,1.87,1.8723,1.8586,1.8506,1.8266,1.8097,1.8056,1.8293,1.8216,1.8087,1.8022,1.8083,1.8212,1.8347,1.8381,1.8398,1.8478,1.9173,1.9227,1.8608,1.888,1.8453,1.7547,1.7184,1.664,1.6278,1.6381,1.6402,1.6278,1.6389,1.643,1.6147,1.5858,1.5449,1.5622,1.5878,1.5622,1.4664,1.4831,1.4434,1.3839,1.3021,1.2318,1.204,1.1278,1.0679,1.0207,0.9777,0.965,0.9441,0.9082,0.8883,0.8831,0.8704,0.8606,0.8568,0.8677,0.8555,0.8457,0.8432,0.8482,0.8482,0.8137,0.7864,0.7789,0.764,0.754,0.7416,0.7369,0.7344,0.7366,0.7188,0.6986,0.6434,0.5729,0.4626,0.3646,0.2543,0.1489,0.1365,0.1322,0.1505,0.1597,0.1659,0.1749,0.1792,0.1795,0.1795,1.7132,1.7633,1.7524,1.7579,1.786,1.8823,1.9227,1.9012,1.8621,1.8391,1.8384,1.8405,1.8357,1.8252,1.825,1.8378,1.8411,1.8317,1.8435,1.8469,1.8586,1.8273,1.801,1.7942,1.7796,1.7326,1.7274,1.7463,1.7567,1.7165,1.7148,1.7304,1.722,1.7245,1.7365,1.7554,1.7681,1.7708,1.7837,1.7964,1.8066,1.81,1.8073,1.8174,1.8443,1.8636,1.7908,1.762,1.7563,1.6867,1.6377,1.6023,1.6051,1.6113,1.6154,1.61,1.6141,1.6203,1.5976,1.5047,1.4594,1.4196,1.4824,1.451,1.3487,1.3495,1.3235,1.2668,1.1939,1.1424,1.095,1.0142,0.9864,0.9406,0.9209,0.9104,0.8863,0.853,0.8358,0.8277,0.8165,0.8056,0.8019,0.8157,0.823,0.8137,0.8091,0.8113,0.8109,0.7789,0.7469,0.7344,0.7266,0.7166,0.7116,0.7067,0.7042,0.7042,0.6889,0.6684,0.5754,0.5052,0.3772,0.2592,0.179,0.1162,0.1013,0.0997,0.1164,0.1338,0.147,0.1584,0.1757,0.1795,0.1795,1.5903,1.6088,1.5471,1.5443,1.6033,1.7515,1.8125,1.7905,1.7195,1.689,1.6915,1.7837,1.7713,1.7335,1.7335,1.7404,1.7499,1.6999,1.7009,1.7052,1.7301,1.7043,1.6966,1.6897,1.6784,1.6887,1.6818,1.6507,1.6568,1.6568,1.6481,1.6403,1.6429,1.6586,1.6891,1.7116,1.734,1.7461,1.764,1.7733,1.7784,1.7879,1.7716,1.7753,1.7963,1.751,1.6984,1.6769,1.6585,1.621,1.583,1.5775,1.5822,1.5927,1.5844,1.5824,1.5914,1.5852,1.5492,1.4364,1.3432,1.2838,1.286,1.3036,1.2802,1.2141,1.1906,1.137,1.0674,1.0159,0.9602,0.9428,0.9213,0.8929,0.8706,0.8508,0.8292,0.8094,0.7962,0.7834,0.7705,0.764,0.7661,0.7762,0.7892,0.7814,0.7715,0.7618,0.7615,0.7568,0.7244,0.6995,0.692,0.682,0.6795,0.6792,0.6792,0.6789,0.6811,0.6559,0.5529,0.4275,0.3145,0.209,0.1337,0.0859,0.0734,0.0736,0.0817,0.1012,0.1218,0.1405,0.1549,0.1763,0.1795,1.4091,1.4629,1.4432,1.4414,1.452,1.4717,1.5248,1.5918,1.5762,1.5693,1.5711,1.6009,1.6166,1.5869,1.6088,1.621,1.6297,1.6376,1.6437,1.6454,1.6385,1.6245,1.6114,1.5983,1.5781,1.5534,1.5428,1.5604,1.5692,1.5833,1.6009,1.5965,1.593,1.6158,1.6394,1.6595,1.6899,1.722,1.7434,1.7537,1.7554,1.7649,1.7434,1.7483,1.727,1.6661,1.619,1.5829,1.5564,1.5091,1.5112,1.5126,1.4957,1.5311,1.5484,1.5291,1.5138,1.4831,1.4153,1.3197,1.2254,1.1397,1.0923,1.0458,1.0479,1.0691,1.0609,1.018,0.9794,0.9428,0.91,0.8903,0.871,0.8512,0.8288,0.8091,0.7874,0.772,0.7591,0.7451,0.7324,0.7306,0.7332,0.7462,0.757,0.7471,0.7366,0.7244,0.7169,0.7169,0.707,0.6795,0.6667,0.6617,0.6564,0.6564,0.6539,0.6514,0.6437,0.5882,0.4375,0.3196,0.2367,0.0,0.0,0.0,0.0505,0.0532,0.0559,0.0776,0.1002,0.1183,0.1369,0.1498,0.1653,1.3255,1.3712,1.344,1.3241,1.3033,1.2744,1.315,1.3929,1.4388,1.4611,1.4683,1.511,1.5021,1.479,1.4942,1.5066,1.5147,1.5047,1.5099,1.5223,1.5622,1.5286,1.5099,1.5125,1.4991,1.4641,1.4587,1.4883,1.5008,1.5169,1.5338,1.5551,1.5568,1.5789,1.6017,1.6175,1.6385,1.6795,1.7124,1.7314,1.7392,1.7375,1.7262,1.6794,1.6403,1.5988,1.5156,1.4719,1.463,1.4212,1.4338,1.4515,1.4488,1.4889,1.5103,1.4929,1.4866,1.4342,1.3641,1.2559,1.1467,1.0414,0.9445,0.9012,0.9165,0.9532,0.9537,0.9367,0.9148,0.8907,0.8662,0.8442,0.8266,0.8116,0.7896,0.7698,0.7525,0.7348,0.7226,0.7103,0.7049,0.7028,0.709,0.7178,0.7249,0.722,0.7143,0.7017,0.697,0.6945,0.6817,0.6617,0.6514,0.6464,0.6387,0.6287,0.6087,0.5912,0.5634,0.4805,0.3247,0.2318,0.1713,0.0,0.0,0.0,0.0,0.0,0.0279,0.0516,0.0679,0.077,0.0921,0.1106,0.1255,1.2941,1.3208,1.2519,1.2058,1.17,1.1744,1.1892,1.2077,1.3109,1.359,1.3807,1.4547,1.4386,1.3872,1.39,1.4016,1.4052,1.3952,1.4011,1.3826,1.431,1.431,1.4346,1.4281,1.4461,1.4461,1.4479,1.4525,1.4587,1.4758,1.4955,1.5143,1.5151,1.5346,1.5674,1.5736,1.5947,1.6315,1.6612,1.6803,1.7003,1.7003,1.6743,1.5639,1.541,1.524,1.3952,1.3674,1.4092,1.3729,1.3679,1.3994,1.4202,1.433,1.4448,1.4344,1.4205,1.3539,1.272,1.1719,1.0724,0.971,0.8807,0.8376,0.849,0.8754,0.8797,0.8775,0.8578,0.8424,0.8182,0.805,0.7896,0.7698,0.7499,0.7345,0.719,0.6991,0.6748,0.6631,0.649,0.6506,0.6455,0.6523,0.6714,0.6815,0.6868,0.674,0.6742,0.6717,0.6592,0.6439,0.6437,0.6362,0.6262,0.6087,0.5611,0.5309,0.4933,0.3952,0.2494,0.1714,0.111,0.0,0.0,0.0,0.0,0.0,0.0,0.0153,0.0284,0.034,0.0,0.0,0.0918,1.157,1.1663,1.1465,1.1409,1.1465,1.1465,1.1577,1.1781,1.204,1.2402,1.2684,1.2897,1.3,1.2904,1.2977,1.3087,1.3058,1.3258,1.3309,1.3463,1.3674,1.3801,1.3899,1.4029,1.4155,1.4191,1.422,1.4328,1.4461,1.4551,1.4605,1.474,1.4776,1.5008,1.5303,1.5346,1.5524,1.5789,1.5771,1.5895,1.5983,1.6026,1.5745,1.4992,1.4716,1.4412,1.3506,1.3279,1.3314,1.3086,1.3358,1.3556,1.369,1.362,1.3595,1.3496,1.3011,1.2289,1.1476,1.0579,0.9645,0.889,0.8157,0.8054,0.8032,0.816,0.8204,0.8138,0.8072,0.7918,0.7764,0.7635,0.7525,0.7326,0.7102,0.6991,0.6833,0.6545,0.6276,0.6091,0.5933,0.5899,0.5837,0.5949,0.6104,0.6266,0.6395,0.6423,0.6459,0.6439,0.6364,0.6262,0.6387,0.6337,0.6237,0.5762,0.5208,0.4555,0.4078,0.2972,0.1739,0.0,0.0,0.0,0.0,0.0,0.0,0.0,0.0,0.0,0.0,0.0,0.0,0.0,0.0,1.1117,1.1117,1.1117,1.1167,1.1242,1.1279,1.1391,1.1533,1.1577,1.1799,1.2114,1.2176,1.2212,1.2286,1.2415,1.247,1.2551,1.2808,1.29,1.3028,1.3255,1.3401,1.3564,1.3739,1.3891,1.3946,1.4075,1.422,1.4371,1.4461,1.4515,1.4569,1.4623,1.4713,1.4919,1.4955,1.4991,1.5115,1.4883,1.4742,1.4806,1.4877,1.4859,1.4286,1.3915,1.359,1.316,1.2813,1.2728,1.267,1.2871,1.2965,1.2902,1.2619,1.2455,1.2221,1.1687,1.0863,1.0049,0.9343,0.8629,0.8031,0.7724,0.768,0.7499,0.7606,0.772,0.7676,0.7768,0.7657,0.7411,0.7257,0.7168,0.7013,0.6745,0.6542,0.6188,0.5788,0.5455,0.5127,0.5092,0.5193,0.5234,0.5481,0.5701,0.6151,0.6222,0.6083,0.6132,0.6059,0.5984,0.5884,0.5909,0.6209,0.6312,0.5609,0.4707,0.4028,0.3173,0.2091,0.0,0.0,0.0,0.0,0.0,0.0,0.0,0.0,0.0,0.0,0.0,0.0,0.0,0.0,0.0,1.0996,1.1038,1.1081,1.1117,1.1117,1.1117,1.1205,1.1353,1.1353,1.1577,1.1873,1.1947,1.2077,1.2231,1.2305,1.2305,1.2397,1.2624,1.2636,1.2691,1.2863,1.3065,1.3229,1.3375,1.3583,1.3783,1.3946,1.4101,1.4253,1.4317,1.4407,1.4551,1.4569,1.4569,1.4515,1.4479,1.4453,1.4183,1.3887,1.3535,1.3618,1.381,1.3774,1.3582,1.3262,1.2959,1.2519,1.2316,1.2298,1.2285,1.2368,1.2391,1.2184,1.182,1.1522,1.1235,1.0447,0.9712,0.9087,0.8747,0.8125,0.7632,0.7485,0.7301,0.7095,0.7076,0.719,0.7234,0.7326,0.7326,0.708,0.6877,0.6792,0.6637,0.6365,0.6008,0.5522,0.5122,0.4766,0.4389,0.4456,0.4592,0.4849,0.5088,0.5419,0.5886,0.5979,0.5845,0.5706,0.554,0.5409,0.5206,0.5054,0.5457,0.5807,0.4981,0.3803,0.2947,0.2016,0.1084,0.0,0.0,0.0,0.0,0.0,0.0,0.0,0.0,0.0,0.0,0.0,0.0,0.0,0.0,0.0,1.0569,1.081,1.1002,1.1111,1.1111,1.1111,1.113,1.1149,1.1161,1.1292,1.1539,1.1725,1.1947,1.2286,1.2305,1.2305,1.2323,1.2489,1.2581,1.2636,1.2728,1.2856,1.2984,1.3156,1.3364,1.3546,1.371,1.3855,1.4,1.4109,1.4227,1.4353,1.4407,1.4263,1.3949,1.3876,1.3731,1.3368,1.2984,1.2647,1.2714,1.2835,1.2854,1.2677,1.2427,1.239,1.2323,1.2305,1.2194,1.2084,1.1882,1.1821,1.1464,1.0955,1.0515,1.0045,0.9272,0.8639,0.8147,0.7808,0.7246,0.705,0.6913,0.6861,0.6707,0.6628,0.6675,0.6631,0.6722,0.6884,0.6726,0.6523,0.639,0.6146,0.5877,0.5322,0.479,0.4632,0.4454,0.43,0.43,0.4523,0.4819,0.502,0.5146,0.5462,0.553,0.5396,0.5259,0.5056,0.4778,0.4427,0.4124,0.4048,0.4071,0.3524,0.2545,0.1689,0.1034,0.0454,0.0,0.0,0.0,0.0,0.0,0.0,0.0,0.0,0.0,0.0,0.0,0.0,0.0,0.0,0.0]},{"header":{"parameterUnit":"m.s-1","parameterCategory":1,"la1":31.0,"la2":29.5877,"lo1":-88.7671,"lo2":-86.6584,"dy":0.0162,"dx":0.0185,"nx":115,"ny":88,"refTime":"2024-08-18T12:00:00:Z","depth":0,"parameterNumber":3,"parameterNumberName":"V-component_of_WINDS"},"data":[0.0,0.0,0.0,0.0,0.0,0.0,0.0,0.0,0.0,0.0,0.0,0.0,0.0,0.0,0.0,0.0,0.0,0.0,0.0,0.0,0.0,0.0,0.0,0.0,0.0,0.0,0.0,0.0,0.0,0.0,0.0,0.0,0.0,0.0,0.0,0.0,0.0,0.0,0.0,0.0,0.0,0.0,0.0,0.0,0.0,0.0,0.0,0.0,0.0,0.0,0.0,0.0,0.0,0.0,0.0,0.0,0.0,0.0,0.0,0.0,0.0,0.0,0.0,0.0,0.0,0.0,0.0,0.0,0.0,0.0,0.0,0.0,0.0,0.0,0.0,0.0,0.0,0.0,0.0,0.0,0.0,0.0,0.0,0.0,0.0,0.0,0.0,0.0,0.0,0.0,0.0,0.0,0.0,0.0,0.0,0.0,0.0,0.0,0.0,0.0,0.0,0.0,0.0,0.0,0.0,0.0,0.0,0.0,0.0,0.0,0.0,0.0,0.0,0.0,0.0,0.0,0.0,0.0,0.0,0.0,0.0,0.0,0.0,0.0,0.0,0.0,0.0,0.0,0.0,0.0,0.0,0.0,0.0,0.0,0.0,0.0,0.0,0.0,0.0,0.0,0.0,0.0,0.0,0.0,0.0,0.0,0.0,0.0,0.0,0.0,0.0,0.0,0.0,0.0,0.0,0.0,0.0,0.0,0.0,0.0,0.0,0.0,0.0,0.0,0.0,0.0,0.0,0.0,0.0,0.0,0.0,0.0,0.0,0.0,0.0,0.0,0.0,0.0,0.0,0.0,0.0,0.0,0.0,0.0,0.0,0.0,0.0,0.0,0.0,0.0,0.0,0.0,0.0,0.0,0.0,0.0,0.0,0.0,0.0,0.0,0.0,0.0,0.0,0.0,0.0,0.0,0.0,0.0,0.0,0.0,0.0,0.0,0.0,0.0,0.0,0.0,0.0,0.0,0.0,0.0,0.0,0.0,0.0,0.0,0.0,0.0,0.0,0.0,0.0,0.0,0.0,0.0,0.0,0.0,0.0,0.0,0.0,0.0,0.0,0.0,0.0,0.0,0.0,0.0,0.0,0.0,0.0,0.0,0.0,0.0,0.0,0.0,0.0,0.0,0.0,0.0,0.0,0.0,0.0,0.0,0.0,0.0,0.0,0.0,0.0,0.0,0.0,0.0,0.0,0.0,0.0,0.0,0.0,0.0,0.0,0.0,0.0,0.0,0.0,0.0,0.0,0.0,0.0,0.0,0.0,0.0,0.0,0.0,0.0,0.0,0.0,0.0,0.0,0.0,0.0,0.0,0.0,0.0,0.0,0.0,0.0,0.0,0.0,0.0,0.0,0.0,0.0,0.0,0.0,0.0,0.0,0.0,0.0,0.0,0.0,0.0,0.0,0.0,0.0,0.0,0.0,0.0,0.0,0.0,0.0,0.0,0.0,0.0,0.0,0.0,0.0,0.0,0.0,0.0,0.0,0.0,0.0,0.0,0.0,0.0,0.0,0.0,0.0,0.0,0.0,0.0,0.0,0.0,0.0,0.0,0.0,0.0,0.0,0.0,0.0,0.0,0.0,0.0,0.0,0.0,0.0,0.0,0.0,0.0,0.0,0.0,0.0,0.0,0.0,0.0,0.0,0.0,0.0,0.0,0.0,0.0,0.0,0.0,0.0,0.0,0.0,0.0,0.0,0.0,0.0,0.0,0.0,0.0,0.0,0.0,0.0,0.0,0.0,0.0,0.0,0.0,0.0,0.0,0.0,0.0,0.0,0.0,0.0,0.0,0.0,0.0,0.0,0.0,0.0,0.0,0.0,0.0,0.0,0.0,0.0,0.0,0.0,0.0,0.0,0.0,0.0,0.0,0.0,0.0,0.0,0.0,0.0,0.0,0.0,0.0,0.0,0.0,0.0,0.0,0.0,0.0,0.0,0.0,0.0,0.0,0.0,0.0,0.0,0.0,0.0,0.0,0.0,0.0,0.0,0.0,0.0,0.0,0.0,0.0,0.0,0.0,0.0,0.0,0.0,0.0,0.0,0.0,0.0,0.0,0.0,0.0,0.0,0.0,0.0,0.0,0.0,0.0,0.0,0.0,0.0,0.0,0.0,0.0,0.0,0.0,0.0,0.0,0.0,0.0,0.0,0.0,0.0,0.0,0.0,0.0,0.0,0.0,0.0,0.0,0.0,0.0,0.0,0.0,0.0,0.0,0.0,0.0,0.0,0.0,0.0,0.0,0.0,0.0,0.0,0.0,0.0,0.0,0.0,0.0,0.0,0.0,0.0,0.0,0.0,0.0,0.0,0.0,0.0,0.0,0.0,0.0,0.0,0.0,0.0,0.0,0.0,0.0,0.0,0.0,0.0,0.0,0.0,0.0,0.0,0.0,0.0,0.0,0.0,0.0,0.0,0.0,0.0,0.0,0.0,0.0,0.0,0.0,0.0,0.0,0.0,0.0,0.0,0.0,0.0,0.0,0.0,0.0,0.0,0.0,0.0,0.0,0.0,0.0,0.0,0.0,0.0,0.0,0.0,0.0,0.0,0.0,0.0,0.0,0.0,0.0,0.0,0.0,0.0,0.0,0.0,0.0,0.0,0.0,0.0,0.0,0.0,0.0,0.0,0.0,0.0,0.0,0.0,0.0,0.0,0.0,0.0,0.0,0.0,0.0,0.0,0.0,0.0,0.0,0.0,0.0,0.0,0.0,0.0,0.0,0.0,0.0,0.0,0.0,0.0,0.0,0.0,0.0,0.0,0.0,0.0,0.0,0.0,0.0,0.0,0.0,0.0,0.0,0.0,0.0,0.0,0.0,0.0,0.0,0.0,0.0,0.0,0.0,0.0,0.0,0.0,0.0,0.0,0.0,0.0,0.0,0.0,0.0,0.0,0.0,0.0,0.0,0.0,0.0,0.0,0.0,0.0,0.0,0.0,0.0,0.0,0.0,0.0,0.0,0.0,0.0,0.0,0.0,0.0,0.0,0.0,0.0,0.0,0.0,0.0,0.0,0.0,0.0,0.0,0.0,0.0,0.0,0.0,0.0,0.0,0.0,0.0,0.0,0.0,0.0,0.0,0.0,0.0,0.0,0.0,0.0,0.0,0.0,0.0,0.0,0.0,0.0,0.0,0.0,0.0,0.0,0.0,0.0,0.0,0.0,0.0,0.0,0.0,0.0,0.0,0.0,0.0,0.0,0.0,0.0,0.0,0.0,0.0,0.0,0.0,0.0,0.0,0.0,0.0,0.0,0.0,0.0,0.0,0.0,0.0,0.0,0.0,0.0,0.0,0.0,0.0,0.0,0.0,0.0,0.0,0.0,0.0,0.0,0.0,0.0,0.0,0.0,0.0,0.0,0.0,0.0,0.0,0.0,0.0,0.0,0.0,0.0,0.0,0.0,0.0,0.0,0.0,0.0,0.0,0.0,0.0,0.0,0.0,0.0,0.0,0.0,0.0,0.0,0.0,0.0,0.0,0.0,0.0,0.0,0.0,0.0,0.0,0.0,0.0,0.0,0.0,0.0,0.0,0.0,0.0,0.0,0.0,0.0,0.0,0.0,0.0,0.0,0.0,0.0,0.0,0.0,0.0,0.0,0.0,0.0,0.0,0.0,0.0,0.0,0.0,0.0,0.0,0.0,0.0,0.0,0.0,0.0,0.0,0.0,0.0,0.0,0.0,0.0,0.0,0.0,0.0,0.0,0.0,0.0,0.0,0.0,0.0,0.0,0.0,0.0,0.0,0.0,0.0,0.0,0.0,0.0,0.0,0.0,0.0,0.0,0.0,0.0,0.0,0.0,0.0,0.0,0.0,0.0,0.0,0.0,0.0,0.0,0.0,0.0,0.0,0.0,0.0,0.0,0.0,0.0,0.0,0.0,0.0,0.0,0.0,0.0,0.0,0.0,0.0,0.0,0.0,0.0,0.0,0.0,0.0,0.0,0.0,0.0,0.0,0.0,0.0,0.0,0.0,0.0,0.0,0.0,0.0,0.0,0.0,0.0,0.0,0.0,0.0,0.0,0.0,0.0,0.0,0.0,0.0,0.0,0.0,0.0,0.0,0.0,0.0,0.0,0.0,0.0,0.0,0.0,0.0,0.0,0.0,0.0,0.0,0.0,0.0,0.0,0.0,0.0,0.0,0.0,0.0,0.0,0.0,0.0,0.0,0.0,0.0,0.0,0.0,0.0,0.0,0.0,0.0,0.0,0.0,0.0,0.0,0.0,0.0,0.0,0.0,0.0,0.0,0.0,0.0,0.0,0.0,0.0,0.0,0.0,1.0887,0.0,0.0,0.0,0.0,0.0,0.0,0.0,0.0,0.0,0.0,0.0,0.0,0.0,0.0,0.0,0.0,0.0,0.0,0.0,0.0,0.0,0.0,0.0,0.0,0.0,0.0,0.0,0.0,0.0,0.0,0.0,0.0,0.0,0.0,0.0,0.0,0.0,0.0,0.0,0.0,0.0,0.0,0.0,0.0,0.0,0.0,0.0,0.0,0.0,0.0,0.0,0.0,0.0,0.0,0.0,0.0,0.0,0.0,0.0,0.0,0.0,0.0,0.0,0.0,0.0,0.0,0.0,0.0,0.0,0.0,0.0,0.0,0.0,0.0,0.0,0.0,0.0,0.0,0.0,0.0,0.0,0.0,0.0,0.0,0.0,0.0,0.0,0.0,0.0,0.0,0.0,0.0,0.0,0.0,0.0,0.0,0.0,0.0,0.0,0.0,0.0,0.0,0.0,0.0,0.0,0.0,0.0,0.0,0.0,0.0,0.9812,1.0039,1.0205,1.0592,1.1197,0.0,0.0,0.0,0.0,0.0,0.0,0.0,0.0,0.0,0.0,0.0,0.0,0.0,0.0,0.0,0.0,0.0,0.0,0.0,0.0,0.0,0.0,0.0,0.0,0.0,0.0,0.0,0.0,0.0,0.0,0.0,0.0,0.0,0.0,0.0,0.0,0.0,0.0,0.0,0.0,0.0,0.0,0.0,0.0,0.0,0.0,0.0,0.0,0.0,0.0,0.0,0.0,0.0,0.0,0.0,0.0,0.0,0.0,0.0,0.0,0.0,0.0,0.0,0.0,0.0,0.0,0.0,0.0,0.0,0.0,0.0,0.0,0.0,0.0,0.0,0.0,0.0,0.0,0.0,0.0,0.0,0.0,0.0,0.0,0.0,0.0,0.0,0.0,0.0,0.0,0.0,0.0,0.0,0.0,0.0,0.0,0.0,0.0,0.0,0.0,0.0,0.0,0.0,0.0,0.0,0.0,0.0,0.0,0.0,0.0,0.0,0.0,1.0626,1.0961,1.1635,0.0,0.0,0.0,0.0,0.0,0.0,0.0,0.0,0.0,0.0,0.0,0.0,0.0,0.0,0.0,0.0,0.0,0.0,0.0,0.0,0.0,0.0,0.0,0.0,0.0,0.0,0.0,0.0,0.0,0.0,0.0,0.0,0.0,0.0,0.0,0.0,0.0,0.0,0.0,0.0,0.0,0.0,0.0,0.0,0.0,0.0,0.0,0.0,0.0,0.0,0.0,0.0,0.0,0.0,0.0,0.0,0.0,0.0,0.0,0.0,0.0,0.0,0.0,0.0,0.0,0.0,0.0,0.0,0.0,0.0,0.0,0.0,0.0,0.0,0.0,0.0,0.0,0.0,0.0,0.0,0.0,0.0,0.0,0.0,0.0,0.0,0.0,0.0,0.0,0.0,0.0,0.0,0.0,0.0,0.0,0.0,0.0,0.0,0.0,0.0,0.0,0.0,0.0,0.0,0.0,0.0,0.0,0.0,0.0,0.0,1.0604,1.135,1.1575,0.0,1.216,0.0,0.0,0.0,0.0,0.0,0.0,0.0,0.0,0.0,0.0,0.0,0.0,0.0,0.0,0.0,0.0,0.0,0.0,0.0,0.0,0.0,0.0,0.0,0.0,0.0,0.0,0.0,0.0,0.0,0.0,0.0,0.0,0.0,0.0,0.0,0.0,0.0,0.0,0.0,0.0,0.0,0.0,0.0,0.0,0.0,0.0,0.0,0.0,0.0,0.0,0.0,0.0,0.0,0.0,0.0,0.0,0.0,0.0,0.0,0.0,0.0,0.0,0.0,0.0,0.0,0.0,0.0,0.0,0.0,0.0,0.0,0.0,0.0,0.0,0.0,0.0,0.0,0.0,0.0,0.0,0.0,0.0,0.0,0.0,0.0,0.0,0.0,0.0,0.0,0.0,0.0,0.0,0.0,0.0,0.0,0.0,0.0,0.0,0.0,0.0,0.0,0.0,0.0,0.0,0.0,0.0,0.0,0.0,0.0,0.0,0.0,1.113,1.1602,1.2144,0.0,0.0,0.0,0.0,0.0,0.0,0.0,0.0,0.0,0.0,0.0,0.0,0.0,0.0,0.0,0.0,0.0,0.0,0.0,0.0,0.0,0.0,0.0,0.0,0.0,0.0,0.0,0.0,0.0,0.0,0.0,0.0,0.0,0.0,0.0,0.0,0.0,0.0,0.0,0.0,0.0,0.0,0.0,0.0,0.0,0.0,0.0,0.0,0.0,0.0,0.0,0.0,0.0,0.0,0.0,0.0,0.0,0.0,0.0,0.0,0.0,0.0,0.0,0.0,0.0,0.0,0.0,0.0,0.0,0.0,0.0,0.0,0.0,0.0,0.0,0.0,0.0,0.0,0.0,0.0,0.0,0.0,0.0,0.0,0.0,0.0,0.0,0.0,0.0,0.0,0.0,0.0,0.0,0.0,0.0,0.0,0.0,0.0,0.0,0.0,0.0,0.0,0.0,0.0,0.0,0.0,0.0,0.0,0.0,0.0,1.0616,0.0,1.1694,1.2286,1.2622,1.2677,0.0,0.0,0.0,0.0,0.0,0.0,0.0,0.0,0.0,0.0,0.0,0.0,0.0,0.0,0.0,0.0,0.0,0.0,0.0,0.0,0.0,0.0,0.0,0.0,0.0,0.0,0.0,0.0,0.0,0.0,0.0,0.0,0.0,0.0,0.0,0.0,0.0,0.0,0.0,0.0,0.0,0.0,0.0,0.0,0.0,0.0,0.0,0.0,0.0,0.0,0.0,0.0,0.0,0.0,0.0,0.0,0.0,0.0,0.0,0.0,0.0,0.0,0.0,0.0,0.0,0.0,0.0,0.0,0.0,0.0,0.0,0.0,0.0,0.0,0.0,0.0,0.0,0.0,0.0,0.0,0.0,0.0,0.0,0.0,0.0,0.0,0.0,0.0,0.0,0.0,0.0,0.0,0.0,0.0,0.0,0.0,0.0,0.0,0.0,0.0,0.0,0.0,0.0,0.0,0.0,0.0,0.0,0.0,0.0,1.186,1.236,1.3608,1.4067,1.3389,0.0,0.0,0.0,0.0,0.0,0.0,0.0,0.0,0.0,0.0,0.0,0.0,0.0,0.0,0.0,0.0,0.0,0.0,0.0,0.0,0.0,0.0,0.0,0.0,0.0,0.0,0.0,0.0,0.0,0.0,0.0,0.0,0.0,0.0,0.0,0.0,0.0,0.0,0.0,0.0,0.0,0.0,0.0,0.0,0.0,0.0,0.0,0.0,0.0,0.0,0.0,0.0,0.0,0.0,0.0,0.0,0.0,0.0,0.0,0.0,0.0,0.0,0.0,0.0,0.0,0.0,0.0,0.0,0.0,0.0,0.0,0.0,0.0,0.0,0.0,0.0,0.0,0.0,0.0,0.0,0.0,0.0,0.0,0.0,0.0,0.0,0.0,0.0,0.0,0.0,0.0,0.0,0.0,0.0,0.0,0.0,0.0,0.0,0.0,0.0,0.0,0.0,0.0,0.0,0.0,0.0,0.0,0.0,0.0,0.9682,1.0313,1.195,1.4499,1.2862,1.2194,0.0,0.0,0.0,0.0,0.0,0.0,0.0,0.0,0.0,0.0,0.0,0.0,0.0,0.0,0.0,0.0,0.0,0.0,0.0,0.0,0.0,0.0,0.0,0.0,0.0,0.0,0.0,0.0,0.0,0.0,0.0,0.0,0.0,0.0,0.0,0.0,0.0,0.0,0.0,0.0,0.0,0.0,0.0,0.0,0.0,0.0,0.0,0.0,0.0,0.0,0.0,0.0,0.0,0.0,0.0,0.0,0.0,0.0,0.0,0.0,0.0,0.0,0.0,0.0,0.0,0.0,0.0,0.0,0.0,0.0,0.0,0.0,0.0,0.0,0.0,0.0,0.0,0.0,0.0,0.0,0.0,0.0,0.0,0.0,0.0,0.0,0.0,0.0,0.0,0.0,0.0,0.0,0.0,0.0,0.0,0.0,0.0,0.0,0.0,0.0,0.0,0.0,0.0,0.0,0.0,0.0,0.0,0.0,0.0,0.9806,0.0,1.2901,0.0,1.2684,1.1806,0.0,0.0,0.0,0.0,0.0,0.0,0.0,0.0,0.0,0.0,0.0,0.0,0.0,0.0,0.0,0.0,0.0,0.0,0.0,0.0,0.0,0.0,0.0,0.0,0.0,0.0,0.0,0.0,0.0,0.0,0.0,0.0,0.0,0.0,0.0,0.0,0.0,0.0,0.0,0.0,0.0,0.0,0.0,0.0,0.0,0.0,0.0,0.0,0.0,0.0,0.0,0.0,0.0,0.0,0.0,0.0,0.0,0.0,0.0,0.0,0.0,0.0,0.0,0.0,0.0,0.0,0.0,0.0,0.0,0.0,0.0,0.0,0.0,0.0,0.0,0.0,0.0,0.0,0.0,0.0,0.0,0.0,0.0,0.0,0.0,0.0,0.0,0.0,0.0,0.0,0.0,0.0,0.0,0.0,0.0,0.0,0.0,0.0,0.0,0.0,0.0,0.0,0.0,0.0,0.0,0.0,0.0,0.0,0.9846,1.2994,1.4801,1.5223,1.4476,1.3812,1.2415,0.0,0.0,0.0,0.0,0.0,0.0,0.0,0.0,0.0,0.0,0.0,0.0,0.0,0.0,0.0,0.0,0.0,0.0,0.0,0.0,0.0,0.0,0.0,0.0,0.0,0.0,0.0,0.0,0.0,0.0,0.0,0.0,0.0,0.0,0.0,0.0,0.0,0.0,0.0,0.0,0.0,0.0,0.0,0.0,0.0,0.0,0.0,0.0,0.0,0.0,0.0,0.0,0.0,0.0,0.0,0.0,0.0,0.0,0.0,0.0,0.0,0.0,0.0,0.0,0.0,0.0,0.0,0.0,0.0,0.0,0.0,0.0,0.0,0.0,0.0,0.0,0.0,0.0,0.0,0.0,0.0,0.0,0.0,0.0,0.0,0.0,0.0,0.0,0.0,0.0,0.0,0.0,0.0,0.0,0.0,0.0,0.0,0.0,0.0,0.0,0.0,0.0,0.0,0.0,0.0,0.0,0.0,0.0,0.0,1.1713,1.3406,1.4888,1.5997,1.3813,1.2767,0.0,0.0,0.0,0.0,0.0,0.0,0.0,0.0,0.0,0.0,0.0,0.0,0.0,0.0,0.0,0.0,0.0,0.0,0.0,0.0,0.0,0.0,0.0,0.0,0.0,0.0,0.0,0.0,0.0,0.0,0.0,0.0,0.0,0.0,0.0,0.0,0.0,0.0,0.0,0.0,0.0,0.0,0.0,0.0,0.0,0.0,0.0,0.0,0.0,0.0,0.0,0.0,0.0,0.0,0.0,0.0,0.0,0.0,0.0,0.0,0.0,0.0,0.0,0.0,0.0,0.0,0.0,0.0,0.0,0.0,0.0,0.0,0.0,0.0,0.0,0.0,0.0,0.0,0.0,0.0,0.0,0.0,0.0,0.0,0.0,0.0,0.0,0.0,0.0,0.0,0.0,0.0,0.0,0.0,0.0,0.0,0.0,0.0,0.0,0.0,0.0,0.0,0.0,0.0,0.0,0.0,0.0,0.0,0.0,1.2958,1.4631,1.6052,1.7064,1.4608,1.3536,1.4016,0.0,0.0,0.0,0.0,0.0,0.0,0.0,0.0,0.0,0.0,0.0,0.0,0.0,0.0,0.0,0.0,0.0,0.0,0.0,0.0,0.0,0.0,0.0,0.0,0.0,0.0,0.0,0.0,0.0,0.0,0.0,0.0,0.0,0.0,0.0,0.0,0.0,0.0,0.0,0.0,0.0,0.0,0.0,0.0,0.0,0.0,0.0,0.0,0.0,0.0,0.0,0.0,0.0,0.0,0.0,0.0,0.0,0.0,0.0,0.0,0.0,0.0,0.0,0.0,0.0,0.0,0.0,0.0,0.0,0.0,0.0,0.0,0.0,0.0,0.0,0.0,0.0,0.0,0.0,0.0,0.0,0.0,0.0,0.0,0.0,0.0,0.0,0.0,0.0,0.0,0.0,0.0,0.0,0.0,0.0,0.0,0.0,0.0,0.0,0.0,0.0,0.0,0.0,0.0,0.0,0.0,0.0,0.0,1.6099,1.7993,1.8497,1.757,1.6147,1.4695,0.0,0.0,0.0,0.0,0.0,0.0,0.0,0.0,0.0,0.0,0.0,0.0,0.0,0.0,0.0,0.0,0.0,0.0,0.0,0.0,0.0,0.0,0.0,0.0,0.0,0.0,0.0,0.0,0.0,0.0,0.0,0.0,0.0,0.0,0.0,0.0,0.0,0.0,0.0,0.0,0.0,0.0,0.0,0.0,0.0,0.0,0.0,0.0,0.0,0.0,0.0,0.0,0.0,0.0,0.0,0.0,0.0,0.0,0.0,0.0,0.0,0.0,0.0,0.0,0.0,0.0,0.0,0.0,0.0,0.0,0.0,0.0,0.0,0.0,0.0,0.0,0.0,0.0,0.0,0.0,0.0,0.0,0.0,0.0,0.0,0.0,0.0,0.0,0.0,0.0,0.0,0.0,0.0,0.0,0.0,0.0,0.0,0.0,0.0,0.0,0.0,0.0,0.0,0.0,0.0,0.0,0.0,0.0,0.0,1.7516,1.9157,1.9756,1.9228,1.7411,1.5928,0.0,0.0,0.0,0.0,0.0,0.0,0.0,0.0,0.0,0.0,0.0,0.0,0.0,0.0,0.0,0.0,0.0,0.0,0.0,0.0,0.0,0.0,0.0,0.0,0.0,0.0,0.0,0.0,0.0,0.0,0.0,0.0,0.0,0.0,0.0,0.0,0.0,0.0,0.0,0.0,0.0,0.0,0.0,0.0,0.0,0.0,0.0,0.0,0.0,0.0,0.0,0.0,0.0,0.0,0.0,0.0,0.0,0.0,0.0,0.0,0.0,0.0,0.0,0.0,0.0,0.0,0.0,0.0,0.0,0.0,0.0,0.0,0.0,0.0,0.0,0.0,0.0,0.0,0.0,0.0,0.0,0.0,0.0,0.0,0.0,0.0,0.0,0.0,0.0,0.0,0.0,0.0,0.0,0.0,0.0,0.0,0.0,0.0,0.0,0.0,0.0,0.0,0.0,0.0,0.0,0.0,0.0,0.0,1.661,1.8398,1.972,2.0304,2.0122,1.8575,1.7114,0.0,0.0,0.0,0.0,0.0,0.0,0.0,0.0,0.0,0.0,0.0,0.0,0.0,0.0,0.0,0.0,0.0,0.0,0.0,0.0,0.0,0.0,0.0,0.0,0.0,0.0,0.0,0.0,0.0,0.0,0.0,0.0,0.0,0.0,0.0,0.0,0.0,0.0,0.0,0.0,0.0,0.0,0.0,0.0,0.0,0.0,0.0,0.0,0.0,0.0,0.0,0.0,0.0,0.0,0.0,0.0,0.0,0.0,0.0,0.0,0.0,0.0,0.0,0.0,0.0,0.0,0.0,0.0,0.0,0.0,0.0,0.0,0.0,0.0,0.0,0.0,0.0,0.0,0.0,0.0,0.0,0.0,0.0,0.0,0.0,0.0,0.0,0.0,0.0,0.0,0.0,0.0,0.0,0.0,0.0,0.0,0.0,0.0,0.0,0.0,0.0,0.0,0.0,0.0,0.0,0.0,0.0,0.0,1.746,1.8888,1.993,2.0504,2.0458,1.952,1.8155,0.0,0.0,0.0,0.0,0.0,0.0,0.0,0.0,0.0,0.0,0.0,0.0,0.0,0.0,0.0,0.0,0.0,0.0,0.0,0.0,0.0,0.0,0.0,0.0,0.0,0.0,0.0,0.0,0.0,0.0,0.0,0.0,0.0,0.0,0.0,0.0,0.0,0.0,0.0,0.0,0.0,0.0,0.0,0.0,0.0,0.0,0.0,0.0,0.0,0.0,0.0,0.0,0.0,0.0,0.0,0.0,0.0,0.0,0.0,0.0,0.0,0.0,0.0,0.0,0.0,0.0,0.0,0.0,0.0,0.0,0.0,0.0,0.0,0.0,0.0,0.0,0.0,0.0,0.0,0.0,0.0,0.0,0.0,0.0,0.0,0.0,0.0,0.0,0.0,0.0,0.0,0.0,0.0,0.0,0.0,0.0,0.0,0.0,0.0,0.0,0.0,0.0,0.0,0.0,0.0,0.0,0.0,0.0,1.8134,1.8896,2.0301,2.104,2.1029,1.9775,1.8369,0.0,0.0,0.0,0.0,0.0,0.0,0.0,0.0,0.0,0.0,0.0,0.0,0.0,0.0,0.0,0.0,0.0,0.0,0.0,0.0,0.0,0.0,0.0,0.0,0.0,0.0,0.0,0.0,0.0,0.0,0.0,0.0,0.0,0.0,0.0,0.0,0.0,0.0,0.0,0.0,0.0,0.0,0.0,0.0,0.0,0.0,0.0,0.0,2.3883,0.0,0.0,0.0,0.0,0.0,0.0,0.0,0.0,0.0,0.0,0.0,0.0,0.0,0.0,0.0,0.0,0.0,0.0,0.0,0.0,0.0,0.0,0.0,0.0,0.0,0.0,0.0,0.0,0.0,0.0,0.0,0.0,0.0,0.0,0.0,0.0,0.0,0.0,0.0,0.0,0.0,0.0,0.0,0.0,0.0,0.0,0.0,0.0,0.0,0.0,0.0,0.0,0.0,0.0,0.0,0.0,0.0,0.0,0.0,1.8744,1.929,2.0546,2.1201,2.1155,2.0031,1.8733,0.0,0.0,0.0,0.0,0.0,0.0,0.0,0.0,0.0,0.0,0.0,0.0,0.0,0.0,0.0,0.0,0.0,0.0,0.0,0.0,0.0,0.0,0.0,0.0,0.0,0.0,0.0,0.0,0.0,0.0,0.0,0.0,0.0,0.0,0.0,0.0,0.0,0.0,0.0,0.0,0.0,0.0,0.0,0.0,0.0,0.0,0.0,0.0,0.0,0.0,0.0,0.0,0.0,0.0,0.0,0.0,0.0,0.0,0.0,0.0,0.0,0.0,0.0,0.0,0.0,0.0,0.0,0.0,0.0,0.0,0.0,0.0,0.0,0.0,0.0,0.0,0.0,0.0,0.0,0.0,0.0,0.0,0.0,0.0,0.0,0.0,0.0,0.0,0.0,0.0,0.0,0.0,0.0,0.0,0.0,0.0,0.0,0.0,0.0,0.0,0.0,0.0,0.0,0.0,0.0,0.0,0.0,1.7312,1.9023,1.9688,2.0684,2.1201,2.1178,2.022,1.9079,1.7726,0.0,0.0,0.0,0.0,0.0,0.0,0.0,0.0,0.0,0.0,0.0,0.0,0.0,0.0,0.0,0.0,0.0,0.0,0.0,0.0,0.0,0.0,0.0,0.0,0.0,0.0,0.0,0.0,0.0,0.0,0.0,0.0,0.0,0.0,0.0,0.0,0.0,0.0,1.9218,2.0961,0.0,0.0,0.0,0.0,0.0,0.0,0.0,0.0,2.5479,0.0,0.0,0.0,0.0,0.0,0.0,0.0,0.0,0.0,0.0,0.0,0.0,0.0,0.0,0.0,0.0,0.0,0.0,0.0,0.0,0.0,0.0,0.0,0.0,0.0,0.0,0.0,0.0,0.0,0.0,0.0,0.0,0.0,0.0,0.0,0.0,0.0,0.0,0.0,0.0,0.0,0.0,0.0,0.0,0.0,0.0,0.0,0.0,0.0,0.0,0.0,0.0,0.0,0.0,0.0,0.0,1.5706,1.7044,1.8371,1.9677,2.0684,2.1201,2.1167,2.022,1.9065,1.7703,0.0,0.0,0.0,0.0,0.0,0.0,0.0,0.0,0.0,0.0,0.0,0.0,0.0,0.0,0.0,0.0,0.0,0.0,0.0,0.0,0.0,0.0,0.0,0.0,0.0,0.0,0.0,0.0,0.0,0.0,0.0,0.0,0.0,0.0,0.0,0.0,0.0,0.0,0.0,2.324,2.4084,0.0,0.0,0.0,0.0,0.0,0.0,0.0,0.0,2.5791,0.0,0.0,0.0,0.0,0.0,0.0,0.0,0.0,0.0,0.0,0.0,0.0,0.0,0.0,0.0,0.0,0.0,0.0,0.0,0.0,0.0,0.0,0.0,0.0,0.0,0.0,0.0,0.0,0.0,0.0,0.0,0.0,0.0,0.0,0.0,0.0,0.0,0.0,0.0,0.0,0.0,0.0,0.0,0.0,0.0,0.0,0.0,0.0,0.0,0.0,0.0,0.0,0.0,0.0,0.0,1.5221,1.747,1.8996,1.97,2.0684,2.1063,2.0772,1.9536,1.8255,0.0,0.0,0.0,0.0,0.0,0.0,0.0,0.0,0.0,0.0,0.0,0.0,0.0,0.0,0.0,0.0,0.0,0.0,0.0,0.0,0.0,0.0,0.0,0.0,0.0,0.0,0.0,0.0,0.0,0.0,0.0,0.0,0.0,0.0,0.0,0.0,0.0,0.0,0.0,0.0,2.387,2.4796,2.5364,0.0,0.0,0.0,0.0,0.0,0.0,2.7292,2.6972,0.0,0.0,0.0,0.0,0.0,0.0,0.0,0.0,0.0,0.0,0.0,0.0,0.0,0.0,0.0,0.0,0.0,0.0,0.0,0.0,0.0,0.0,0.0,0.0,0.0,0.0,0.0,0.0,0.0,0.0,0.0,0.0,0.0,0.0,0.0,0.0,0.0,0.0,0.0,0.0,0.0,0.0,0.0,0.0,0.0,0.0,0.0,0.0,0.0,0.0,0.0,0.0,0.0,0.0,0.0,1.4441,1.7585,1.9409,1.9711,2.0695,2.0944,2.0412,1.9109,1.7724,0.0,0.0,0.0,0.0,0.0,0.0,0.0,0.0,0.0,0.0,0.0,0.0,0.0,0.0,0.0,0.0,0.0,0.0,0.0,0.0,0.0,0.0,0.0,0.0,0.0,0.0,0.0,0.0,0.0,0.0,0.0,0.0,0.0,0.0,0.0,0.0,0.0,0.0,0.0,0.0,0.0,2.5651,2.672,2.6408,0.0,0.0,0.0,0.0,2.8843,2.9084,0.0,0.0,0.0,0.0,0.0,0.0,0.0,0.0,0.0,0.0,0.0,0.0,0.0,0.0,0.0,0.0,0.0,0.0,0.0,0.0,0.0,0.0,0.0,0.0,0.0,0.0,0.0,0.0,0.0,0.0,0.0,0.0,0.0,0.0,0.0,0.0,0.0,0.0,0.0,0.0,0.0,0.0,0.0,0.0,0.0,0.0,0.0,0.0,0.0,0.0,0.0,0.0,0.0,0.0,0.0,0.0,1.3977,1.6464,1.8379,1.9662,2.0695,2.0948,2.0423,1.9826,1.8478,0.0,0.0,0.0,0.0,0.0,0.0,0.0,0.0,0.0,0.0,0.0,0.0,0.0,0.0,0.0,0.0,0.0,0.0,0.0,0.0,0.0,0.0,0.0,0.0,0.0,0.0,0.0,0.0,0.0,0.0,0.0,0.0,0.0,0.0,0.0,0.0,0.0,0.0,0.0,0.0,0.0,2.7364,2.7179,2.7883,2.8622,0.0,0.0,3.0735,3.2472,3.2835,0.0,0.0,0.0,0.0,0.0,0.0,0.0,0.0,0.0,0.0,0.0,0.0,0.0,0.0,0.0,0.0,0.0,0.0,0.0,0.0,0.0,0.0,0.0,0.0,0.0,0.0,0.0,0.0,0.0,0.0,0.0,0.0,0.0,0.0,0.0,0.0,0.0,0.0,0.0,0.0,0.0,0.0,0.0,0.0,0.0,0.0,0.0,0.0,0.0,0.0,0.0,0.0,0.0,0.0,0.0,1.2499,1.3949,1.709,1.9052,1.9688,2.0393,2.0519,2.001,1.8954,1.7427,0.0,0.0,0.0,0.0,0.0,0.0,0.0,0.0,0.0,0.0,0.0,0.0,0.0,0.0,0.0,0.0,0.0,0.0,0.0,0.0,0.0,0.0,0.0,0.0,0.0,0.0,0.0,0.0,0.0,0.0,0.0,0.0,0.0,0.0,0.0,0.0,0.0,0.0,0.0,0.0,0.0,0.0,2.8281,2.9313,0.0,0.0,0.0,3.28,3.3849,0.0,0.0,0.0,0.0,0.0,0.0,0.0,0.0,0.0,0.0,0.0,0.0,0.0,0.0,0.0,0.0,0.0,0.0,0.0,0.0,0.0,0.0,0.0,0.0,0.0,0.0,0.0,0.0,0.0,0.0,0.0,0.0,0.0,0.0,0.0,0.0,0.0,0.0,0.0,0.0,0.0,0.0,0.0,0.0,0.0,0.0,0.0,0.0,0.0,0.0,0.0,0.0,0.0,0.0,0.0,0.0,0.0,1.3961,1.7596,1.9508,1.9505,1.9975,1.9972,1.9493,1.8384,0.0,0.0,0.0,0.0,0.0,0.0,0.0,0.0,0.0,0.0,0.0,0.0,0.0,0.0,0.0,0.0,0.0,0.0,0.0,0.0,0.0,0.0,0.0,0.0,0.0,0.0,0.0,1.0873,0.0,0.0,0.0,0.0,0.0,0.0,0.0,0.0,0.0,0.0,0.0,0.0,0.0,0.0,2.8536,2.96,3.094,3.2076,0.0,0.0,3.4804,3.5036,3.4966,3.4092,0.0,0.0,0.0,0.0,0.0,0.0,0.0,0.0,0.0,0.0,0.0,0.0,0.0,0.0,0.0,0.0,0.0,0.0,0.0,0.0,0.0,0.0,0.0,0.0,0.0,0.0,0.0,0.0,0.0,0.0,0.0,0.0,0.0,0.0,0.0,0.0,0.0,0.0,0.0,0.0,0.0,0.0,0.0,0.0,0.0,0.0,0.0,0.0,0.0,0.0,0.0,0.0,0.0,0.0,0.0,1.3984,1.7234,1.8954,1.8991,1.9485,1.9493,1.8965,1.8865,1.7663,0.0,0.0,0.0,0.0,0.0,0.0,0.0,0.0,0.0,0.0,0.0,0.0,0.0,0.0,0.0,0.0,0.0,0.0,0.0,0.0,0.0,0.0,0.0,0.0,0.0,0.0,0.0,0.0,0.0,0.0,0.0,0.0,0.0,0.0,0.0,0.0,0.0,0.0,0.0,0.0,0.0,2.9628,3.1048,3.2879,3.4515,0.0,0.0,3.6901,3.6675,3.7748,3.6977,3.2173,0.0,0.0,0.0,0.0,0.0,0.0,0.0,0.0,0.0,0.0,0.0,0.0,0.0,0.0,0.0,0.0,0.0,0.0,0.0,0.0,0.0,0.0,0.0,0.0,0.0,0.0,0.0,0.0,0.0,0.0,0.0,0.0,0.0,0.0,0.0,0.0,0.0,0.0,0.0,0.0,0.0,0.0,0.0,0.0,0.0,0.0,0.0,0.0,0.0,0.0,0.0,0.0,0.0,1.2656,1.3916,1.6827,1.8529,1.8896,1.9103,1.9103,1.8896,1.8584,1.7419,0.0,0.0,0.0,0.0,0.0,0.0,0.0,0.0,0.0,0.0,0.0,0.0,0.0,0.0,0.0,0.0,0.0,0.0,0.0,0.0,0.0,0.0,0.0,0.0,0.0,0.0,0.0,0.0,1.3391,1.3935,1.4267,0.0,0.0,0.0,0.0,0.0,0.0,0.0,0.0,0.0,0.0,3.0474,3.2332,3.4232,0.0,0.0,3.7932,3.8293,3.8181,3.7449,3.5966,3.3247,3.1056,0.0,0.0,0.0,0.0,0.0,0.0,0.0,0.0,0.0,0.0,0.0,0.0,0.0,0.0,0.0,0.0,0.0,0.0,0.0,0.0,0.0,0.0,0.0,0.0,0.0,0.0,0.0,0.0,0.0,0.0,0.0,0.0,0.0,0.0,0.0,0.0,0.0,0.0,0.0,0.0,0.0,0.0,0.0,0.0,0.0,0.0,0.0,0.0,0.0,0.0,0.0,0.0,1.259,1.3882,1.6628,1.8244,1.8653,1.8664,1.8653,1.8641,1.8295,1.7311,0.0,0.0,0.0,0.0,0.0,0.0,0.0,0.0,0.0,0.0,0.0,0.0,0.0,0.0,0.0,0.0,0.0,0.0,0.0,0.0,0.0,0.0,0.0,0.0,0.0,0.0,0.0,0.0,1.3831,1.4188,1.4555,0.0,0.0,0.0,0.0,0.0,0.0,0.0,0.0,0.0,0.0,3.1789,3.364,3.5548,3.7104,3.803,3.8447,3.8667,3.8667,3.7366,3.5795,3.4151,0.0,0.0,0.0,0.0,0.0,0.0,0.0,0.0,0.0,0.0,0.0,0.0,0.0,0.0,0.0,0.0,0.0,0.0,0.0,0.0,0.0,0.0,0.0,0.0,0.0,0.0,0.0,0.0,0.0,0.0,0.7231,0.0,0.0,0.0,0.0,0.0,0.0,0.0,0.0,0.0,0.0,0.0,0.0,0.0,0.0,0.0,0.0,0.0,0.0,0.0,0.0,0.0,0.0,1.2943,1.3916,1.6673,1.8107,1.8121,1.8109,1.8132,1.8132,1.8109,1.7605,1.6552,0.0,0.0,0.0,0.0,0.0,0.0,0.0,0.0,0.0,0.0,0.0,0.0,0.0,0.0,0.0,0.0,0.0,0.0,0.0,0.0,0.0,0.0,0.0,0.0,0.0,0.0,1.2967,1.3914,1.4581,0.0,0.0,0.0,0.0,0.0,0.0,0.0,0.0,0.0,0.0,3.1987,3.3712,3.5076,3.6845,3.8037,3.8125,3.8036,3.7956,3.7961,3.799,3.7205,0.0,0.0,0.0,0.0,0.0,0.0,0.0,0.0,0.0,0.0,0.0,0.0,0.0,0.0,0.0,0.0,0.0,0.0,0.0,0.0,0.0,0.0,0.0,0.0,0.0,0.0,0.0,0.987,0.9472,0.0,0.0,0.0,0.0,0.0,0.0,0.0,0.0,0.0,0.0,0.0,1.167,1.2415,0.0,0.0,0.0,0.0,0.0,0.0,0.0,0.0,0.0,0.0,0.0,0.0,1.2917,1.4321,1.6407,1.768,1.8084,1.8098,1.8098,1.8098,1.8098,1.7547,1.6358,0.0,0.0,0.0,0.0,0.0,0.0,0.0,0.0,0.0,0.0,0.0,0.0,0.0,0.0,0.0,0.0,0.0,0.0,0.0,0.0,0.0,0.0,0.0,0.0,0.0,1.3051,0.0,0.0,0.0,0.0,0.0,0.0,0.0,0.0,0.0,0.0,0.0,2.8119,3.061,3.2658,3.4401,3.5776,3.7173,3.8404,0.0,0.0,0.0,0.0,0.0,0.0,0.0,0.0,0.0,0.0,0.0,0.0,0.0,0.0,4.197,3.7487,3.6334,3.6159,3.6485,0.0,0.0,0.0,0.0,0.0,0.0,0.0,0.0,0.0,0.0,0.0,0.0,0.0,0.0,1.1588,0.0,1.098,0.0,0.0,0.0,0.0,0.0,0.0,0.0,0.0,1.2426,1.309,1.3306,1.4032,1.3967,0.0,1.3059,1.2148,0.0,0.0,0.0,0.0,0.0,0.0,0.0,0.0,1.3449,1.5012,1.6662,1.7705,1.8084,1.8098,1.8098,1.8098,1.8098,1.7654,1.6722,1.5846,1.5023,0.0,0.0,0.0,0.0,0.0,0.0,0.0,0.0,0.0,0.0,0.0,0.0,0.0,0.0,0.0,0.0,0.0,0.0,0.0,0.0,0.0,0.0,0.0,1.3739,0.0,0.0,0.0,0.0,0.0,0.0,0.0,0.0,0.0,2.6537,2.8149,3.0195,3.2942,3.4433,3.5768,3.7113,0.0,0.0,0.0,0.0,0.0,0.0,0.0,3.9322,3.9886,4.0073,4.0527,4.1655,4.3711,4.506,4.4583,0.0,0.0,4.179,4.0697,4.0528,4.0954,4.159,4.2089,4.2199,4.3112,4.3767,0.0,0.0,0.0,0.0,0.0,0.0,0.0,0.0,1.3488,1.3368,0.0,1.2386,0.0,0.0,0.0,0.0,0.0,1.2131,0.0,0.0,1.4435,1.5083,1.4902,1.4904,1.4848,1.4734,1.5017,1.4565,1.341,1.1319,0.0,0.0,0.0,0.0,0.0,0.0,1.4585,1.6025,1.7428,1.8132,1.8146,1.8121,1.8098,1.8098,1.8098,1.7949,1.7623,1.7075,1.6453,1.5651,1.409,0.0,0.0,0.0,0.0,0.0,0.0,0.0,0.0,0.0,0.0,0.0,0.0,0.0,0.0,0.0,0.0,0.0,0.0,0.0,0.0,1.3966,0.0,0.0,0.0,0.0,0.0,0.0,0.0,0.0,0.0,0.0,2.9137,3.0361,3.2664,3.6597,0.0,0.0,0.0,0.0,3.9343,4.0092,3.958,3.9643,4.1039,4.1891,4.2252,4.1998,0.0,0.0,4.4118,4.5676,4.6572,4.4998,4.6323,4.7549,4.764,4.6214,4.5568,4.6491,4.5631,4.5431,4.6877,4.7271,4.7506,1.7051,0.0,0.0,0.0,0.0,1.4881,1.5027,1.5249,1.516,1.4848,1.4411,1.43,0.0,0.0,0.0,0.0,0.0,0.0,1.3703,1.4143,1.4716,1.5043,1.5102,1.5386,1.5377,1.5052,1.5163,1.4898,1.4357,1.3714,1.2515,1.0851,0.0,0.0,0.0,0.0,1.6,1.6998,1.8099,1.8678,1.8653,1.8306,1.8098,1.8098,1.8098,1.8122,1.816,1.7659,1.7128,1.6609,1.5146,0.0,0.0,0.0,0.0,0.0,0.0,0.0,0.0,0.0,0.0,0.0,0.0,0.0,0.0,0.0,0.0,0.0,0.0,0.0,1.4611,1.5051,1.6006,0.0,0.0,0.0,0.0,0.0,0.0,0.0,0.0,0.0,3.3761,3.4443,3.5352,0.0,0.0,3.9385,3.9292,4.0003,4.0832,4.1559,4.1491,0.0,0.0,4.263,4.3193,4.4625,4.6425,4.7574,4.7402,4.8122,4.8544,4.8044,4.8645,4.9277,4.9474,4.837,4.7516,4.78,4.8152,4.8582,4.9108,4.9728,5.0206,2.0801,1.94,1.8115,1.7364,1.7056,1.6886,1.6781,1.6788,1.6818,1.6643,1.6277,1.612,1.5322,1.4126,1.4062,0.0,0.0,0.0,1.4925,1.5285,1.5488,1.5605,1.5653,1.5817,1.5764,1.5446,1.5446,1.5334,1.512,1.5058,1.4475,1.341,0.0,0.0,1.4381,1.5829,1.7136,1.8275,1.8902,1.9114,1.8885,1.8364,1.8098,1.8098,1.8098,1.8166,1.8273,1.7972,1.7739,1.7631,1.6374,1.5337,0.0,0.0,0.0,0.0,0.0,0.0,0.0,0.0,0.0,0.0,0.0,1.2163,1.0861,0.0,0.0,0.0,1.3967,1.5575,1.7068,1.7617,0.0,0.0,0.0,0.0,0.0,0.0,0.0,3.0126,3.292,3.5373,3.7161,3.818,3.8853,3.9123,4.0089,4.0771,4.0896,0.0,4.1897,4.2642,4.2909,4.3271,4.3876,4.4308,4.5118,4.6765,4.7882,4.8623,4.8777,4.9146,4.9399,4.9453,4.9729,5.0095,5.035,4.972,4.9254,4.9388,4.994,5.0434,5.0492,5.1227,5.1873,2.4115,2.3283,2.0295,1.8903,1.8714,1.881,1.8397,1.7739,1.8363,1.8449,1.8073,1.7724,1.7138,1.6405,1.5663,0.0,1.5361,1.6103,1.6425,1.6417,1.6582,1.6535,1.6351,1.6184,1.6017,1.5832,1.5814,1.5832,1.5824,1.5721,1.5998,1.665,1.5524,1.565,1.6981,1.7222,1.8127,1.972,1.9746,1.947,1.8922,1.8423,1.813,1.8098,1.8111,1.8125,1.8123,1.8125,1.8288,1.8538,1.7632,1.6931,1.656,0.0,0.0,0.0,0.0,0.0,0.0,0.0,0.0,0.0,0.0,0.0,0.0,0.0,0.0,0.0,1.685,0.0,1.9839,2.1013,0.0,0.0,0.0,2.5579,2.7532,2.9844,3.19,3.3382,0.0,0.0,3.9485,4.1351,4.2562,4.2489,4.1998,4.2086,4.3222,4.2831,4.2723,4.3484,4.3964,4.4552,4.5315,4.6353,4.7334,4.8205,4.8569,4.8651,4.8795,4.9135,4.9384,4.9407,4.984,5.0248,5.0372,5.0592,5.0933,5.0981,5.1056,5.1155,5.138,5.2053,5.2644,2.4111,2.3866,2.2956,2.2068,2.1286,2.117,2.0358,1.9128,1.911,1.8761,1.81,1.7999,1.7853,1.767,1.7477,1.7386,1.7404,1.7596,1.7579,1.7424,1.7171,1.6974,1.6821,1.6431,1.6219,1.6184,1.6061,1.6079,1.6184,1.6547,1.6952,1.7432,1.7675,1.793,1.8134,1.8909,1.9612,2.0224,2.024,1.9803,1.8931,1.8782,1.8501,1.8109,1.8245,1.8327,1.8327,1.8425,1.852,1.8577,1.8064,1.7737,1.7613,1.5167,0.0,0.0,0.0,0.0,0.0,0.0,0.0,0.0,0.0,1.5526,1.2605,0.0,1.717,0.0,1.8963,2.0361,2.1041,2.2669,0.0,0.0,2.784,2.9549,3.2101,3.3366,3.4486,3.56,3.8091,4.007,4.0933,4.2325,4.3456,4.3967,4.3934,4.3737,4.3477,4.3822,4.4242,4.4706,4.4918,4.5431,4.6472,4.7396,4.8083,4.8513,4.8578,4.8651,4.8829,4.916,4.9407,4.9446,4.984,5.0211,5.0377,5.0624,5.0875,5.1072,5.1193,5.1468,5.2134,5.2522,5.288,2.4636,2.4618,2.451,2.4101,2.3491,2.2524,2.1555,2.0667,2.0548,2.0225,1.973,1.9564,1.9254,1.8891,1.8712,1.8461,1.81,1.81,1.8044,1.7914,1.7605,1.7342,1.709,1.6741,1.6466,1.6289,1.6219,1.6219,1.6324,1.669,1.732,1.8189,1.865,1.9163,1.9693,1.9921,2.029,2.076,2.0527,2.0136,1.9585,1.9126,1.8759,1.8469,1.8333,1.8313,1.8394,1.8464,1.8441,1.8335,1.8116,1.8128,1.8341,1.6445,1.5393,0.0,0.0,0.0,0.0,0.0,0.0,0.0,0.0,0.0,0.0,0.0,1.947,1.9993,2.1812,2.3338,2.4218,2.5981,2.7853,2.9742,3.0841,3.2223,3.4228,3.5306,3.6284,3.7291,3.9472,4.1195,4.1874,4.3147,4.4133,4.4556,4.4584,4.4432,4.4062,4.4347,4.4759,4.5214,4.5494,4.6081,4.7309,4.7891,4.8286,4.8523,4.8578,4.8678,4.8864,4.9166,4.9419,4.9551,4.9955,5.0336,5.0507,5.0754,5.0974,5.1084,5.1196,5.1624,5.2428,5.2942,5.3472,2.5294,2.5294,2.5294,2.5294,2.5158,2.3423,2.2515,2.2234,2.2188,2.2019,2.1802,2.1426,2.0861,2.0138,1.9672,1.9129,1.8583,1.8462,1.8396,1.8406,1.8164,1.7842,1.7397,1.7243,1.6983,1.6606,1.6571,1.6596,1.6647,1.6811,1.7584,1.8917,1.9177,1.9917,2.111,2.056,2.056,2.119,2.0737,2.0454,2.0373,1.9482,1.8954,1.8899,1.843,1.8275,1.8504,1.8572,1.8493,1.835,1.8339,1.8586,1.9144,1.7757,1.7298,0.0,1.6805,0.0,0.0,0.0,0.0,0.0,0.0,0.0,0.0,2.0841,2.176,2.2754,2.4859,2.6649,2.7917,2.9613,3.1168,3.2476,3.3299,3.4113,3.506,3.6324,3.7521,3.8513,4.0403,4.1871,4.2562,4.3783,4.4584,4.4584,4.4584,4.4567,4.4567,4.4581,4.4786,4.529,4.595,4.6821,4.7741,4.813,4.8324,4.855,4.8614,4.8696,4.8874,4.9184,4.9465,4.9679,5.0081,5.0441,5.0668,5.0902,5.1078,5.1102,5.1208,5.162,5.2584,5.3342,5.4181,2.5294,2.5294,2.5294,2.5294,2.5247,2.4898,2.4264,2.3441,2.3176,2.2574,2.1813,2.173,2.1594,2.1375,2.0619,2.057,2.1055,2.036,2.0053,2.0014,1.9686,1.9108,1.8458,1.8711,1.8602,1.8174,1.8048,1.817,1.8476,1.8415,1.8884,1.9841,2.0479,2.0924,2.1174,0.0,0.0,0.0,2.1098,2.0841,2.0396,1.9838,1.9347,1.8911,1.8625,0.0,1.9187,1.9423,1.9722,2.0091,2.0104,0.0,0.0,0.0,0.0,0.0,0.0,0.0,0.0,0.0,0.0,0.0,2.2934,2.2027,2.0895,2.3229,2.492,2.5169,2.6831,2.8248,2.9119,3.0885,3.2367,3.3236,3.4378,3.5296,3.579,3.6993,3.8191,3.9219,4.1068,4.256,4.324,4.4059,4.4584,4.4584,4.4584,4.4584,4.4612,4.4626,4.4947,4.5817,4.6843,4.7682,4.81,4.8304,4.8466,4.8587,4.8706,4.8786,4.89,4.9158,4.9465,4.9684,5.0074,5.0476,5.0678,5.0859,5.1043,5.109,5.1161,5.1704,5.3297,5.3771,5.4357,2.5294,0.0,2.5294,2.5294,0.0,2.5294,2.5016,2.451,2.4306,2.3797,2.3128,2.3128,2.2857,2.2381,2.1928,2.1756,2.1785,2.1346,2.1155,2.1135,2.0922,2.0523,1.993,1.9695,1.9563,1.952,1.8825,1.882,1.9348,1.9064,1.9299,2.0096,2.0479,2.0844,2.1201,2.1201,2.1201,2.1201,2.1201,2.1075,2.0795,2.0297,1.9803,1.9327,0.0,0.0,0.0,0.0,0.0,0.0,0.0,0.0,0.0,0.0,0.0,2.099,2.0561,2.0672,2.1453,2.1799,2.2962,2.5233,2.5744,2.5327,2.3918,2.5473,2.672,2.7284,2.827,2.9447,3.0895,3.2117,3.3294,3.4435,3.5134,3.5635,3.6062,3.719,3.8381,3.9472,4.1275,4.2754,4.3423,4.415,4.457,4.4584,4.4584,4.4679,4.4889,4.4944,4.5337,4.6418,4.7417,4.81,4.8197,4.8362,4.8522,4.8596,4.8715,4.8804,4.8891,4.9184,4.9484,4.9759,5.0127,5.0472,5.075,5.092,5.1063,5.1102,5.1193,5.1832,5.3476,5.39,5.4418,2.5294,2.5294,2.5294,2.5294,2.5294,2.5294,2.5294,2.5294,0.0,0.0,0.0,2.4502,2.4025,2.3224,2.3075,2.27,2.2239,2.2069,2.2012,2.1993,2.2012,2.1776,2.1273,2.0722,2.0571,2.075,1.9654,1.948,2.0134,1.9513,1.9573,2.0237,2.0291,2.0592,2.1169,2.1201,2.1201,2.1201,2.1201,2.1201,2.119,2.0676,2.0277,2.0037,2.0093,2.0083,2.0048,2.0604,2.0812,2.0585,2.0545,2.0761,2.1201,2.1688,2.2342,2.3213,2.3797,2.4189,2.4414,2.488,2.5513,2.6315,2.7665,2.8045,2.7123,2.7238,2.7845,2.8958,2.931,3.0396,3.254,3.3149,3.4007,3.5528,3.5572,3.5619,3.5985,3.7289,3.8593,3.9629,4.1446,4.2955,4.3647,4.4222,4.4584,4.4584,4.4584,4.4828,4.532,4.5576,4.6012,4.6907,4.7697,4.8187,4.8246,4.8372,4.8523,4.8596,4.8723,4.884,4.8935,4.9184,4.9506,4.9834,5.0166,5.0499,5.0826,5.0967,5.1065,5.1083,5.1186,5.1738,5.3225,5.3812,5.4463,2.5294,2.5294,2.5294,2.5294,2.5294,2.5294,2.5294,2.5294,2.5147,2.4873,2.4502,2.4502,2.4327,2.3989,2.3298,2.3316,2.3806,2.315,2.2823,2.2823,2.2823,2.2443,2.1767,2.2294,2.2344,2.1948,2.143,2.1335,2.1458,2.0468,2.0307,2.0955,2.1063,2.1094,2.1201,2.1201,2.1201,2.1201,2.1201,2.1201,2.119,2.0676,2.0701,2.1283,2.1076,2.1432,2.2458,2.272,2.3082,2.3472,2.3498,2.3535,2.3597,2.3667,2.3803,2.3938,2.4036,2.4555,2.557,2.5738,2.6511,2.8141,2.8981,2.9008,2.81,2.7998,2.8439,2.9544,3.0039,3.1086,3.3094,3.3831,3.4531,3.5527,3.5573,3.557,3.5797,3.7568,3.9156,4.0086,4.2055,4.3634,4.425,4.4528,4.4584,4.4584,4.4692,4.4961,4.583,4.6507,4.6902,4.7219,4.7762,4.8169,4.8295,4.8458,4.8578,4.8596,4.874,4.8883,4.8926,4.9217,4.9528,4.9854,5.0184,5.0509,5.0839,5.0954,5.1021,5.1077,5.1171,5.1609,5.2715,5.3422,5.4482,2.5453,2.5453,2.5347,2.5294,2.5294,2.5294,2.5294,2.5294,2.5223,2.5058,2.482,2.4706,2.4544,2.4327,2.3849,2.3842,2.4171,2.3824,2.3659,2.3659,2.3648,2.3453,2.3109,2.3038,2.3103,2.3212,2.2357,2.2075,2.2234,2.1467,2.1115,2.1208,2.1201,2.1201,2.1201,2.1201,2.1201,2.1201,2.1201,2.1201,2.119,2.0971,2.1081,2.1593,2.1764,2.2251,2.2976,2.346,2.3835,2.4091,2.4105,2.4105,2.4105,2.4414,2.4597,2.4613,2.5204,2.5795,2.6343,2.7031,2.7945,2.9097,2.9448,2.9442,2.9008,2.9061,2.9561,3.0562,3.0973,3.2005,3.4023,3.4394,3.4828,3.5768,3.5718,3.5686,3.6047,3.7712,3.9345,4.0393,4.2219,4.3764,4.4528,4.4584,4.4584,4.464,4.5002,4.57,4.6418,4.7127,4.7595,4.7661,4.7953,4.8207,4.8296,4.8467,4.8559,4.8578,4.8767,4.8935,4.9054,4.9342,4.9679,5.0012,5.0342,5.0649,5.091,5.1007,5.1059,5.1139,5.1215,5.1628,5.2444,5.3617,5.4985,2.5823,2.577,2.5496,2.5347,2.5294,2.5294,2.5294,2.5294,2.5294,2.5241,2.5129,2.4939,2.4754,2.4562,2.4363,2.4255,2.4255,2.4218,2.4189,2.4189,2.4189,2.4189,2.4134,2.3549,2.3593,2.4022,2.3023,2.2623,2.2771,2.2237,2.1663,2.1247,2.1201,2.1201,2.1201,2.1201,2.1201,2.1217,2.1237,2.1237,2.1217,2.1201,2.1389,2.1833,2.2464,2.2993,2.346,2.4121,2.4513,2.4513,2.45,2.4513,2.4514,2.4937,2.526,2.5471,2.6287,2.6947,2.7256,2.8268,2.9111,2.956,2.9602,2.9602,2.9643,3.0163,3.0718,3.1342,3.1937,3.3034,3.4513,3.4942,3.5219,3.591,3.5831,3.5832,3.6224,3.7841,3.9436,4.0583,4.2325,4.3755,4.439,4.4584,4.4637,4.4865,4.5541,4.6286,4.6845,4.7528,4.7949,4.8022,4.8111,4.8247,4.8325,4.8476,4.8596,4.8623,4.8829,4.9035,4.9231,4.9532,4.9858,5.0168,5.0483,5.075,5.0935,5.1053,5.1117,5.1174,5.1243,5.1569,5.2448,5.3714,5.5195,2.6479,2.6262,2.5789,2.5483,2.5312,2.5294,2.5294,2.5294,2.5294,2.5294,2.5271,2.5141,2.4945,2.4754,2.4574,2.4483,2.4454,2.4291,2.4218,2.4189,2.4189,2.4189,2.4189,2.4098,2.4116,2.4143,2.357,2.3272,2.3247,2.2353,2.1663,2.1259,2.1201,2.1201,2.1201,2.1201,2.1201,2.1206,2.1321,2.1336,2.1217,2.1201,2.1643,2.2485,2.3079,2.3858,2.4719,2.5411,2.5738,2.5725,2.5696,2.5711,2.5724,2.5795,2.6048,2.6568,2.6736,2.7284,2.8408,2.9153,2.9532,2.9588,2.9602,2.9602,2.9674,3.1073,3.1805,3.1798,3.2863,3.4069,3.4822,3.5462,3.5831,3.5973,3.5894,3.5928,3.6616,3.7925,3.9462,4.0964,4.2464,4.372,4.4418,4.464,4.48,4.5218,4.5762,4.6382,4.692,4.7504,4.7947,4.802,4.8179,4.8334,4.8457,4.855,4.8642,4.875,4.9013,4.919,4.9386,4.9667,5.0,5.0333,5.0558,5.0797,5.0942,5.1037,5.1125,5.1208,5.131,5.1552,5.2448,5.3364,5.4533,2.6931,2.6523,2.6093,2.5672,2.5336,2.5294,2.5294,2.5294,2.5294,2.5294,2.5294,2.5241,2.5129,2.4975,2.476,2.4682,2.4664,2.4483,2.4363,2.4363,2.4243,2.4189,2.4189,2.4189,2.4189,2.4189,2.3982,2.3723,2.327,2.2387,2.1663,2.1247,2.1201,2.1201,2.1201,2.1201,2.1201,2.1206,2.1336,2.1372,2.1348,2.145,2.2099,2.318,2.3551,2.428,2.5398,2.577,2.5907,2.5907,2.5907,2.5907,2.5907,2.5907,2.616,2.6764,2.7523,2.831,2.9167,2.9462,2.9602,2.9602,2.9602,2.9602,2.9705,3.1465,3.2551,3.2507,3.3825,3.5066,3.5595,3.5943,3.6116,3.6164,3.6368,3.6631,3.689,3.8501,4.008,4.122,4.2532,4.369,4.4436,4.4838,4.5218,4.5716,4.622,4.6759,4.7291,4.7713,4.7929,4.804,4.8237,4.8419,4.8494,4.8569,4.8651,4.8795,4.9012,4.9255,4.9565,4.9858,5.0199,5.0553,5.0746,5.0905,5.108,5.1131,5.1171,5.1239,5.1297,5.1552,5.2409,5.2877,5.3833,2.7496,2.6851,2.6166,2.5661,2.5294,2.5294,2.5294,2.5294,2.5294,2.5294,2.5294,2.5294,2.5253,2.5129,2.4957,2.4885,2.4861,2.4682,2.4592,2.4574,2.4429,2.4381,2.4363,2.4363,2.4345,2.4363,2.4381,2.4086,2.3508,2.27,2.2017,2.161,2.1397,2.1344,2.1355,2.1328,2.1328,2.1344,2.1474,2.1541,2.1588,2.1897,2.2552,2.3475,2.3875,2.4567,2.5605,2.5811,2.5907,2.5907,2.5907,2.5907,2.5921,2.6048,2.6497,2.7298,2.8338,2.9125,2.9588,2.9602,2.9602,2.9602,2.9602,2.9649,3.0127,3.1763,3.2948,3.3189,3.4667,3.5864,3.6101,3.6242,3.6258,3.6243,3.6753,3.713,3.7413,3.8861,4.0133,4.123,4.2095,4.3186,4.4111,4.4827,4.5455,4.5987,4.656,4.7158,4.7646,4.7917,4.8042,4.8052,4.8314,4.8494,4.8532,4.8606,4.8696,4.8909,4.9129,4.9404,4.9747,5.0087,5.0382,5.0703,5.0905,5.104,5.1136,5.1201,5.1223,5.1282,5.1339,5.1476,5.1982,5.2353,5.3071,2.8319,2.7293,2.5936,2.5378,2.5312,2.5312,2.5312,2.5329,2.5312,2.5312,2.5312,2.5294,2.5294,2.5264,2.5159,2.5105,2.504,2.4867,2.479,2.4772,2.4765,2.4772,2.4772,2.4772,2.4783,2.4718,2.4718,2.4454,2.3932,2.3363,2.2904,2.2411,2.1886,2.1651,2.1651,2.1635,2.1667,2.1651,2.1827,2.1894,2.1991,2.2647,2.3055,2.3192,2.4066,2.4795,2.5132,2.5619,2.5907,2.5907,2.5907,2.5907,2.5964,2.6483,2.7326,2.8451,2.9166,2.956,2.9588,2.9602,2.9602,2.9602,2.9634,2.9804,3.0262,3.1978,3.318,3.3698,3.5308,3.6336,3.6242,3.6367,3.6383,3.6305,3.6784,3.7353,3.7903,3.8632,3.9617,4.0854,4.1523,4.2303,4.3399,4.455,4.5412,4.6037,4.6672,4.7258,4.7741,4.8046,4.8148,4.8217,4.8362,4.8522,4.8596,4.8687,4.8865,4.9062,4.9257,4.957,4.9943,5.0317,5.0586,5.0832,5.0949,5.1063,5.1175,5.122,5.1258,5.1282,5.1296,5.1476,5.1651,5.2175,5.274,2.8535,2.741,2.6198,2.5688,2.5688,2.5688,2.5688,2.5671,2.5535,2.5483,2.5453,2.5347,2.5294,2.5294,2.5241,2.5223,2.5218,2.507,2.4981,2.4975,2.4861,2.4819,2.4819,2.4819,2.4819,2.4819,2.4807,2.4519,2.3984,2.3467,2.2973,2.2478,2.1973,2.171,2.171,2.171,2.171,2.1745,2.2223,2.2549,2.2628,2.3695,2.4292,2.4278,2.4666,2.5104,2.5578,2.5784,2.5907,2.5907,2.5907,2.6076,2.6512,2.7453,2.8197,2.869,2.9279,2.9602,2.9602,2.9602,2.9602,2.9618,2.9897,3.0113,3.0605,3.2209,3.3592,3.4061,3.5431,3.6383,3.6414,3.646,3.6476,3.6538,3.7266,3.7937,3.8318,3.9065,4.0068,4.1071,4.1935,4.2882,4.3362,4.4498,4.5464,4.6024,4.6625,4.7225,4.7731,4.8008,4.813,4.8267,4.8429,4.8615,4.8706,4.8769,4.8884,4.9113,4.9352,4.9663,5.0038,5.0281,5.0538,5.0896,5.1027,5.1105,5.1213,5.1269,5.1282,5.1286,5.1298,5.13,5.13,5.1766,5.2136,2.8269,2.7268,2.6297,2.5923,2.5923,2.5923,2.5923,2.5875,2.5758,2.5658,2.5588,2.5447,2.5365,2.5312,2.5294,2.5294,2.5294,2.5218,2.5182,2.5135,2.5028,2.4975,2.4957,2.4945,2.4975,2.4957,2.4957,2.4773,2.4394,2.3868,2.347,2.3155,2.2475,2.2104,2.2096,2.195,2.1871,2.1999,2.2595,2.2965,2.3118,2.4293,2.4991,2.5033,2.5174,2.5467,2.5893,2.5907,2.5907,2.5907,2.5907,2.6259,2.713,2.8127,2.8788,2.9012,2.9378,2.968,2.979,2.9806,2.9898,3.0052,3.0327,3.0568,3.085,3.2631,3.3698,3.4303,3.5477,3.6492,3.6554,3.6677,3.6785,3.6907,3.7709,3.8379,3.8615,3.948,4.0201,4.0853,4.2049,4.2865,4.3278,4.4607,4.5582,4.614,4.677,4.7446,4.7876,4.8058,4.8151,4.8325,4.8495,4.8633,4.8759,4.8847,4.8983,4.9196,4.9434,4.9752,5.0069,5.0286,5.0548,5.0921,5.1131,5.1174,5.1234,5.1288,5.13,5.13,5.13,5.13,5.13,5.13,5.1669,2.7536,2.7008,2.6219,2.5945,2.5963,2.5963,2.594,2.5945,2.591,2.5811,2.5688,2.5618,2.5518,2.5365,2.5382,2.5347,2.5365,2.5347,2.5312,2.5276,2.5259,2.5259,2.5271,2.5241,2.5253,2.5259,2.5276,2.5276,2.5163,2.4642,2.4342,2.4227,2.3387,2.2943,2.2991,2.2602,2.2316,2.2462,2.3007,2.326,2.3282,2.4451,2.509,2.5118,2.555,2.5852,2.5907,2.5907,2.5907,2.5907,2.5949,2.6512,2.765,2.8451,2.8984,2.9448,2.9602,2.9851,3.0205,3.0282,3.0493,3.0777,3.097,3.1175,3.166,3.2944,3.403,3.4542,3.563,3.6507,3.6631,3.7013,3.7282,3.7461,3.7967,3.8601,3.9109,3.9709,4.0113,4.0354,4.1424,4.2215,4.2796,4.4268,4.5698,4.6182,4.7033,4.7832,4.805,4.8179,4.8334,4.8384,4.8348,4.8309,4.8635,4.8974,4.9137,4.9309,4.9544,4.9804,5.0147,5.0411,5.0628,5.0965,5.1145,5.1213,5.125,5.13,5.13,5.13,5.13,5.13,5.13,5.13,5.13,2.7905,2.7642,2.6707,2.6327,2.631,2.6314,2.631,2.631,2.6184,2.6079,2.601,2.5875,2.5758,2.5711,2.5711,2.5706,2.5723,2.5706,2.5571,2.5347,2.5312,2.5312,2.5312,2.5294,2.5294,2.5294,2.5294,2.5294,2.5198,2.4765,2.4513,2.4357,2.3857,2.3577,2.3602,2.3805,2.3812,2.3545,2.4487,2.4835,2.4533,2.5202,2.5605,2.5633,2.5811,2.5907,2.5907,2.5907,2.5907,2.5921,2.6301,2.7102,2.824,2.8984,2.9406,2.959,2.9914,3.0113,3.0297,3.0583,3.0836,3.1043,3.1292,3.1538,3.1845,3.3268,3.4251,3.4598,3.5706,3.6631,3.7043,3.7268,3.7431,3.7401,3.8311,3.896,3.9259,3.9731,4.0045,4.0197,4.0963,4.1474,4.1927,4.3566,4.4968,4.551,4.6541,4.7455,4.7899,4.8006,4.804,4.785,4.7821,4.7751,4.7845,4.8165,4.8571,4.9014,4.9444,4.9838,5.0209,5.0479,5.0703,5.0942,5.1139,5.123,5.1286,5.13,5.13,5.13,5.13,5.13,5.13,5.13,5.13,2.7931,2.7449,2.6788,2.6487,2.6487,2.6487,2.6487,2.6482,2.6374,2.627,2.6166,2.6067,2.598,2.5923,2.5923,2.5923,2.5923,2.5923,2.5758,2.5553,2.5535,2.5535,2.5518,2.5435,2.5418,2.5382,2.5329,2.5294,2.53,2.4999,2.4807,2.4717,2.429,2.4233,2.443,2.4671,2.4599,2.4515,2.5319,2.5618,2.5254,2.5591,2.5907,2.5907,2.5907,2.6006,2.6216,2.6245,2.6231,2.6385,2.7031,2.7888,2.869,2.9391,2.9882,2.9959,3.0281,3.0628,3.0822,3.1117,3.1364,3.1538,3.178,3.1936,3.2204,3.3376,3.4091,3.4613,3.5476,3.6475,3.722,3.7637,3.7796,3.8084,3.8714,3.9272,3.9497,3.985,4.007,4.0265,4.0828,4.1214,4.1801,4.293,4.4268,4.4945,4.5849,4.6646,4.7118,4.7303,4.7178,4.7065,4.7034,4.6945,4.6856,4.7285,4.7912,4.859,4.9271,4.975,5.0223,5.0432,5.0631,5.0982,5.122,5.1267,5.13,5.13,5.13,5.13,5.13,5.13,5.13,5.13,5.13,2.7675,2.6609,2.6533,2.6538,2.6538,2.6568,2.6555,2.6538,2.6538,2.643,2.627,2.624,2.6136,2.598,2.5997,2.6015,2.5945,2.598,2.5997,2.5945,2.5928,2.591,2.5811,2.5688,2.5623,2.56,2.5418,2.5347,2.54,2.5269,2.5347,2.5355,2.499,2.5014,2.5577,2.5291,2.5295,2.5344,2.5824,2.5886,2.527,2.5633,2.5948,2.5948,2.5948,2.6188,2.6652,2.6891,2.6975,2.7074,2.8001,2.8607,2.8966,2.9768,3.0266,3.0327,3.0777,3.119,3.1566,3.1681,3.188,3.2202,3.2272,3.2411,3.2479,3.3062,3.3828,3.4443,3.5257,3.6176,3.7286,3.8012,3.856,3.9095,3.9299,3.9566,3.9995,4.0083,4.0113,4.0265,4.0845,4.1463,4.1731,4.3051,4.4032,4.4632,4.5287,4.5885,4.6121,4.6379,4.6201,4.6186,4.6234,4.6107,4.6023,4.6565,4.7149,4.7696,4.8637,4.9587,5.0187,5.0469,5.0698,5.1054,5.126,5.1286,5.13,5.13,5.13,5.13,5.13,5.13,5.13,5.13,5.13,2.7765,2.7423,2.7041,2.6858,2.6858,2.6888,2.6871,2.6871,2.6858,2.6739,2.6619,2.6585,2.6469,2.6332,2.6344,2.6332,2.6314,2.6327,2.6344,2.6344,2.6361,2.6171,2.5963,2.5875,2.5828,2.5793,2.5635,2.5588,2.5693,2.5488,2.5687,2.6304,2.6029,2.6304,2.7022,2.7449,2.7272,2.6767,2.7221,2.699,2.6103,2.6056,2.6192,2.6178,2.6097,2.6368,2.6976,2.7764,2.8183,2.8226,2.8464,2.9096,2.9783,3.0195,3.0493,3.0836,3.1248,3.1552,3.1724,3.2021,3.2259,3.237,3.2411,3.2411,3.2442,3.3013,3.3705,3.4501,3.5474,3.6626,3.7817,3.8601,3.9189,3.9722,3.9812,3.9893,4.0033,4.0096,4.0121,4.028,4.0744,4.1131,4.169,4.2697,4.378,4.4155,4.4847,4.5608,4.5599,4.5743,4.571,4.5485,4.5432,4.5295,4.5368,4.5893,4.6372,4.6814,4.7878,4.9347,5.0024,5.0615,5.0888,5.1208,5.1272,5.1296,5.13,5.13,5.13,5.13,5.13,5.13,5.13,5.13,5.13,2.8415,2.7853,2.7557,2.7239,2.7024,2.7007,2.7007,2.7007,2.7007,2.6943,2.6846,2.6811,2.679,2.6722,2.6705,2.6658,2.6589,2.6572,2.6568,2.6487,2.6469,2.6349,2.6171,2.6084,2.6015,2.5997,2.5828,2.5811,2.5898,2.5873,2.626,2.6697,2.6888,2.7395,2.8177,2.8526,2.8405,2.7739,2.7924,2.7513,2.6414,2.6313,2.63,2.6286,2.6248,2.6562,2.7499,2.8626,2.917,2.9079,2.9247,2.9756,3.051,3.0807,3.1014,3.1321,3.1738,3.1993,3.2035,3.2259,3.2384,3.2411,3.2411,3.2411,3.2458,3.2798,3.3289,3.3994,3.5224,3.6499,3.7769,3.8867,3.9649,4.0007,4.015,4.015,4.0113,4.0163,4.0283,4.0512,4.0826,4.1235,4.1569,4.267,4.3238,4.3645,4.4172,4.4601,4.4799,4.5069,4.5198,4.4959,4.4867,4.4834,4.4885,4.5329,4.6012,4.6411,4.739,4.8869,4.9866,5.0589,5.0907,5.1136,5.1219,5.13,5.1302,5.1302,5.13,5.13,5.13,5.13,5.13,5.13,5.13,2.9322,2.8149,2.8149,2.7799,2.7373,2.7285,2.744,2.7319,2.7423,2.7306,2.7218,2.7163,2.7113,2.7007,2.6939,2.6892,2.6743,2.6743,2.6658,2.6658,2.6709,2.6752,2.6748,2.6361,2.6253,2.6201,2.6032,2.6072,2.6233,2.6556,2.69,2.7328,2.7713,2.8285,2.8955,2.9077,2.8746,2.8437,2.8368,2.7783,2.6852,2.6607,2.6565,2.6436,2.6539,2.7137,2.8209,2.9289,2.9899,2.9784,3.0173,3.0541,3.1028,3.1495,3.1796,3.1937,3.2301,3.2508,3.2453,3.2482,3.2439,3.2425,3.2411,3.2411,3.2427,3.2519,3.2838,3.3674,3.4678,3.6094,3.7678,3.9153,3.9952,4.0184,4.0263,4.0251,4.0201,4.0238,4.0456,4.0825,4.1151,4.1678,4.2239,4.2673,4.2975,4.3533,4.3912,4.4081,4.4249,4.4368,4.4447,4.4353,4.4356,4.4466,4.4587,4.4799,4.554,4.6219,4.7215,4.8457,4.966,5.036,5.074,5.1011,5.1184,5.1279,5.131,5.1308,5.1308,5.1306,5.1292,5.1306,5.13,5.13,5.13,2.9585,2.9192,2.9176,2.9097,2.8971,2.8969,2.8953,2.8891,2.8921,2.8519,2.8124,2.8023,2.7623,2.7058,2.7096,2.696,2.6998,2.7028,2.6909,2.6964,2.748,2.7653,2.7484,2.6905,2.6487,2.6452,2.6253,2.6504,2.6994,2.7153,2.7528,2.8575,2.8689,2.9144,2.9798,2.9814,2.9741,2.9377,2.9232,2.8511,2.7544,2.7298,2.7082,2.6776,2.6998,2.7783,2.8773,2.9616,3.0588,3.139,3.1302,3.1174,3.155,3.1694,3.209,3.266,3.2904,3.2973,3.2827,3.2732,3.2662,3.2425,3.2411,3.2411,3.2411,3.2437,3.2953,3.3838,3.4763,3.6244,3.8363,3.9606,4.0156,4.0311,4.0424,4.0448,4.0407,4.0448,4.0669,4.1128,4.1591,4.209,4.2702,4.3124,4.3392,4.3558,4.3651,4.3742,4.3816,4.3889,4.4008,4.4158,4.4318,4.4508,4.4612,4.4808,4.5316,4.5947,4.6879,4.7642,4.8848,5.0101,5.0488,5.0865,5.1217,5.1275,5.1298,5.1353,5.1356,5.1331,5.1305,5.1319,5.1316,5.1308,5.1304,3.057,3.021,3.0194,3.0027,2.9766,2.9721,2.9611,2.9471,2.958,2.9282,2.8723,2.8498,2.8121,2.7723,2.7706,2.7689,2.7689,2.7861,2.7947,2.7934,2.8068,2.8149,2.8298,2.7736,2.73,2.7521,2.7246,2.7497,2.7917,2.819,2.8532,2.901,2.9425,2.9719,2.9995,3.0154,3.0011,2.9638,2.9522,2.8914,2.7899,2.7695,2.7405,2.7017,2.73,2.8066,2.9243,3.0152,3.1223,3.2076,3.2212,3.2141,3.2339,3.2328,3.2592,3.2933,3.2947,3.2852,3.2689,3.2648,3.258,3.2439,3.2411,3.2509,3.2645,3.2765,3.3157,3.4001,3.5107,3.6679,3.8955,3.9552,3.9993,4.0434,4.0558,4.06,4.0612,4.0612,4.0877,4.1428,4.1878,4.2432,4.2977,4.3409,4.36,4.3678,4.3767,4.3865,4.3989,4.4067,4.4199,4.4351,4.4489,4.4626,4.4718,4.4915,4.5207,4.5717,4.6312,4.6849,4.7562,4.8923,5.0207,5.061,5.1018,5.1267,5.131,5.1366,5.1394,5.1367,5.1359,5.1335,5.1331,5.1326,5.1303,3.178,3.1203,3.1218,3.0852,3.0359,3.0344,3.0178,2.9857,3.0011,2.9994,2.9418,2.9012,2.8998,2.8757,2.8741,2.8661,2.8693,2.8889,2.9018,2.8955,2.8844,2.8955,2.9081,2.8812,2.878,2.9209,2.8476,2.843,2.8815,2.9302,2.9045,2.8975,2.9677,2.9914,2.9769,2.9941,3.01,2.9885,2.9783,2.916,2.8173,2.7939,2.7605,2.7171,2.7465,2.8469,2.9746,3.0724,3.1633,3.2586,3.3108,3.3337,3.333,3.3107,3.3016,3.3069,3.3011,3.2915,3.2861,3.274,3.2699,3.2563,3.2578,3.2728,3.3025,3.3295,3.3636,3.4395,3.548,3.7022,3.8822,3.9393,3.973,4.0206,4.0535,4.0733,4.0781,4.0793,4.1152,4.1698,4.2056,4.2511,4.3078,4.3556,4.3667,4.3794,4.3899,4.3992,4.412,4.4248,4.4376,4.4468,4.4599,4.477,4.4852,4.4931,4.5237,4.5481,4.5935,4.6265,4.6636,4.7665,4.9026,5.0281,5.0772,5.1046,5.1299,5.1379,5.1383,5.1399,5.1396,5.1373,5.1349,5.1343,5.132,3.2574,3.2159,3.216,3.1979,3.1696,3.1668,3.1581,3.1552,3.1538,3.1277,3.0689,3.057,3.0164,2.9873,2.9765,2.9749,2.978,2.9919,2.9875,2.986,2.9878,3.0137,3.0048,2.9752,3.0169,3.0494,2.9668,2.8925,2.9021,2.9062,2.9174,2.9085,2.9214,2.936,2.958,2.9784,2.9987,3.0148,3.0133,2.9522,2.8705,2.8324,2.8063,2.7527,2.7962,2.9138,3.047,3.1139,3.1999,3.3604,3.3879,3.3933,3.3835,3.3442,3.3429,3.3642,3.3626,3.3432,3.333,3.3395,3.333,3.3227,3.3118,3.3298,3.3556,3.3783,3.4219,3.5013,3.5991,3.7166,3.758,3.862,3.9467,3.9904,4.0399,4.0896,4.1065,4.118,4.1356,4.1938,4.2241,4.2589,4.3204,4.3666,4.3808,4.3947,4.4065,4.4188,4.4303,4.4418,4.4517,4.4599,4.4679,4.4865,4.5003,4.5091,4.5235,4.5273,4.5602,4.5875,4.6244,4.6686,4.773,4.9047,5.0294,5.0988,5.1188,5.1346,5.1396,5.1395,5.1392,5.139,5.1385,5.136,5.1375,3.3038,3.2893,3.2864,3.2796,3.2689,3.2676,3.2539,3.2358,3.2454,3.2216,3.1721,3.1347,3.1043,3.0734,3.057,3.0689,3.094,3.1028,3.0999,3.0984,3.0617,3.0585,3.0511,3.0102,3.0168,3.0322,2.9868,2.9537,2.9667,2.9798,2.9298,2.8767,2.8879,2.9072,2.9032,2.921,2.9519,2.9913,2.984,2.9402,2.8491,2.8237,2.795,2.8187,2.8779,2.9904,3.0954,3.1977,3.2758,3.3799,3.4088,3.4088,3.3996,3.3879,3.371,3.3873,3.3797,3.3655,3.3529,3.3503,3.3477,3.3559,3.3559,3.3796,3.4219,3.4568,3.4953,3.5656,3.6065,3.6853,3.7432,3.812,3.8847,3.9743,4.0279,4.0813,4.136,4.1547,4.1871,4.2223,4.2491,4.2903,4.3468,4.3806,4.3945,4.4096,4.4226,4.4358,4.4487,4.4572,4.4666,4.4745,4.4846,4.4968,4.512,4.5167,4.5227,4.5283,4.5342,4.5615,4.5875,4.6311,4.6936,4.79,4.9124,5.0336,5.1175,5.1353,5.1381,5.1388,5.1386,5.1402,5.1397,5.1394,5.1389,3.3516,3.3464,3.345,3.3411,3.3348,3.3332,3.3105,3.2848,3.2956,3.2832,3.2489,3.2042,3.1846,3.1733,3.1634,3.172,3.2066,3.1934,3.173,3.1288,3.0579,3.0382,3.0314,2.9932,2.9599,3.0075,3.0014,2.9989,2.9755,2.9844,2.9208,2.852,2.8683,2.8761,2.8417,2.8688,2.8905,2.9125,2.9098,2.8732,2.8218,2.7976,2.807,2.8578,2.971,3.0664,3.1486,3.2414,3.3258,3.3874,3.4088,3.4088,3.4113,3.4126,3.4054,3.3838,3.3594,3.3529,3.362,3.3671,3.3895,3.4164,3.4095,3.4423,3.4878,3.5323,3.5732,3.6184,3.6387,3.6583,3.7162,3.7534,3.8336,3.924,3.9889,4.0421,4.1376,4.1899,4.2236,4.2533,4.2783,4.3169,4.3672,4.3976,4.4119,4.4214,4.434,4.451,4.4632,4.4731,4.4815,4.4913,4.5016,4.5103,4.5192,4.5237,4.529,4.5325,4.5341,4.5475,4.5676,4.5908,4.6572,4.7219,4.7996,4.9199,5.0267,5.1201,5.1132,5.1138,5.1296,5.1392,5.1387,5.1385,5.1402,3.4226,3.4013,3.4,3.3797,3.3516,3.3516,3.3385,3.3253,3.3293,3.324,3.3171,3.3062,3.2967,3.285,3.2853,3.2595,3.2207,3.1848,3.1431,3.0889,3.0363,3.0112,3.0112,3.0042,2.9631,2.9772,2.985,2.9552,2.9254,2.9121,2.8634,2.7953,2.7809,2.7806,2.8193,2.8247,2.8593,2.9088,2.9121,2.8971,2.8849,2.8958,2.9101,2.9553,3.0453,3.1398,3.2024,3.2844,3.3575,3.4037,3.4138,3.4126,3.4113,3.4226,3.425,3.4188,3.4138,3.4163,3.4407,3.4493,3.4634,3.4899,3.4981,3.5253,3.5605,3.5924,3.6178,3.6259,3.6492,3.6665,3.7005,3.7542,3.8179,3.8765,3.9395,4.0297,4.1308,4.2049,4.2414,4.2999,4.328,4.3444,4.3761,4.4036,4.4278,4.4361,4.4482,4.4652,4.4789,4.4883,4.4937,4.5026,4.512,4.5222,4.5262,4.53,4.5321,4.5361,4.5366,4.539,4.5539,4.576,4.6125,4.6772,4.7438,4.821,4.9393,5.0193,5.0591,5.1003,5.1316,5.1394,5.1393,5.1392,5.139,3.4631,3.4325,3.4337,3.4242,3.4075,3.4079,3.3987,3.3886,3.3876,3.3822,3.372,3.3565,3.326,3.2858,3.2669,3.2262,3.1697,3.1454,3.1177,3.0603,3.019,2.9855,2.9595,2.9297,2.9113,2.919,2.9085,2.8879,2.8601,2.87,2.8505,2.7818,2.7668,2.7711,2.7972,2.7867,2.8001,2.8258,2.8471,2.879,2.917,2.9393,2.9556,2.9891,3.1181,3.194,3.2452,3.3398,3.3978,3.437,3.4525,3.4721,3.4804,3.5016,3.5214,3.5214,3.5151,3.5098,3.5021,3.5259,3.547,3.5627,3.5727,3.5898,3.6233,3.6419,3.6578,3.671,3.6798,3.6876,3.6936,3.7379,3.8,3.8564,3.9084,4.0067,4.1092,4.19,4.2539,4.3182,4.3751,4.3851,4.3981,4.4236,4.4475,4.456,4.466,4.4789,4.492,4.501,4.5074,4.5136,4.5208,4.5297,4.5329,4.5361,4.5366,4.5395,4.5395,4.541,4.5438,4.5669,4.5993,4.6121,4.6469,4.7402,4.8596,4.9534,5.0281,5.0847,5.1394,5.1394,5.1394,5.1394,5.1392,3.4947,3.4643,3.4606,3.4586,3.4558,3.4546,3.4472,3.4349,3.4337,3.4275,3.4111,3.3777,3.3149,3.2532,3.2297,3.1863,3.1093,3.0992,3.0744,3.0385,2.9937,2.9553,2.93,2.8864,2.863,2.8465,2.8666,2.8507,2.8495,2.8537,2.8455,2.7868,2.7843,2.7808,2.7765,2.7871,2.8073,2.8256,2.8582,2.9029,2.952,2.9694,2.9924,3.0577,3.1555,3.2459,3.2621,3.3758,3.4496,3.4749,3.4951,3.5128,3.5346,3.5615,3.5798,3.5847,3.5912,3.597,3.5857,3.5918,3.6111,3.6245,3.6336,3.6447,3.6667,3.6793,3.6806,3.693,3.7056,3.7105,3.7212,3.7448,3.799,3.856,3.9017,3.994,4.0787,4.1466,4.2299,4.3103,4.3657,4.4151,4.4303,4.4522,4.4667,4.4764,4.4858,4.4949,4.5032,4.5131,4.5175,4.5224,4.5279,4.5355,4.5385,4.5405,4.5415,4.5434,4.5434,4.5448,4.5504,4.556,4.5754,4.5815,4.5889,4.6732,4.7973,4.9021,5.0027,5.0535,5.1003,5.1297,5.1394,5.1394,5.1394,3.5198,3.5041,3.4935,3.4804,3.4691,3.4679,3.4606,3.4497,3.4485,3.4423,3.4239,3.3708,3.3201,3.2885,3.225,3.1648,3.0905,3.0708,3.0299,2.9796,2.9324,2.9241,2.91,2.9018,2.8889,2.8724,2.87,2.8597,2.8496,2.8645,2.8394,2.8042,2.8137,2.8042,2.81,2.8298,2.863,2.8908,2.9282,2.9545,2.993,3.0135,3.0384,3.073,3.1775,3.2646,3.2583,3.3936,3.4849,3.511,3.5357,3.5565,3.5884,3.6147,3.6291,3.6374,3.662,3.6684,3.6654,3.6539,3.6577,3.6821,3.6908,3.6851,3.6968,3.6978,3.7007,3.7077,3.725,3.7448,3.7613,3.7898,3.8327,3.8674,3.9108,3.9612,4.033,4.0838,4.1713,4.2811,4.3545,4.4027,4.4493,4.4656,4.4827,4.4925,4.5045,4.5131,4.5151,4.5235,4.5262,4.5309,4.5366,4.541,4.5424,4.5457,4.5504,4.5517,4.5522,4.5535,4.5573,4.562,4.5696,4.5803,4.5988,4.6656,4.7284,4.8259,4.9188,5.0027,5.0613,5.0964,5.1297,5.1394,5.1394,3.5407,3.5281,3.5182,3.5034,3.4828,3.4811,3.4739,3.4631,3.4618,3.4291,3.3788,3.306,3.2464,3.2081,3.1792,3.1214,3.0516,3.0324,2.9985,2.9727,2.9457,2.9271,2.9195,2.9121,2.9029,2.8971,2.8959,2.8936,2.8869,2.8955,2.9016,2.8877,2.8693,2.8503,2.8586,2.8865,2.9287,2.9618,2.9897,3.0075,3.0384,3.0468,3.0589,3.0605,3.1918,3.2586,3.2867,3.4369,3.507,3.5526,3.5927,3.6225,3.6474,3.6761,3.6907,3.6927,3.7196,3.7253,3.7291,3.7167,3.7185,3.7077,3.7085,3.7066,3.7172,3.7201,3.7268,3.7383,3.7586,3.7836,3.7981,3.8378,3.8777,3.8998,3.9278,3.9592,3.9965,4.0484,4.1065,4.2121,4.3093,4.3849,4.4317,4.4741,4.4939,4.5097,4.5216,4.5297,4.5298,4.5305,4.533,4.538,4.5429,4.5462,4.5476,4.5522,4.5594,4.5594,4.5599,4.5599,4.5616,4.5723,4.5787,4.5875,4.598,4.6399,4.6916,4.7561,4.8466,4.9578,5.0261,5.0691,5.1003,5.1355,5.1394,3.4967,3.4818,3.4785,3.4861,3.4996,3.5018,3.4826,3.4589,3.4528,3.406,3.3207,3.246,3.184,3.1413,3.1074,3.0784,3.0315,3.012,3.0022,2.988,2.9754,2.9598,2.947,2.9425,2.9464,2.9332,2.9271,2.9271,2.9266,2.9489,2.9529,2.9518,2.9523,2.9372,2.9161,2.9451,2.9892,3.0219,3.0362,3.0441,3.0733,3.0753,3.0743,3.0846,3.2021,3.2806,3.3366,3.4577,3.5636,3.6073,3.6491,3.6909,3.7169,3.7384,3.7559,3.7613,3.7622,3.7595,3.7595,3.7577,3.7522,3.74,3.7306,3.7288,3.7354,3.7476,3.7685,3.7774,3.8032,3.8304,3.8434,3.8818,3.9078,3.9266,3.9458,3.9744,3.9878,4.029,4.0757,4.1421,4.2292,4.3115,4.4252,4.4744,4.51,4.5243,4.5284,4.536,4.537,4.538,4.5386,4.5424,4.549,4.5508,4.5527,4.559,4.5625,4.562,4.562,4.5612,4.5658,4.5749,4.5822,4.5892,4.5996,4.612,4.649,4.7018,4.8096,4.9324,5.0047,5.0808,5.1062,5.1394,5.1394,3.3751,3.3552,3.36,3.4249,3.5113,3.5241,3.4816,3.4174,3.4057,3.3606,3.2807,3.1995,3.1571,3.1297,3.0824,3.0491,3.0323,3.0221,3.0167,3.0124,3.0071,3.0103,3.013,3.0076,3.0033,2.977,2.982,2.9859,2.9695,2.9903,2.9978,3.0175,3.0366,3.0345,2.9881,3.0102,3.0483,3.0804,3.0844,3.0865,3.0855,3.0875,3.0871,3.1138,3.2006,3.2809,3.3649,3.4763,3.585,3.6626,3.689,3.7235,3.7559,3.7559,3.7649,3.7694,3.7658,3.7622,3.7604,3.7604,3.7649,3.764,3.7595,3.7613,3.7694,3.7896,3.8122,3.818,3.8514,3.8828,3.9038,3.9207,3.9376,3.9545,3.973,3.9834,3.9995,4.0089,4.0573,4.0952,4.139,4.2104,4.3606,4.4723,4.5179,4.539,4.54,4.5424,4.5424,4.5462,4.5475,4.5503,4.5562,4.558,4.5616,4.5637,4.5678,4.5669,4.5654,4.5667,4.5696,4.5798,4.5859,4.5905,4.6033,4.618,4.6252,4.6398,4.7726,4.9053,5.0321,5.1062,5.1277,5.1394,5.1394,3.3997,3.3761,3.3673,3.3859,3.4181,3.3999,3.3749,3.347,3.2996,3.2574,3.2191,3.1481,3.1126,3.0968,3.084,3.0589,3.0526,3.0348,3.0333,3.0338,3.0316,3.0405,3.0514,3.0621,3.0662,3.0798,3.0818,3.0666,3.0629,3.0667,3.0761,3.0972,3.1071,3.1117,3.0978,3.1001,3.1054,3.1137,3.1124,3.1072,3.0992,3.0972,3.0962,3.0982,3.1909,3.2763,3.3656,3.4909,3.5973,3.6943,3.7221,3.7595,3.7775,3.773,3.7721,3.7775,3.7748,3.773,3.781,3.7932,3.8058,3.8008,3.7923,3.8008,3.8326,3.8261,3.8413,3.861,3.8915,3.9143,3.9229,3.9495,3.9682,3.9826,3.9954,4.0005,4.0095,4.0138,4.0382,4.0673,4.106,4.2297,4.3699,4.4772,4.5332,4.549,4.5495,4.5485,4.5485,4.5568,4.5616,4.5629,4.5654,4.5671,4.5691,4.5718,4.5722,4.5699,4.5708,4.5719,4.578,4.5835,4.5939,4.6008,4.6121,4.6245,4.6327,4.6602,4.7574,4.8782,4.9836,5.0888,5.1316,5.1394,5.1394,3.3533,3.3295,3.3308,3.3279,3.324,3.3311,3.326,3.2888,3.2212,3.1894,3.1762,3.1207,3.1009,3.1025,3.0982,3.0928,3.0908,3.0942,3.0872,3.0851,3.0781,3.0945,3.1076,3.1116,3.1177,3.1418,3.1447,3.1342,3.1329,3.1573,3.1582,3.1542,3.1632,3.1596,3.153,3.1426,3.1332,3.1339,3.1288,3.1193,3.1134,3.1114,3.1107,3.132,3.1864,3.2564,3.3724,3.4863,3.596,3.6851,3.7497,3.7862,3.7872,3.7845,3.7828,3.7872,3.7854,3.7828,3.7925,3.8198,3.8331,3.848,3.8306,3.8426,3.8755,3.8711,3.878,3.899,3.928,3.9433,3.9567,3.9843,3.9933,4.0043,4.0089,4.0133,4.0186,4.0239,4.0294,4.057,4.0932,4.2306,4.3664,4.4691,4.5512,4.5568,4.5596,4.5573,4.5553,4.5629,4.5702,4.5722,4.5715,4.5731,4.5739,4.5746,4.575,4.575,4.5754,4.5745,4.5831,4.5895,4.5998,4.6099,4.6196,4.6294,4.6415,4.6845,4.7407,4.8106,4.9001,5.0053,5.1122,5.1394,5.1394,3.2293,3.2179,3.248,3.2558,3.2512,3.3291,3.3252,3.2593,3.2001,3.1765,3.173,3.1288,3.1269,3.1435,3.1435,3.1397,3.1367,3.1596,3.1613,3.1612,3.1454,3.1595,3.1658,3.1695,3.1733,3.1634,3.1671,3.1878,3.1912,3.1912,3.1957,3.202,3.2028,3.1947,3.1809,3.1688,3.1566,3.15,3.1378,3.1303,3.1274,3.1242,3.1312,3.1538,3.1913,3.2674,3.3696,3.4717,3.5668,3.6568,3.735,3.7734,3.7905,3.7924,3.7959,3.7967,3.7951,3.7977,3.8104,3.8418,3.8733,3.8934,3.8927,3.8889,3.8966,3.9177,3.9249,3.9408,3.9663,3.9818,3.9996,4.0038,4.0108,4.0172,4.0201,4.0243,4.0308,4.0348,4.0375,4.0539,4.0703,4.1728,4.3173,4.4306,4.5334,4.5625,4.5642,4.5678,4.5658,4.5686,4.5738,4.5777,4.5789,4.5804,4.5807,4.5788,4.5788,4.5769,4.5746,4.5763,4.5859,4.5973,4.6065,4.6144,4.6231,4.6301,4.6381,4.6518,4.679,4.7567,4.8539,4.9531,5.0699,5.1278,5.1394,3.2996,3.2761,3.2848,3.2856,3.2852,3.3299,3.3124,3.2546,3.2318,3.2265,3.2256,3.2109,3.203,3.2179,3.2048,3.1986,3.1942,3.1924,3.1914,3.1905,3.1941,3.2012,3.21,3.2188,3.2266,3.2385,3.2436,3.2351,3.2352,3.2283,3.2197,3.224,3.2258,3.2144,3.2046,3.1964,3.1783,3.1632,3.1492,3.1435,3.1426,3.1395,3.1492,3.1621,3.1849,3.2611,3.3565,3.4189,3.506,3.5987,3.6824,3.7262,3.7372,3.7777,3.8086,3.8206,3.8246,3.8324,3.8559,3.8876,3.9163,3.9421,3.9555,3.9721,3.9715,3.9638,3.968,3.9813,3.993,4.0038,4.0114,4.0158,4.022,4.0262,4.0289,4.0329,4.0392,4.0422,4.0466,4.0571,4.0753,4.157,4.2953,4.4001,4.4933,4.5405,4.5699,4.5738,4.575,4.575,4.5766,4.5807,4.5806,4.5814,4.5801,4.5801,4.5805,4.5809,4.58,4.5835,4.5964,4.6061,4.6131,4.6191,4.625,4.6289,4.6306,4.6442,4.6579,4.7396,4.8349,4.9283,5.0177,5.0837,5.134,3.3383,3.3155,3.3266,3.3346,3.3407,3.3581,3.3382,3.3065,3.2846,3.2769,3.2737,3.2542,3.2583,3.2689,3.2598,3.2541,3.2482,3.2593,3.2612,3.2554,3.2343,3.2503,3.2612,3.2621,3.2705,3.2884,3.2908,3.2753,3.2696,3.2622,3.2521,3.242,3.2412,3.2327,3.2214,3.2135,3.2029,3.1838,3.1662,3.1559,3.1538,3.1547,3.1587,3.1794,3.1976,3.2555,3.3402,3.3852,3.4571,3.5398,3.6168,3.6791,3.7137,3.7798,3.8218,3.8328,3.8352,3.8489,3.8722,3.9087,3.9421,3.9732,4.0014,4.0133,4.0099,3.9993,4.0012,4.0072,4.0123,4.0177,4.021,4.0257,4.0293,4.0344,4.0388,4.0426,4.0478,4.0511,4.0592,4.0673,4.1158,4.1855,4.2796,4.3771,4.4511,4.4951,4.5418,4.5754,4.5781,4.5785,4.5784,4.5814,4.5809,4.5816,4.5807,4.5821,4.5848,4.5871,4.5886,4.596,4.6077,4.6153,4.6179,4.623,4.6289,4.6289,4.6289,4.6308,4.6522,4.7263,4.7886,4.8666,4.964,5.0691,5.1117,3.3548,3.3422,3.3707,3.3875,3.3979,3.3985,3.3934,3.3868,3.344,3.3269,3.3179,3.2819,3.289,3.3131,3.3098,3.307,3.3055,3.3119,3.3157,3.3277,3.3008,3.3008,3.2993,3.3042,3.2963,3.2963,3.2955,3.2914,3.2908,3.281,3.2721,3.2613,3.2631,3.2539,3.2361,3.2353,3.2249,3.2064,3.1912,3.1811,3.1727,3.1727,3.1865,3.2378,3.2444,3.2589,3.3373,3.3951,3.4393,3.4854,3.5461,3.6219,3.6997,3.7575,3.7948,3.8301,3.8248,3.8634,3.8932,3.9326,3.9589,3.987,4.0139,4.0271,4.0267,4.021,4.0201,4.0206,4.0248,4.0281,4.0331,4.0357,4.0388,4.0426,4.0463,4.0491,4.0519,4.0554,4.0595,4.0714,4.0974,4.1663,4.2244,4.3162,4.3943,4.4441,4.4947,4.544,4.5795,4.5799,4.5817,4.5819,4.58,4.581,4.5824,4.5848,4.5908,4.5925,4.5966,4.6042,4.6143,4.6199,4.6237,4.6269,4.6289,4.6289,4.6308,4.6308,4.6348,4.6621,4.7265,4.7987,4.9004,5.0254,5.0988,3.4024,3.3992,3.408,3.4099,3.408,3.408,3.4042,3.3972,3.3881,3.373,3.3645,3.3543,3.3483,3.3562,3.3533,3.3491,3.3523,3.3444,3.3466,3.3426,3.3319,3.3266,3.3247,3.315,3.3096,3.3081,3.3047,3.3,3.2963,3.2924,3.29,3.2818,3.2802,3.2696,3.2538,3.2539,3.2455,3.2327,3.2335,3.2231,3.2188,3.2188,3.2326,3.2661,3.2765,3.29,3.3429,3.3604,3.38,3.4036,3.4685,3.5487,3.6314,3.6673,3.7162,3.7654,3.799,3.8537,3.9133,3.9567,3.9886,4.0101,4.0316,4.0376,4.0381,4.0335,4.0326,4.0339,4.0353,4.0383,4.0413,4.0458,4.0478,4.0515,4.0535,4.0554,4.0561,4.0609,4.0631,4.0758,4.092,4.1319,4.1861,4.2496,4.3263,4.3891,4.4445,4.4993,4.5599,4.5819,4.583,4.5824,4.5807,4.5814,4.5827,4.589,4.5936,4.5986,4.6031,4.6115,4.6198,4.623,4.6269,4.6269,4.6289,4.6289,4.6289,4.6308,4.6367,4.6445,4.6836,4.7637,4.8613,4.9785,5.0586,3.4216,3.4216,3.4216,3.4179,3.4154,3.4142,3.4105,3.4037,3.4042,3.3966,3.3855,3.3854,3.384,3.3814,3.3766,3.3746,3.3737,3.364,3.3605,3.3556,3.3488,3.343,3.3364,3.3271,3.3229,3.3206,3.3109,3.3047,3.3003,3.2963,3.294,3.2916,3.2892,3.2852,3.2737,3.2721,3.2705,3.2647,3.2753,3.2774,3.2724,3.2692,3.27,3.2954,3.3134,3.3269,3.3462,3.3597,3.365,3.3943,3.4597,3.5083,3.5813,3.6327,3.6756,3.7266,3.7784,3.8436,3.912,3.9677,4.0058,4.0261,4.0441,4.0449,4.0463,4.0423,4.0422,4.043,4.0432,4.0453,4.0479,4.0507,4.0523,4.055,4.0576,4.0589,4.0645,4.0704,4.075,4.0832,4.0915,4.1,4.1507,4.1987,4.2766,4.3592,4.4094,4.4882,4.5428,4.5832,4.5841,4.5854,4.5851,4.5811,4.5817,4.5889,4.599,4.6035,4.6102,4.6163,4.625,4.6269,4.6289,4.6289,4.6289,4.6289,4.6289,4.6289,4.6289,4.6348,4.6777,4.7324,4.834,4.9316,5.0137,3.3906,3.4036,3.4166,3.4216,3.4216,3.4216,3.4167,3.4117,3.4117,3.4042,3.394,3.3914,3.3868,3.3834,3.3807,3.3807,3.3773,3.371,3.3684,3.3664,3.3619,3.3541,3.3477,3.3419,3.3356,3.3274,3.3206,3.3119,3.3075,3.3026,3.2987,3.2924,3.2916,3.2916,3.294,3.2955,3.2945,3.3063,3.3167,3.3291,3.3236,3.3136,3.3151,3.3251,3.3401,3.3541,3.3707,3.3782,3.3788,3.4042,3.4448,3.4751,3.5135,3.565,3.6199,3.6677,3.7275,3.7896,3.8593,3.9352,3.9824,4.02,4.0386,4.0499,4.0496,4.0519,4.0519,4.0511,4.0515,4.0515,4.0539,4.0554,4.0588,4.0614,4.0617,4.0652,4.0741,4.0793,4.0836,4.0898,4.0891,4.0895,4.1161,4.1624,4.2232,4.3076,4.3931,4.4776,4.5444,4.574,4.5913,4.5917,4.5914,4.5888,4.5845,4.5942,4.6074,4.6117,4.6167,4.6218,4.6269,4.6289,4.6289,4.6289,4.6289,4.6289,4.6289,4.6289,4.6289,4.6289,4.6543,4.7012,4.7969,4.8926,4.9746,3.2648,3.3268,3.3924,3.4197,3.4197,3.4197,3.4191,3.4185,3.416,3.4117,3.4055,3.3992,3.3914,3.3814,3.3807,3.3807,3.38,3.3739,3.3705,3.3684,3.365,3.3601,3.3552,3.3506,3.3444,3.3371,3.3304,3.3244,3.3183,3.3137,3.3065,3.3011,3.2987,3.305,3.3162,3.3193,3.3253,3.3401,3.3552,3.3659,3.3613,3.3546,3.3539,3.3627,3.3741,3.3755,3.38,3.3807,3.3847,3.3948,3.4144,3.433,3.4575,3.4944,3.5426,3.6069,3.6678,3.7234,3.7924,3.8812,3.9338,3.9731,3.9973,4.0457,4.0483,4.0556,4.0568,4.0575,4.058,4.0592,4.0599,4.0612,4.0633,4.0671,4.0691,4.0767,4.0853,4.0851,4.0871,4.0907,4.0907,4.0883,4.0908,4.1258,4.1538,4.2384,4.3281,4.4144,4.5065,4.5481,4.5944,4.5979,4.5987,4.5974,4.5953,4.6057,4.616,4.6199,4.6219,4.6267,4.6289,4.6289,4.6289,4.6289,4.6289,4.6289,4.6289,4.6289,4.6289,4.6289,4.6289,4.6699,4.7656,4.8574,4.9453]}]]